     2.11           OBSERVATION DATA    G (GPS)             RINEX VERSION / TYPE
teqc 2010Oct21 OPUS Account 20111028 15:24:00UTC            PGM / RUN BY / DATE
Q 1526                                                      MARKER NAME
3051                                                        MARKER NUMBER
CSMIDDLETON NGS                                             OBSERVER / AGENCY
0220280359 TRIMBLE 5700 NP 2.32 / SP 2.32                   REC # / TYPE / VERS
11885611 TRM41249.00 NONE                                   ANT # / TYPE
  -750453.7011 -5572943.6484  2999889.5658                  APPROX POSITION XYZ
        1.9990        0.0000        0.0000                  ANTENNA: DELTA H/E/N
     1     1                                                WAVELENGTH FACT L1/2
     5    L1    L2    C1    P1    P2                        # / TYPES OF OBSERV
    15                                                      LEAP SECONDS
  2011     8    23     0     0   30.0000000     GPS         TIME OF FIRST OBS
                                                            END OF HEADER
 11  8 23  0  0 30.0000000  0  9G10G12G17G09G05G04G25G02G30
 -46601509.24257 -34468208.09854  20921189.2894                   20921188.0664
 -32515853.44557 -24374379.40655  21667591.4774                   21667589.2774
 -81601695.50856 -63245756.21554  23057995.1804                   23057993.6484
 -37597814.53556 -27034129.35953  23445526.8674                   23445527.8054
 -24273721.94956 -18765476.92254  22258237.4534                   22258237.6414
 -66445047.50857 -49709272.20354  21508630.9144                   21508629.5984
  -2115578.46155  -1607133.53553  24474629.7584                   24474632.1484
 -54499835.22357 -42317381.39855  20657464.1254                   20657460.0234
   -764678.23015                  24316000.406
 11  8 23  0  1  0.0000000  0  9G10G12G17G09G05G04G25G02G30
 -46701185.11747 -34545877.57445  20902222.3834                   20902220.4804
 -32673678.77347 -24497360.16045  21637558.6024                   21637555.9534
 -81642813.29346 -63277796.10244  23050170.2114                   23050169.3364
 -37613992.25446 -27046735.48043  23442447.8444                   23442449.1414
 -24458598.93747 -18909536.81644  22223056.3914                   22223056.0474
 -66461533.11347 -49722118.14144  21505493.7974                   21505492.5434
  -2308486.58246  -1757451.48043  24437920.0864                   24437922.5784
 -54595429.74247 -42391870.60545  20639273.2424                   20639268.8794
   -959611.477 5                  24278905.773
 11  8 23  0  1 30.0000000  0  9G10G12G17G09G05G04G25G02G30
 -46800220.09047 -34623047.66045  20883376.3134                   20883374.7974
 -32831097.82847 -24620024.34445  21607602.8134                   21607600.4304
 -81683767.71946 -63309708.69143  23042376.6094                   23042375.9344
 -37629933.62546 -27059157.43443  23439414.8594                   23439415.8714
 -24643196.98447 -19053379.35244  22187928.2034                   22187927.5164
 -66477835.96547 -49734821.67644  21502391.2194                   21502390.2584
  -2501246.05946  -1907653.59443  24401240.4844                   24401241.2154
 -54690703.25847 -42466109.68445  20621143.1024                   20621138.9924
  -1154333.730 5                  24241851.008
 11  8 23  0  2  0.0000000  0  9G10G12G17G09G05G04G25G02G30
 -46898620.90647 -34699723.59445  20864651.1024                   20864649.9144
 -32988115.71947 -24742375.93045  21577723.4534                   21577720.6804
 -81724565.14846 -63341498.93043  23034613.6094                   23034612.6334
 -37645649.75046 -27071403.86343  23436423.9454                   23436425.1564
 -24827520.38746 -19197007.88744  22152853.2664                   22152852.2854
 -66493965.59447 -49747390.22344  21499321.4304                   21499320.8094
  -2693861.57446  -2057743.57043  24364585.3914                   24364588.4064
 -54785664.20747 -42540105.19945  20603072.6414                   20603068.6764
  -1348849.496 5                  24204835.742
 11  8 23  0  2 30.0000000  0  9G10G12G17G09G05G04G25G02G30
 -46996386.36747 -34775904.44545  20846047.5164                   20846045.5044
 -33144728.80547 -24864412.08645  21547920.2424                   21547918.0984
 -81765204.05946 -63373165.69943  23026880.5474                   23026879.4104
 -37661143.24246 -27083476.82843  23433475.5164                   23433477.0044
 -25011565.85947 -19340419.85244  22117830.1884                   22117829.5594
 -66509923.34847 -49759824.85244  21496285.4384                   21496283.5664
  -2886329.94546  -2207718.85543  24327960.7034                   24327962.9064
 -54880312.91847 -42613857.42245  20585061.6884                   20585058.0004
  -1543155.363 5                  24167860.055
 11  8 23  0  3  0.0000000  0  9G10G12G17G09G05G04G25G02G30
 -47093510.82847 -34851585.82845  20827564.8914                   20827563.3164
 -33300930.03147 -24986127.32045  21518196.2424                   21518194.5824
 -81805679.23046 -63404704.82443  23019178.3674                   23019176.4384
 -37676412.39846 -27095374.98043  23430569.5004                   23430571.8244
 -25195325.27047 -19483608.90644  22082861.8984                   22082861.2154
 -66525706.59847 -49772123.50844  21493281.9454                   21493280.4574
  -3078643.81246  -2357573.76643  24291364.4064                   24291366.3984
 -54974645.71547 -42687363.48845  20567110.7034                   20567106.6054
  -1737243.609 5                  24130926.266
 11  8 23  0  3 30.0000000  0  9G10G12G17G09G05G04G25G02G30
 -47189996.33647 -34926769.32445  20809204.4144                   20809202.6024
 -33456719.64547 -25107521.80945  21488550.4454                   21488548.1724
 -81845992.35946 -63436117.71944  23011507.4064                   23011505.5824
 -37691463.00446 -27107102.81643  23427707.1414                   23427708.3364
 -25378798.63346 -19626575.07444  22047947.9844                   22047947.1334
 -66541319.58247 -49784289.49244  21490311.1094                   21490309.3444
  -3270803.10546  -2507308.21143  24254797.3134                   24254799.8014
 -55068666.05147 -42760626.06645  20549219.7114                   20549215.2344
  -1931113.723 5                  24094033.750
 11  8 23  0  4  0.0000000  0  9G10G12G17G09G05G04G25G02G30
 -47285842.41447 -35001454.56245  20790965.6334                   20790963.2814
 -33612094.97747 -25228593.49245  21458984.1024                   21458981.6254
 -81886142.90646 -63467403.91843  23003866.5864                   23003865.4964
 -37706298.74346 -27118663.23443  23424883.8674                   23424884.9064
 -25561982.80546 -19769315.88744  22013089.0394                   22013088.7664
 -66556764.85547 -49796324.78144  21487371.4694                   21487370.4924
  -3462805.41445  -2656920.29343  24218260.7734                   24218263.0044
 -55162375.22347 -42833646.19145  20531386.9614                   20531382.7934
  -2124763.289 5                  24057183.656
 11  8 23  0  4 30.0000000  0  9G10G12G17G09G05G04G25G02G30
 -47381045.27347 -35075638.59845  20772848.8524                   20772847.0944
 -33767050.69947 -25349338.19545  21429497.0944                   21429494.6484
 -81926127.30546 -63498560.64843  22996257.2974                   22996256.8244
 -37720919.93746 -27130056.46543  23422101.2194                   23422102.8914
 -25744871.69146 -19911826.61344  21978286.1884                   21978285.5784
 -66572041.19947 -49808228.44544  21484465.1564                   21484463.6024
  -3654645.00446  -2806405.68043  24181754.0864                   24181756.9804
 -55255770.96147 -42906422.07445  20513614.0164                   20513610.1844
  -2318186.28145   -111430.62953  24020377.8914                   24020375.1454
 11  8 23  0  5  0.0000000  0  9G10G12G17G09G05G04G25G02G30
 -47475605.82847 -35149322.11745  20754854.2114                   20754852.9384
 -33921585.52347 -25469754.94545  21400089.7584                   21400087.7384
 -81965945.93446 -63529588.22743  22988680.5944                   22988679.7504
 -37735331.09446 -27141286.06243  23419359.4064                   23419360.7074
 -25927463.51647 -20054105.86344  21943539.8134                   21943539.1644
 -66587151.88747 -49820003.01244  21481589.3914                   21481587.8244
  -3846320.47745  -2955763.07042  24145279.5314                   24145281.9344
 -55348855.61747 -42978955.55945  20495900.7194                   20495896.5664
  -2511381.09046   -261971.98042  23983613.8444                   23983612.8594
 11  8 23  0  5 30.0000000  0  9G10G12G17G09G05G04G25G02G30
 -45994099.70347 -33994901.73445  21036775.8054                   21036774.2464
 -32500271.19547 -24362237.28145  21670556.7504                   21670554.6644
 -80430176.07446 -62332884.51243  23280927.6174                   23280926.9144
 -36174114.42246 -25924753.69543  23716448.9384                   23716450.7154
 -24534328.85947 -18968546.29344  22208644.5784                   22208644.3204
 -65026677.77347 -48604049.18044  21778538.6094                   21778535.9924
  -2462402.16845  -1877385.18042  24408630.8524                   24408633.6134
 -53866206.47747 -41823644.52045  20778039.7814                   20778035.6024
  -1128917.73846    815272.26642  24246687.3674                   24246686.7304
 11  8 23  0  6  0.0000000  0  9G10G12G17G09G05G04G25G02G30
 -46087372.00847 -34067581.43045  21019026.9144                   21019025.0984
 -32653955.00447 -24481990.88745  21641311.1884                   21641309.7664
 -80469659.57046 -62363650.94143  23273414.1484                   23273413.1954
 -36188113.94546 -25935662.52043  23713784.6094                   23713786.1724
 -24716315.95346 -19110354.32844  22174013.6484                   22174013.4414
 -65041461.30547 -48615568.82844  21775724.8914                   21775723.5784
  -2653739.65245  -2026479.34042  24372221.2194                   24372223.3754
 -53958670.32447 -41895694.25846  20760444.5234                   20760439.9494
  -1321645.66846    665094.72343  24210011.9224                   24210012.1334
 11  8 23  0  6 30.0000000  0  9G10G12G17G09G05G04G25G02G30
 -46179999.00447 -34139758.28545  21001400.3054                   21001398.5744
 -32807209.21147 -24601409.74245  21612148.6724                   21612145.9304
 -80508974.10946 -62394285.70743  23265933.3134                   23265932.0474
 -36201911.85546 -25946414.26643  23711159.5394                   23711161.4024
 -24897995.90647 -19251923.02344  22139441.0314                   22139440.6024
 -65056083.68447 -48626962.91444  21772941.8204                   21772940.9384
  -2844903.62946  -2175438.23842  24335843.4384                   24335846.0784
 -54050825.09847 -41967503.16445  20742908.2114                   20742903.8794
  -1514135.27046    515102.86343  24173382.3284                   24173382.4734
 11  8 23  0  7  0.0000000  0  9G10G12G17G09G05G04G25G02G30
 -46271983.72747 -34211434.66845  20983896.0164                   20983894.5634
 -32960034.47347 -24720494.35945  21583066.1094                   21583064.5314
 -80548122.12146 -62424790.69943  23258483.2894                   23258482.3054
 -36215514.88746 -25957014.12943  23708571.2424                   23708572.7584
 -25079369.05547 -19393252.64845  22104927.1024                   22104926.0124
 -65070550.03947 -48638235.42244  21770188.8834                   21770187.4264
  -3035894.78546  -2324262.46942  24299499.3204                   24299501.0044
 -54142674.79347 -42039074.34845  20725429.4224                   20725424.8204
  -1706387.09446    365296.28942  24136798.0554                   24136798.6914
 11  8 23  0  7 30.0000000  0  9G10G12G17G09G05G04G25G02G30
 -46363321.36747 -34282606.84845  20966514.9694                   20966513.2034
 -33112423.71947 -24839239.20745  21554067.9304                   21554065.5944
 -80587098.46146 -62455161.93043  23251066.7274                   23251065.4384
 -36228922.02746 -25967461.34443  23706020.4454                   23706021.1644
 -25260427.62947 -19534337.16445  22070472.2584                   22070471.8164
 -65084857.87947 -48649384.39544  21767466.4614                   21767465.1174
  -3226705.81646  -2472946.38743  24263188.8984                   24263190.8164
 -54234215.97747 -42110405.12545  20708009.6484                   20708005.7894
  -1898393.63745    215680.85242  24100261.2664                   24100261.3634
 11  8 23  0  8  0.0000000  0  9G10G12G17G09G05G04G25G02G30
 -46454012.34447 -34353275.12945  20949257.6884                   20949255.4924
 -33264375.78947 -24957643.40245  21525152.5314                   21525149.7854
 -80625903.32846 -62485399.52743  23243682.2424                   23243681.3324
 -36242137.67846 -25977759.34543  23703504.9694                   23703506.2624
 -25441169.59447 -19675174.94145  22036078.5084                   22036077.6564
 -65099010.10547 -48660412.12144  21764773.4694                   21764772.2464
  -3417335.27046  -2621488.79743  24226913.9144                   24226915.0824
 -54325450.89847 -42181497.27046  20690648.4224                   20690643.9494
  -2090152.98045     66258.04342  24063770.5004                   24063770.4344
 11  8 23  0  8 30.0000000  0  9G10G12G17G09G05G04G25G02G30
 -46544058.95747 -34423441.28945  20932122.2814                   20932120.2384
 -33415890.28547 -25075706.62945  21496319.9614                   21496317.6954
 -80664538.88746 -62515505.23043  23236330.3364                   23236329.2114
 -36255167.50846 -25987912.59043  23701024.9224                   23701026.9844
 -25621594.70347 -19815765.84844  22001744.0944                   22001743.9924
 -65113011.36747 -48671322.22344  21762109.2974                   21762107.8134
  -3607782.86346  -2769889.51243  24190672.7584                   24190674.1054
 -54416382.71147 -42252353.22345  20673344.9844                   20673340.5554
  -2281664.75845    -82971.92242  24027326.8134                   24027326.8594
 11  8 23  0  9  0.0000000  0  9G10G12G17G09G05G04G25G02G30
 -46633457.24247 -34493102.28145  20915110.1954                   20915108.3164
 -33566961.85247 -25193424.70345  21467572.1954                   21467570.2934
 -80703000.89146 -62545475.67243  23229010.9304                   23229010.1054
 -36268011.05946 -25997920.67643  23698581.3984                   23698583.6134
 -25801696.53547 -19956104.83244  21967471.7504                   21967472.1724
 -65126859.73447 -48682113.17644  21759473.9774                   21759472.5864
  -3798042.39146  -2918143.68443  24154467.4614                   24154468.5124
 -54507009.05147 -42322971.13745  20656098.6564                   20656095.2504
  -2472922.63745   -232003.95342  23990932.1564                   23990932.7074
 11  8 23  0  9 30.0000000  0  9G10G12G17G09G05G04G25G02G30
 -46722208.77347 -34562259.31245  20898221.1954                   20898219.3554
 -33717589.54347 -25310796.89545  21438908.9534                   21438906.6724
 -80741290.22746 -62575311.58043  23221725.0394                   23221723.7194
 -36280673.70345 -26007787.75443  23696171.2344                   23696174.2304
 -25981473.66847 -20096190.81645  21933262.8204                   21933260.8794
 -65140559.02347 -48692787.95744  21756866.5234                   21756865.8444
  -3988112.98846  -3066250.61743  24118298.3204                   24118299.6024
 -54597332.95347 -42393353.39545  20638910.6024                   20638907.2774
  -2663925.33645   -380837.13342  23954584.2504                   23954586.7774
 11  8 23  0 10  0.0000000  0  9G10G12G17G09G05G04G25G02G30
 -46810312.98047 -34630911.92245  20881455.5394                   20881454.2194
 -33867770.59847 -25427821.07045  21410330.3834                   21410327.9534
 -80779405.99946 -62605012.25243  23214471.2034                   23214470.8954
 -36293158.25845 -26017516.12142  23693795.7114                   23693798.3834
 -26160922.95747 -20236021.32845  21899113.0314                   21899111.7934
 -65154110.91047 -48703347.89544  21754288.0234                   21754286.6804
  -4177991.49646  -3214207.89143  24082165.5474                   24082166.7344
 -54687355.27047 -42463500.65245  20621779.8444                   20621775.9384
  -2854669.59445   -529469.12542  23918286.7504                   23918289.9884
 11  8 23  0 10 30.0000000  0  9G10G12G17G09G05G04G25G02G30
 -46897768.42247 -34699059.02045  20864813.3524                   20864812.0824
 -34017502.08647 -25544494.91845  21381836.8524                   21381834.6954
 -80817346.73846 -62634576.50443  23207252.7114                   23207250.9924
 -36305467.36346 -26027107.75042  23691452.8444                   23691456.2624
 -26340040.72747 -20375593.53545  21865029.1804                   21865027.6414
 -65167516.50047 -48713793.83244  21751736.9534                   21751735.7974
  -4367674.65246  -3362012.90243  24046070.2114                   24046071.5084
 -54777075.90647 -42533412.84045  20604707.0234                   20604703.0204
  -3045151.79745   -677896.77742  23882038.8914                   23882041.6334
 11  8 23  0 11  0.0000000  0  9G10G12G17G09G05G04G25G02G30
 -46984578.11747 -34766702.92645  20848293.9924                   20848292.0314
 -34166784.12947 -25660818.55545  21353429.4454                   21353427.1054
 -80855114.71546 -62664006.16843  23200065.1094                   23200064.1844
 -36317607.10246 -26036567.37542  23689143.5474                   23689146.5824
 -26518826.96146 -20514907.37945  21831006.2274                   21831005.5904
 -65180780.16447 -48724129.17244  21749212.8914                   21749211.8484
  -4557162.33646  -3509665.62143  24010010.8674                   24010012.7584
 -54866498.82447 -42603093.02745  20587690.6094                   20587686.4534
  -3235371.83646   -826120.19942  23845842.2664                   23845843.1484
 11  8 23  0 11 30.0000000  0  9G10G12G17G09G05G04G25G02G30
 -47070741.37547 -34833843.13345  20831897.6334                   20831895.8244
 -34315613.40647 -25776789.39545  21325107.4534                   21325105.6914
 -80892708.64546 -62693300.19943  23192911.5784                   23192910.4104
 -36329580.15645 -26045897.09042  23686865.9224                   23686867.9614
 -26697277.94146 -20653960.00045  21797047.9384                   21797047.3554
 -65193903.55947 -48734355.21544  21746715.7814                   21746714.4144
  -4746451.27046  -3657163.45743  23973991.2814                   23973992.1994
 -54955624.59447 -42672541.68445  20570729.5634                   20570725.9804
  -3425326.13346   -974136.50842  23809695.2504                   23809694.6134
 11  8 23  0 12  0.0000000  0  9G10G12G17G09G05G04G25G02G30
 -47156256.78147 -34900478.50445  20815624.8364                   20815622.7114
 -34463986.98447 -25892405.12945  21296873.4454                   21296871.2854
 -80930126.57046 -62722457.06643  23185791.2664                   23185790.3954
 -36341388.40645 -26055098.47342  23684618.6954                   23684621.2974
 -26875389.33647 -20792748.00045  21763154.8054                   21763153.4964
 -65206887.06647 -48744472.25444  21744245.9384                   21744243.6214
  -4935537.47745  -3804503.31243  23938009.5314                   23938010.5784
 -55044453.00047 -42741758.61745  20553825.9384                   20553822.9344
  -3615010.58246  -1121942.60543  23773598.5164                   23773598.4734
 11  8 23  0 12 30.0000000  0  9G10G12G17G09G05G04G25G02G30
 -47241124.09847 -34966608.87945  20799474.5944                   20799472.8284
 -34611902.53547 -26007663.97345  21268726.5474                   21268723.9534
 -80967367.76646 -62751476.23443  23178704.8444                   23178703.3164
 -36353035.31246 -26064174.10242  23682402.3444                   23682404.5084
 -27053158.68447 -20931269.50045  21729325.8524                   21729325.2034
 -65219732.81647 -48754481.94944  21741800.8444                   21741799.3364
  -5124418.41846  -3951683.19943  23902065.8444                   23902067.5474
 -55132985.28147 -42810744.80545  20536979.5394                   20536975.5784
  -3804422.32046  -1269536.16043  23737554.9534                   23737555.1134
 11  8 23  0 13  0.0000000  0  9G10G12G17G09G05G04G25G02G30
 -47325341.96147 -35032233.18445  20783448.4064                   20783446.9264
 -34759356.14547 -26122562.86345  21240666.9694                   21240664.5124
 -81004430.67646 -62780356.48443  23171651.0234                   23171650.8324
 -36364522.92646 -26073125.55542  23680216.7894                   23680218.4574
 -27230581.39847 -21069520.87945  21695563.9224                   21695563.0594
 -65232441.00447 -48764384.47744  21739382.1804                   21739380.8324
  -5313089.99246  -4098699.96143  23866163.2274                   23866163.9384
 -55221221.19947 -42879500.06245  20520188.7114                   20520184.6414
  -3993557.03146  -1416913.87543  23701564.2734                   23701564.1054
 11  8 23  0 13 30.0000000  0  9G10G12G17G09G05G04G25G02G30
 -47408911.61347 -35097352.37145  20767546.2034                   20767544.5474
 -34906346.75447 -26237100.98045  21212695.8594                   21212693.1484
 -81041315.55546 -62809098.00443  23164633.3674                   23164632.3794
 -36375855.65646 -26081956.30943  23678059.7274                   23678061.6954
 -27407655.87947 -21207500.90245  21661868.1024                   21661866.4694
 -65245014.97347 -48774182.40644  21736989.9924                   21736988.5474
  -5501550.64546  -4245552.38743  23830299.8594                   23830300.9924
 -55309162.84847 -42948026.01645  20503453.4844                   20503449.6994
  -4182412.97346  -1564074.34043  23665626.0944                   23665625.4184
 11  8 23  0 14  0.0000000  0  9G10G12G17G09G05G04G25G02G30
 -47491831.04747 -35161964.90645  20751767.0234                   20751765.0164
 -35052869.65647 -26351274.66045  21184812.5634                   21184810.8874
 -81078019.80146 -62837698.77043  23157647.7034                   23157647.7114
 -36387034.44546 -26090667.19942  23675933.2424                   23675934.4384
 -27584377.31247 -21345205.84845  21628238.5704                   21628237.7074
 -65257454.14847 -48783875.30944  21734622.6024                   21734621.6134
  -5689795.62546  -4392236.70743  23794478.5394                   23794479.8634
 -55396809.21947 -43016321.87545  20486775.5784                   20486771.1644
  -4370985.23046  -1711013.72743  23629742.0634                   23629741.5394
 11  8 23  0 14 30.0000000  0  9G10G12G17G09G05G04G25G02G30
 -45998678.59447 -33998469.46145  21035904.8204                   21035902.7074
 -33623499.61347 -25237479.81645  21456813.0784                   21456810.6094
 -79539122.65646 -61638558.21143  23450490.3984                   23450489.9734
 -34822643.73446 -24871661.53943  23973627.9144                   23973628.3444
 -26185318.12147 -20255029.77045  21894470.4844                   21894469.9574
 -63694341.47747 -47565865.48044  22032073.0864                   22032072.2624
  -4302397.28146  -3311147.03943  24058491.2034                   24058492.9494
 -53908740.06247 -41856787.46145  20769945.3754                   20769941.6214
  -2983845.87145   -630125.85943  23893705.7424                   23893705.8874
 11  8 23  0 15  0.0000000  0  9G10G12G17G09G05G04G25G02G30
 -46080300.13347 -34062070.64145  21020372.3054                   21020370.6214
 -33769083.59447 -25350921.87145  21429109.2894                   21429107.0394
 -79575466.00046 -61666877.75043  23443574.9534                   23443574.0984
 -34833527.73846 -24880142.69943  23971555.6884                   23971557.0044
 -26361327.08247 -20392179.53545  21860977.0004                   21860976.0664
 -63706519.62947 -47575355.00444  22029755.5314                   22029754.2274
  -4490205.47346  -3457491.02743  24022752.3204                   24022753.4494
 -53995802.09847 -41924628.00445  20753378.2504                   20753373.9774
  -3171844.71946   -776618.41042  23857930.4454                   23857930.7814
 11  8 23  0 15 30.0000000  0  9G10G12G17G09G05G04G25G02G30
 -46161272.57847 -34125166.03545  21004963.8284                   21004961.6994
 -33914194.57047 -25463995.35545  21401495.7114                   21401493.2664
 -79611628.12946 -61695056.04743  23436693.8524                   23436692.8524
 -34844269.14546 -24888512.73843  23969511.7034                   23969513.6524
 -26536975.55947 -20529048.40645  21827551.9064                   21827551.4224
 -63718569.88347 -47584744.85944  22027462.8594                   22027461.4694
  -4677791.03146  -3603661.53143  23987056.3204                   23987057.7194
 -54082573.44947 -41992242.03945  20736866.3754                   20736862.3554
  -3359552.23445   -922883.93442  23822211.0634                   23822211.0664
 11  8 23  0 16  0.0000000  0  9G10G12G17G09G05G04G25G02G30
 -46241598.38347 -34187757.56645  20989678.2974                   20989676.6454
 -34058832.28147 -25576700.06245  21373972.1884                   21373969.9414
 -79647610.52046 -61723094.37143  23429845.6484                   23429845.1134
 -34854873.54746 -24896776.00443  23967494.0784                   23967495.8714
 -26712262.73047 -20665635.73445  21794196.4534                   21794195.3484
 -63730496.10547 -47594038.06644  22025193.3754                   22025191.7304
  -4865153.33646  -3749658.07843  23951402.1254                   23951403.9264
 -54169057.31647 -42059632.05545  20720408.9454                   20720404.8324
  -3546967.79345  -1068921.97742  23786546.9694                   23786547.5904
 11  8 23  0 16 30.0000000  0  9G10G12G17G09G05G04G25G02G30
 -46321276.79347 -34249844.61345  20974515.6174                   20974514.4884
 -34202993.44147 -25689033.43445  21346539.2034                   21346536.7704
 -79683411.98046 -61750991.69943  23423032.6174                   23423032.9964
 -34865343.50446 -24904934.51642  23965501.0784                   23965503.5554
 -26887185.13347 -20801938.82845  21760909.8984                   21760908.3324
 -63742299.29747 -47603235.42244  22022947.7424                   22022945.8364
  -5052289.05946  -3895478.06243  23915790.5634                   23915792.8404
 -54255254.34047 -42126798.55545  20704005.8834                   20704002.0634
  -3734087.62145  -1214729.51642  23750939.1334                   23750939.7464
 11  8 23  0 17  0.0000000  0  9G10G12G17G09G05G04G25G02G30
 -46400307.05947 -34311426.62945  20959476.9694                   20959475.6174
 -34346675.54747 -25800993.51645  21319197.3364                   21319194.9694
 -79719030.93046 -61778746.80943  23416254.5944                   23416254.6884
 -34875681.28545 -24912990.05542  23963533.8444                   23963535.8444
 -27061739.07847 -20937954.82445  21727692.8834                   21727691.7894
 -63753980.50847 -47612337.73044  22020724.5944                   22020722.8794
  -5239194.57446  -4041118.68043  23880224.7114                   23880226.0394
 -54341164.52047 -42193741.53945  20687657.5634                   20687653.9614
  -3920908.14146  -1360303.87542  23715388.2114                   23715389.0124
 11  8 23  0 17 30.0000000  0  9G10G12G17G09G05G04G25G02G30
 -46478689.05947 -34372503.50045  20944561.4304                   20944559.7894
 -34489875.41847 -25912577.83245  21291947.3594                   21291945.4064
 -79754466.00446 -61806358.61343  23409512.6724                   23409511.8794
 -34885889.46945 -24920944.60542  23961592.0314                   23961593.5204
 -27235920.88747 -21073680.84445  21694547.0944                   21694546.1954
 -63765540.69547 -47621345.73044  22018524.3674                   22018523.5164
  -5425866.38346  -4186577.16043  23844702.0944                   23844703.5394
 -54426788.37147 -42260461.41445  20671364.1254                   20671359.7664
  -4107425.59046  -1505642.09842  23679895.2974                   23679895.6024
 11  8 23  0 18  0.0000000  0  9G10G12G17G09G05G04G25G02G30
 -46556425.80547 -34433077.58244  20929767.7974                   20929766.2624
 -34632593.71947 -26023786.87545  21264788.9384                   21264786.6844
 -79789719.52046 -61833828.94143  23402804.6804                   23402803.3014
 -34895974.46145 -24928803.18743  23959672.3364                   23959675.1254
 -27409730.83647 -21209117.09445  21661472.1954                   21661471.1644
 -63776984.60247 -47630263.12144  22016347.0784                   22016345.7154
  -5612304.65246  -4331853.66443  23809223.4224                   23809225.5044
 -54512129.76247 -42326961.17645  20655124.2034                   20655120.1214
  -4293639.96946  -1650744.15642  23644460.1174                   23644459.9064
 11  8 23  0 18 30.0000000  0  9G10G12G17G09G05G04G25G02G30
 -46633514.91047 -34493147.01645  20915098.5084                   20915097.0784
 -34774825.39847 -26134616.75445  21237723.1884                   21237720.9574
 -79824787.95346 -61861155.07443  23396130.2584                   23396130.0204
 -34905936.30545 -24936565.80543  23957777.2034                   23957779.4694
 -27583163.10547 -21344259.05545  21628468.6334                   21628467.7734
 -63788311.04347 -47639088.96544  22014192.0394                   22014190.4304
  -5798503.87946  -4476943.93443  23773791.3054                   23773793.1254
 -54597186.85547 -42393239.41445  20638938.4384                   20638934.3094
  -4479545.62946  -1795605.66443  23609083.2664                   23609082.8444
 11  8 23  0 19  0.0000000  0  9G10G12G17G09G05G04G25G02G30
 -46709956.34447 -34552711.77745  20900552.2504                   20900550.5474
 -34916568.18747 -26245065.66845  21210750.2894                   21210748.1684
 -79859670.88746 -61888336.65643  23389491.5394                   23389492.2194
 -34915778.24245 -24944234.96942  23955904.0394                   23955906.6564
 -27756214.93047 -21479104.55945  21595538.5084                   21595537.1844
 -63799521.78947 -47647824.65244  22012057.9384                   22012057.1134
  -5984461.28546  -4621845.71143  23738405.3444                   23738405.7854
 -54681961.03547 -42459297.20745  20622806.5004                   20622802.5234
  -4665139.68046  -1940224.32843  23573765.8364                   23573764.7384
 11  8 23  0 19 30.0000000  0  9G10G12G17G09G05G04G25G02G30
 -46785752.43447 -34611773.66444  20886129.5784                   20886127.1294
 -35057822.14547 -26355133.67245  21183870.5474                   21183867.9064
 -79894369.48446 -61915374.57443  23382889.2664                   23382889.0124
 -34925505.55545 -24951814.83243  23954052.7504                   23954055.8834
 -27928885.34847 -21613652.87145  21562680.6094                   21562679.2274
 -63810620.58647 -47656473.09844  22009946.2974                   22009945.8404
  -6170176.10946  -4766558.52043  23703065.2194                   23703065.6174
 -54766455.17247 -42525136.77345  20606727.2344                   20606723.5784
  -4850421.02046  -2084599.35543  23538507.6094                   23538507.4614
 11  8 23  0 20  0.0000000  0  9G10G12G17G09G05G04G25G02G30
 -46860902.14847 -34670331.88745  20871828.5634                   20871826.6764
 -35198583.74647 -26464818.03945  21157084.7504                   21157082.1564
 -79928882.23446 -61942267.65243  23376322.2734                   23376321.6524
 -34935120.30945 -24959307.03542  23952223.8364                   23952227.2624
 -28101170.53147 -21747901.00845  21529895.5864                   21529894.5594
 -63821607.87147 -47665034.64844  22007855.4614                   22007854.3524
  -6355644.26646  -4911079.14543  23667770.7344                   23667772.1334
 -54850669.51647 -42590758.33245  20590702.3674                   20590698.3134
  -5035385.61746  -2228727.58642  23503309.7034                   23503309.5784
 11  8 23  0 20 30.0000000  0  9G10G12G17G09G05G04G25G02G30
 -46935408.25847 -34728388.60245  20857650.5394                   20857648.6334
 -35338852.90647 -26574118.67645  21130392.0784                   21130390.2194
 -79963210.44146 -61969016.98843  23369789.9774                   23369789.4734
 -34944628.11745 -24966715.90242  23950414.2734                   23950418.0004
 -28273069.78147 -21881848.41445  21497184.0864                   21497182.7304
 -63832487.55547 -47673512.36744  22005785.3284                   22005783.9924
  -6540865.32446  -5055407.20343  23632523.6484                   23632525.3284
 -54934607.14547 -42656164.25845  20574729.6334                   20574725.2854
  -5220032.79746  -2372608.47743  23468173.0394                   23468172.6454
 11  8 23  0 21  0.0000000  0  9G10G12G17G09G05G04G25G02G30
 -47009270.94547 -34785943.93745  20843595.0394                   20843593.4884
 -35478627.17247 -26683033.66445  21103793.9454                   21103791.8954
 -79997353.65246 -61995622.09443  23363293.5004                   23363292.5394
 -34954031.68046 -24974043.49643  23948624.3134                   23948628.3554
 -28444580.13747 -22015492.78545  21464546.2584                   21464545.8984
 -63843261.02747 -47681907.31644  22003735.3674                   22003733.8674
  -6725836.24246  -5199540.36343  23597325.6414                   23597326.6254
 -55018268.87547 -42721355.21145  20558808.9144                   20558805.0904
  -5404359.28946  -2516239.44542  23433095.6884                   23433096.4534
 11  8 23  0 21 30.0000000  0  9G10G12G17G09G05G04G25G02G30
 -47082489.69947 -34842997.51645  20829661.6884                   20829660.0744
 -35617903.64147 -26791560.76245  21077291.2194                   21077288.3014
 -80031309.62946 -62022081.34043  23356831.1884                   23356830.8364
 -34963333.04746 -24981291.41442  23946855.5314                   23946858.2384
 -28615697.73847 -22148831.12145  21431984.3364                   21431983.2114
 -63853928.87146 -47690219.96544  22001705.6564                   22001703.9454
  -6910553.17646  -5343475.62543  23562174.4224                   23562176.3524
 -55101654.93747 -42786331.34845  20542941.4534                   20542936.7894
  -5588361.12145  -2659617.42643  23398082.6414                   23398081.7974
 11  8 23  0 22  0.0000000  0  9G10G12G17G09G05G04G25G02G30
 -47155065.41447 -34899550.02345  20815851.2894                   20815849.5474
 -35756680.65647 -26899698.67645  21050882.4694                   21050880.5664
 -80065078.90646 -62048395.09043  23350405.4064                   23350404.8284
 -34972536.51646 -24988463.09443  23945104.3914                   23945106.9384
 -28786420.35947 -22281861.66445  21399496.1484                   21399495.5434
 -63864493.55547 -47698452.20344  21999694.5084                   21999693.5394
  -7095014.00046  -5487211.30143  23527073.8524                   23527074.0044
 -55184767.21947 -42851094.16845  20527125.5634                   20527121.5784
  -5772036.08246  -2802740.70743  23363130.1644                   23363129.5784
 11  8 23  0 22 30.0000000  0  9G10G12G17G09G05G04G25G02G30
 -47226998.68447 -34955601.93445  20802162.9614                   20802160.8204
 -35894956.52047 -27007446.07445  21024569.2974                   21024566.6994
 -80098661.24246 -62074563.22743  23344014.1174                   23344013.7974
 -34981645.42246 -24995561.06643  23943371.4924                   23943373.3364
 -28956745.93447 -22414582.85245  21367085.0084                   21367083.5944
 -63874957.10547 -47706605.63744  21997703.5164                   21997702.9804
  -7279216.42646  -5630745.63343  23492021.1414                   23492021.2584
 -55267606.71947 -42915644.43045  20511361.5704                   20511357.7114
  -5955381.80145  -2945607.47343  23328240.4774                   23328239.8554
 11  8 23  0 23  0.0000000  0  9G10G12G17G09G05G04G25G02G30
 -45722865.74247 -33783550.30145  21088389.9614                   21088387.8484
 -34457302.71147 -25887196.34045  21298145.9224                   21298143.1564
 -78556633.12146 -60872982.90243  23637452.5084                   23637452.1994
 -33415240.78146 -23774986.16443  24241448.2814                   24241450.5274
 -27551244.03947 -21319386.50445  21634542.2274                   21634541.7074
 -62309898.61347 -46487079.57444  22295524.6724                   22295523.9184
  -5887729.53146  -4546470.09843  23756812.1484                   23756812.8484
 -53774750.15647 -41752379.57445  20795442.8524                   20795438.7344
  -4562967.08245  -1860608.94943  23593207.7664                   23593207.6764
 11  8 23  0 23 30.0000000  0  9G10G12G17G09G05G04G25G02G30
 -45793512.86747 -33838600.02345  21074946.5004                   21074944.5354
 -34594567.04347 -25994155.52745  21272025.3914                   21272022.7854
 -78589836.84046 -60898855.93443  23631133.7664                   23631133.6884
 -33424166.93446 -23781941.74243  24239749.6954                   24239751.6564
 -27720763.98047 -21451479.91445  21602283.4454                   21602283.1094
 -62320161.39147 -46495076.55144  22293572.0394                   22293571.1454
  -6071403.53946  -4689592.65643  23721859.4694                   23721860.9384
 -53857044.84847 -41816505.30945  20779782.0004                   20779778.3594
  -4745642.07446  -2002953.04743  23558446.4844                   23558445.7974
 11  8 23  0 24  0.0000000  0  9G10G12G17G09G05G04G25G02G30
 -45863517.32447 -33893148.95745  21061624.9614                   21061622.9964
 -34731321.34447 -26100717.31245  21246001.6334                   21245999.4694
 -78622849.50846 -60924580.09043  23624851.7274                   23624851.4184
 -33433005.93446 -23788829.39842  24238067.6564                   24238070.6484
 -27889876.38747 -21583255.74645  21570102.7974                   21570102.0434
 -62330325.53146 -46502996.68444  22291637.6564                   22291636.7344
  -6254808.43046  -4832505.54743  23686958.4064                   23686960.3444
 -53939068.18047 -41880419.59845  20764174.0164                   20764170.2114
  -4927976.50046  -2145031.80143  23523749.7814                   23523748.2664
 11  8 23  0 24 30.0000000  0  9G10G12G17G09G05G04G25G02G30
 -45932880.68447 -33947198.33645  21048425.1644                   21048423.5634
 -34867565.19547 -26206881.33645  21220075.2344                   21220072.7074
 -78655671.80546 -60950155.94543  23618606.4694                   23618605.7544
 -33441761.70746 -23795652.24642  24236401.5394                   24236404.6174
 -28058579.16447 -21714712.39545  21537999.8834                   21537999.0084
 -62340393.85247 -46510842.16444  22289721.4304                   22289720.7034
  -6437942.58246  -4975207.40243  23652109.4694                   23652111.2274
 -54020822.30947 -41944124.10945  20748617.0084                   20748613.0084
  -5109968.67246  -2286843.86743  23489117.1254                   23489115.3524
 11  8 23  0 25  0.0000000  0  9G10G12G17G09G05G04G25G02G30
 -46001604.93447 -34000749.69945  21035347.0004                   21035345.8754
 -35003297.97747 -26312647.12145  21194246.0234                   21194243.5004
 -78688304.75846 -60975584.24643  23612396.0704                   23612395.9304
 -33450439.15246 -23802414.01242  24234750.1884                   24234753.1564
 -28226871.53947 -21845849.25045  21505974.8914                   21505974.0204
 -62350369.28947 -46518615.23444  22287823.3204                   22287822.2384
  -6620804.66046  -5117697.31243  23617311.2344                   23617313.8014
 -54102309.85547 -42007620.91045  20733110.0394                   20733106.3634
  -5291617.19546  -2428388.14543  23454550.6094                   23454549.3324
 11  8 23  0 25 30.0000000  0  9G10G12G17G09G05G04G25G02G30
 -46069691.37547 -34053804.06645  21022391.2584                   21022389.1564
 -35138517.88347 -26418013.27045  21168514.2034                   21168512.3874
 -78720748.53546 -61000865.14843  23606223.1564                   23606222.0634
 -33459042.16446 -23809117.78542  24233114.0554                   24233116.6094
 -28394751.34047 -21976664.60945  21474028.0634                   21474026.8714
 -62360254.10247 -46526317.71144  22285942.7274                   22285940.9454
  -6803392.51646  -5259973.53143  23582567.2584                   23582568.3134
 -54183532.41847 -42070911.21545  20717654.2974                   20717649.8754
  -5472919.78546  -2569662.88743  23420050.0084                   23420049.3954
 11  8 23  0 26  0.0000000  0  9G10G12G17G09G05G04G25G02G30
 -46137140.16447 -34106361.57045  21009555.7344                   21009554.1644
 -35273223.01647 -26522978.29745  21142881.3834                   21142878.8834
 -78753001.76246 -61025997.60243  23600085.3054                   23600084.6764
 -33467573.27745 -23815765.52342  24231490.3594                   24231493.3954
 -28562215.30547 -22107155.95345  21442161.1954                   21442160.0824
 -62370049.43746 -46533950.47744  22284078.2664                   22284077.3954
  -6985702.97746  -5402033.60543  23547874.1644                   23547875.9774
 -54264490.61347 -42133995.52045  20702248.4774                   20702244.0084
  -5653873.06646  -2710665.41842  23385615.3284                   23385614.4024
 11  8 23  0 26 30.0000000  0  9G10G12G17G09G05G04G25G02G30
 -46203951.69947 -34158422.48045  20996842.1334                   20996840.6914
 -35407411.02047 -26627540.36345  21117346.1254                   21117343.5704
 -78785063.91846 -61050981.14143  23593984.7504                   23593983.1294
 -33476035.38745 -23822359.56642  24229880.0394                   24229883.3014
 -28729260.65247 -22237321.09445  21410373.6094                   21410372.1134
 -62379756.64546 -46541514.57444  22282231.2274                   22282230.0394
  -7167732.95746  -5543875.11343  23513235.0314                   23513236.9304
 -54345185.40247 -42196874.58645  20686892.6644                   20686888.6374
  -5834473.94946  -2851393.37542  23351247.8834                   23351247.6174
 11  8 23  0 27  0.0000000  0  9G10G12G17G09G05G04G25G02G30
 -46270126.86347 -34209987.52045  20984249.2894                   20984247.9924
 -35541079.71947 -26731697.77745  21091909.8834                   21091907.3484
 -78816934.42246 -61075815.33643  23587918.8134                   23587918.8404
 -33484431.61345 -23828902.24242  24228281.8674                   24228286.0784
 -28895884.73047 -22367157.97745  21378665.7274                   21378664.3914
 -62389377.29746 -46549011.23044  22280400.5704                   22280399.8594
  -7349479.73046  -5685495.92643  23478650.5004                   23478651.4144
 -54425617.77347 -42259549.16845  20671586.6564                   20671582.5634
  -6014719.52046  -2991844.42242  23316948.9844                   23316948.1604
 11  8 23  0 27 30.0000000  0  9G10G12G17G09G05G04G25G02G30
 -46335664.78547 -34261056.02045  20971777.9924                   20971776.2664
 -35674226.02347 -26835448.13345  21066573.1884                   21066570.6294
 -78848611.46546 -61100498.78143  23581891.3134                   23581891.0944
 -33492763.90245 -23835395.14142  24226696.0234                   24226701.1684
 -29062083.59447 -22496663.53145  21347039.3364                   21347037.8554
 -62398911.74646 -46556440.70744  22278585.6564                   22278585.6994
  -7530939.25846  -5826892.94943  23444119.7274                   23444120.9414
 -54505788.09447 -42322019.55945  20656331.3134                   20656326.9884
  -6194605.62946  -3132015.36343  23282718.2114                   23282716.1844
 11  8 23  0 28  0.0000000  0  9G10G12G17G09G05G04G25G02G30
 -46400569.19147 -34311630.85945  20959426.6804                   20959425.5044
 -35806850.60547 -26938791.95345  21041334.8834                   21041332.7384
 -78880097.35246 -61125033.28943  23575899.6884                   23575899.4414
 -33501038.10545 -23841842.75842  24225121.7894                   24225126.6414
 -29227857.50847 -22625837.95345  21315493.4844                   21315492.0084
 -62408363.91846 -46563806.09444  22276787.8834                   22276787.0904
  -7712111.41846  -5968066.02743  23409643.8134                   23409644.3134
 -54585699.82447 -42384288.44145  20641124.1804                   20641120.6054
  -6374132.02746  -3271906.05943  23248554.7034                   23248554.3014
 11  8 23  0 28 30.0000000  0  9G10G12G17G09G05G04G25G02G30
 -46464838.70747 -34361710.98045  20947196.8524                   20947195.0594
 -35938949.35947 -27041726.04345  21016197.1414                   21016194.7854
 -78911389.09846 -61149416.51643  23569945.3204                   23569945.1054
 -33509254.86345 -23848245.60942  24223558.6414                   24223563.1884
 -29393201.34047 -22754677.24645  21284029.3524                   21284028.2624
 -62417733.21146 -46571106.88343  22275004.4304                   22275003.5474
  -7892991.10946  -6109011.19543  23375223.2664                   23375224.3984
 -54665351.62947 -42446354.77745  20625967.0634                   20625962.9534
  -6553293.55546  -3411512.38743  23214461.9224                   23214461.0634
 11  8 23  0 29  0.0000000  0  9G10G12G17G09G05G04G25G02G30
 -46528477.01247 -34411299.25845  20935087.1564                   20935085.3674
 -36070523.01247 -27144250.95745  20991160.1804                   20991157.5864
 -78942489.43745 -61173650.61343  23564027.5234                   23564026.4884
 -33517420.42645 -23854608.62542  24222004.5394                   24222009.4574
 -29558115.42647 -22883181.67645  21252647.3134                   21252645.8554
 -62427024.11346 -46578346.58244  22273237.0554                   22273235.7854
  -8073578.68046  -6249728.74243  23340858.6564                   23340859.4384
 -54744747.79347 -42508221.92245  20610858.1724                   20610854.4534
  -6732090.55946  -3550834.69143  23180436.6804                   23180436.9264
 11  8 23  0 29 30.0000000  0  9G10G12G17G09G05G04G25G02G30
 -46591484.89147 -34460396.27345  20923096.7894                   20923095.4574
 -36201569.70747 -27246365.26245  20966222.7664                   20966220.3094
 -78973397.30545 -61197734.70743  23558144.8134                   23558145.5704
 -33525537.69945 -23860933.96942  24220460.8054                   24220464.1994
 -29722597.01247 -23011349.11345  21221347.0004                   21221346.2464
 -62436238.02346 -46585526.30544  22271483.7504                   22271482.5514
  -8253870.98846  -6390216.23043  23306549.4844                   23306550.8834
 -54823889.24647 -42569890.58645  20595798.8134                   20595794.2624
  -6910519.59846  -3689870.28543  23146484.0314                   23146482.3524
 11  8 23  0 30  0.0000000  0  9G10G12G17G09G05G04G25G02G30
 -46653863.33247 -34509002.82844  20911226.9224                   20911225.1414
 -36332088.03547 -27348067.85245  20941385.6414                   20941383.5084
 -79004112.62545 -61221668.80542  23552300.6724                   23552300.8554
 -33533610.02046 -23867224.26643  24218925.2664                   24218928.2304
 -29886643.95347 -23139177.85545  21190130.2194                   21190128.6844
 -62445376.77746 -46592647.47744  22269744.0164                   22269743.5904
  -8433865.64146  -6530471.75443  23272298.0084                   23272298.7154
 -54902777.34847 -42631361.83645  20580786.5634                   20580782.8594
  -7088578.35246  -3828617.27343  23112600.2034                   23112599.1024
 11  8 23  0 30 30.0000000  0  9G10G12G17G09G05G04G25G02G30
 -46715611.61347 -34557118.35545  20899475.8364                   20899474.4304
 -36462074.30547 -27449355.84845  20916649.7194                   20916647.5044
 -79034633.18045 -61245451.09843  23546492.0004                   23546493.3984
 -33541638.70746 -23873480.59043  24217396.7194                   24217400.8324
 -30050251.72347 -23266664.38745  21158996.9694                   21158995.4224
 -62454439.80146 -46599709.62944  22268019.1484                   22268019.1524
  -8613557.93746  -6670491.69143  23238103.7274                   23238104.2814
 -54981411.13747 -42692634.92645  20565822.6564                   20565819.0514
  -7266261.88746  -3967071.96943  23078788.7344                   23078787.1414
 11  8 23  0 31  0.0000000  0  9G10G12G17G09G05G04G25G02G30
 -46776731.55147 -34604744.25045  20887845.8284                   20887844.0434
 -36591527.43747 -27550228.40245  20892016.4844                   20892013.6454
 -79064959.09045 -61269081.75043  23540723.6174                   23540722.7704
 -33549627.61746 -23879705.87143  24215878.1094                   24215880.4414
 -30213418.44947 -23393807.24245  21127946.9384                   21127945.5314
 -62463429.42246 -46606714.59044  22266309.5004                   22266308.1414
  -8792946.01246  -6810274.52743  23203967.3444                   23203967.8794
 -55059792.94947 -42753711.66045  20550907.4924                   20550903.5944
  -7443568.34846  -4105232.80143  23045047.9384                   23045046.9654
 11  8 23  0 31 30.0000000  0  9G10G12G17G09G05G04G25G02G30
 -46837224.30547 -34651881.44945  20876334.6484                   20876332.4734
 -36720445.32047 -27650683.89845  20867483.4304                   20867480.8834
 -79095090.36746 -61292560.75043  23534987.4774                   23534987.1484
 -33557579.88746 -23885902.57843  24214363.5004                   24214366.6954
 -30376142.05947 -23520604.80945  21096981.0944                   21096980.3674
 -62472347.31646 -46613663.64544  22264612.8204                   22264611.5044
  -8972027.28946  -6949818.34443  23169888.9614                   23169890.3364
 -55137923.86347 -42814592.88745  20536039.6414                   20536035.6724
  -7620495.04746  -4243097.68743  23011380.0474                   23011378.5904
 11  8 23  0 32  0.0000000  0  9G10G12G17G09G05G04G25G02G30
 -45321670.78947 -33470930.64845  21164734.3984                   21164732.9064
 -35273404.73047 -26523119.79745  21142846.3834                   21142843.9304
 -77549607.54345 -60088288.46943  23829081.9694                   23829083.4654
 -31990080.75846 -22664474.83243  24512649.1804                   24512652.2934
 -28962996.67647 -22419452.52345  21365893.8594                   21365892.7734
 -60905776.81246 -45392959.39544  22562720.4694                   22562720.3284
  -7575375.09446  -5861517.87943  23435662.8754                   23435664.8094
 -53640384.65247 -41647679.19945  20821011.9534                   20821007.9384
  -6221615.34446  -3153061.54743  23277577.7504                   23277575.9454
 11  8 23  0 32 30.0000000  0  9G10G12G17G09G05G04G25G02G30
 -45380913.68447 -33517093.94145  21153460.9924                   21153459.1524
 -35401249.88347 -26622739.39545  21118518.1334                   21118516.0704
 -77579349.44546 -60111464.05543  23823423.7894                   23823424.1804
 -31997971.58646 -22670623.66043  24511148.6094                   24511150.9064
 -29124828.18047 -22545554.94545  21335098.5394                   21335097.0204
 -60914557.60246 -45399801.60944  22561049.6094                   22561048.9924
  -7753836.38346  -6000578.57444  23401702.1484                   23401705.0354
 -53718019.37547 -41708173.78145  20806238.3524                   20806233.9574
  -6397776.00446  -3290329.53543  23244055.8674                   23244054.2344
 11  8 23  0 33  0.0000000  0  9G10G12G17G09G05G04G25G02G30
 -45439532.91047 -33562771.25845  21142306.1484                   21142304.3204
 -35528555.58647 -26721938.64845  21094292.9144                   21094290.1484
 -77608895.87145 -60134487.31643  23817801.7584                   23817801.3204
 -32005835.52346 -22676751.48843  24509651.6174                   24509654.8874
 -29286209.52347 -22671306.60945  21304388.7584                   21304387.1684
 -60923271.77346 -45406591.90243  22559391.8364                   22559390.3954
  -7931983.23446  -6139394.25844  23367803.0004                   23367804.4844
 -53795407.07847 -41768475.87945  20791512.2274                   20791508.2664
  -6573548.99246  -3427295.45743  23210607.0864                   23210605.5944
 11  8 23  0 33 30.0000000  0  9G10G12G17G09G05G04G25G02G30
 -45497531.07847 -33607964.62545  21131269.5084                   21131267.8484
 -35655321.32447 -26820717.15645  21070170.4844                   21070167.3524
 -77638247.84045 -60157359.03543  23812216.7894                   23812216.6374
 -32013677.56246 -22682862.24242  24508160.2194                   24508162.7624
 -29447139.84047 -22796706.81645  21273764.7894                   21273763.3954
 -60931922.08246 -45413332.44143  22557745.2114                   22557744.9144
  -8109814.26646  -6277963.84444  23333963.1644                   23333963.5704
 -53872550.65247 -41828587.74645  20776831.5784                   20776828.0944
  -6748932.96146  -3563958.26243  23177232.1174                   23177231.1684
 11  8 23  0 34  0.0000000  0  9G10G12G17G09G05G04G25G02G30
 -45554909.11347 -33652674.77745  21120350.7274                   21120348.8754
 -35781545.28547 -26919073.49245  21046150.2424                   21046148.4454
 -77667404.68045 -60180078.75443  23806668.5314                   23806668.5354
 -32021500.12545 -22688957.84842  24506670.9064                   24506674.3984
 -29607616.19947 -22921753.28545  21243227.1484                   21243225.6954
 -60940509.66846 -45420024.09044  22556111.6644                   22556110.1524
  -8287326.43446  -6416284.97344  23300182.9924                   23300184.6294
 -53949450.86347 -41888509.96945  20762198.6254                   20762194.3244
  -6923924.86346  -3700315.51643  23143932.5704                   23143931.0354
 11  8 23  0 34 30.0000000  0  9G10G12G17G09G05G04G25G02G30
 -45611666.96147 -33696901.65645  21109549.4614                   21109548.1174
 -35907224.62147 -27017005.44545  21022234.3754                   21022232.3284
 -77696364.75045 -60202645.07043  23801157.5474                   23801157.5474
 -32029305.21945 -22695039.87542  24505186.5314                   24505190.4964
 -29767634.91047 -23046443.14145  21212777.0084                   21212775.1054
 -60949034.92646 -45426667.17643  22554488.9844                   22554488.2544
  -8464515.95346  -6554354.68444  23266464.9384                   23266466.6024
 -54026107.52747 -41948242.41445  20747611.2584                   20747606.9064
  -7098520.63746  -3836364.16842  23110707.7504                   23110706.6524
 11  8 23  0 35  0.0000000  0  9G10G12G17G09G05G04G25G02G30
 -45667807.30147 -33740647.38345  21098866.9844                   21098865.2384
 -36032359.17247 -27114512.88745  20998422.3444                   20998420.0004
 -77725129.14845 -60225058.98443  23795682.6024                   23795683.6994
 -32037097.72745 -22701112.02742  24503703.3284                   24503707.8444
 -29927195.54347 -23170776.05145  21182413.3444                   21182411.9064
 -60957500.73046 -45433263.93043  22552878.0784                   22552877.3204
  -8641381.66446  -6692172.08244  23232808.7664                   23232809.9304
 -54102523.49647 -42007787.30545  20733069.4064                   20733065.3244
  -7272719.26246  -3972103.29343  23077558.8444                   23077557.4304
 11  8 23  0 35 30.0000000  0  9G10G12G17G09G05G04G25G02G30
 -45723331.98447 -33783913.35945  21088300.6644                   21088299.2974
 -36156947.86747 -27211594.99245  20974713.9454                   20974711.4414
 -77753698.26245 -60247320.65643  23790247.0554                   23790247.5234
 -32044880.508 5                  24502222.336
 -30086296.06247 -23294750.43045  21152137.0084                   21152135.6564
 -60965908.95746 -45439815.82043  22551278.4614                   22551277.3134
  -8817921.37146  -6829735.44544  23199214.5314                   23199215.3754
 -54178700.61747 -42067146.08245  20718573.2584                   20718569.5634
  -7446518.42246  -4107531.17643  23044486.0084                   23044485.3484
 11  8 23  0 36  0.0000000  0  9G10G12G17G09G05G04G25G02G30
 -45778241.16847 -33826699.73845  21077852.1174                   21077850.6454
 -36280988.17647 -27308249.77745  20951109.9924                   20951107.0044
 -77782070.01245 -60269428.57442  23784848.3834                   23784848.3014
 -32052656.211 5                  24500741.758
 -30244932.95747 -23418363.54345  21121950.4304                   21121948.2664
 -60974260.10246 -45446323.22744  22549688.2344                   22549688.3134
  -8994131.26646  -6967041.82043  23165682.7194                   23165683.6914
 -54254638.70347 -42126318.60245  20704122.9614                   20704119.1334
  -7619914.31246  -4242644.83643  23011490.0234                   23011488.9454
 11  8 23  0 36 30.0000000  0  9G10G12G17G09G05G04G25G02G30
 -45832537.38347 -33869008.48045  21067519.5704                   21067517.9534
 -36404479.79347 -27404477.01245  20927609.7274                   20927607.6684
 -77810245.59446 -60291383.63742  23779486.6884                   23779486.5354
 -32060429.023 5                  24499262.508
 -30403104.82847 -23541614.32045  21091850.5394                   21091848.9454
 -60982556.59846 -45452788.06243  22548110.2034                   22548109.4924
  -9170009.77746  -7104089.98043  23132214.0234                   23132214.9344
 -54330340.15647 -42185306.73445  20689717.8134                   20689713.5904
  -7792905.31646  -4377442.96943  22978570.8524                   22978569.6134
 11  8 23  0 37  0.0000000  0  9G10G12G17G09G05G04G25G02G30
 -45886220.58247 -33910839.53545  21057304.1564                   21057302.5784
 -36527419.65647 -27500274.30945  20904214.9694                   20904212.5784
 -77838223.56646 -60313184.68443  23774162.7974                   23774162.6414
 -32068200.74215                  24497784.523
 -30560808.32447 -23664500.10945  21061840.1174                   21061838.7344
 -60990798.64546 -45459210.44544  22546541.9144                   22546541.2504
  -9345553.07446  -7240876.89843  23098808.7344                   23098810.1844
 -54405804.91447 -42244110.42645  20675357.0164                   20675353.0044
  -7965487.61346  -4511922.63743  22945729.2274                   22945728.0514
 11  8 23  0 37 30.0000000  0  9G10G12G17G09G05G04G25G02G30
 -45939291.41847 -33952193.45345  21047204.8524                   21047203.2704
 -36649805.73047 -27595640.08245  20880926.1334                   20880923.5664
 -77866002.64846 -60334830.71542  23768875.6094                   23768876.2384
 -32075973.750 5                  24496305.695
 -30718040.54747 -23787018.68445  21031920.0864                   21031918.7974
 -60998987.07046 -45465591.07444  22544983.3984                   22544982.5944
  -9520757.65646  -7377399.92643  23065468.6484                   23065469.5044
 -54481033.28547 -42302729.91845  20661041.5234                   20661036.8674
  -8137657.60546  -4646081.03943  22912966.6564                   22912966.2304
 11  8 23  0 38  0.0000000  0  9G10G12G17G09G05G04G25G02G30
 -45991753.11347 -33993072.69944  21037221.8444                   21037220.2774
 -36771638.23447 -27690574.49645  20857741.7114                   20857739.6094
 -77893584.54345 -60356323.10942  23763628.5784                   23763628.1254
 -32083752.758 5                  24494824.883
 -30874800.92247 -23909169.58245  21002090.1174                   21002088.2894
 -61007125.02746 -45471932.37944  22543434.9534                   22543434.4454
  -9695622.89846  -7513658.51643  23032193.0084                   23032193.5744
 -54556028.69147 -42361167.89145  20646770.3524                   20646766.0944
  -8309414.56646  -4779917.58243  22880282.2814                   22880281.0984
 11  8 23  0 38 30.0000000  0  9G10G12G17G09G05G04G25G02G30
 -46043606.02747 -34033477.57444  21027355.0704                   21027352.8794
 -36892914.29747 -27785075.32045  20834663.9064                   20834661.9384
 -77920967.55945 -60377660.56242  23758417.5704                   23758417.8954
 -32091539.871 5                  24493342.773
 -31031086.01247 -24030950.12545  20972349.4614                   20972347.9804
 -61015213.03546 -45478234.75844  22541895.4384                   22541895.2734
  -9870144.93046  -7649649.67643  22998982.3984                   22998982.6954
 -54630791.03147 -42419424.24645  20632543.5234                   20632539.4384
  -8480754.77346  -4913429.39543  22847676.6174                   22847676.2114
 11  8 23  0 39  0.0000000  0  9G10G12G17G09G05G04G25G02G30
 -46094851.12547 -34073408.81245  21017603.5474                   21017601.4304
 -37013632.65247 -27879141.55145  20811692.2114                   20811689.6334
 -77948151.42245 -60398842.82842  23753243.7894                   23753244.8954
 -32099337.848 5                  24491859.461
 -31186893.72347 -24152358.68045  20942700.6724                   20942698.9024
 -61023251.79346 -45484498.73443  22540366.2274                   22540366.0634
 -10044320.78946  -7785371.09443  22965838.1804                   22965838.2734
 -54705320.90247 -42477499.46545  20618360.5084                   20618356.9344
  -8651675.17646  -5046614.07843  22815152.1724                   22815151.5904
 11  8 23  0 39 30.0000000  0  9G10G12G17G09G05G04G25G02G30
 -46145491.85247 -34112869.13345  21007966.6174                   21007964.5394
 -37133793.85247 -27972773.64545  20788826.4924                   20788823.9654
 -77975137.72345 -60419871.14542  23748107.8364                   23748110.1024
 -32107151.559 5                  24490372.945
 -31342223.68747 -24273394.97345  20913142.6414                   20913140.3164
 -61031244.94146 -45490727.18743  22538845.0864                   22538844.1134
 -10218149.70346  -7920822.14544  22932760.3444                   22932760.2734
 -54779621.70347 -42535396.18745  20604222.4924                   20604218.1094
  -8822175.00846  -5179471.03543  22782707.0864                   22782705.9454
 11  8 23  0 40  0.0000000  0  9G10G12G17G09G05G04G25G02G30
 -46195528.65247 -34151858.84844  20998444.7114                   20998442.9694
 -37253395.15247 -28065969.45345  20766067.1174                   20766064.5594
 -78001924.79345 -60440744.19942  23743010.1484                   23743012.2974
 -32114982.99245 -22707605.26253  24488882.7974                   24488885.5354
 -31497072.16447 -24394056.07845  20883675.0004                   20883673.4574
 -61039192.48846 -45496920.10943  22537333.2664                   22537331.5554
 -10391627.96547  -8056000.00043  22899748.3134                   22899748.0554
 -54853693.55947 -42593114.51645  20590126.3204                   20590122.3524
  -8992250.46546  -5311997.31243  22750342.4694                   22750341.5004
 11  8 23  0 40 30.0000000  0  9G10G12G17G09G05G04G25G02G30
 -44669540.15647 -32962776.90644  21288830.6564                   21288829.2814
 -35797009.87147 -26931123.75845  21043207.4454                   21043205.5434
 -76453090.42245 -59233860.33242  24037745.1804                   24037745.8404
 -30547413.80146 -21486122.90643  24787181.1484                   24787184.9024
 -30076010.73447 -23286735.43745  21154094.6724                   21154092.7424
 -59471674.33246 -44275477.41443  22835621.4614                   22835620.6374
  -8989326.00847  -6963297.12144  23166597.1644                   23166597.5354
 -53352114.05547 -41423052.56645  20875867.8674                   20875863.7304
  -7586472.32846  -4216585.71143  23017852.4064                   23017852.1024
 11  8 23  0 41  0.0000000  0  9G10G12G17G09G05G04G25G02G30
 -44718372.87547 -33000828.39145  21279538.2734                   21279536.3984
 -35915486.69547 -27023443.36345  21020662.3054                   21020659.9804
 -76479477.91445 -59254422.06642  24032723.5944                   24032724.3284
 -30555288.85546 -21492259.49243  24785682.5944                   24785687.1294
 -30229889.43747 -23406640.88745  21124811.6724                   21124810.4964
 -59479534.41046 -44281602.17243  22834125.7664                   22834124.9964
  -9162094.53147  -7097921.89844  23133720.1644                   23133720.9574
 -53425730.79747 -41480416.26245  20861858.7814                   20861855.0634
  -7755690.81546  -4348444.23543  22985651.6484                   22985651.2934
 11  8 23  0 41 30.0000000  0  9G10G12G17G09G05G04G25G02G30
 -44766606.12547 -33038412.75845  21270359.3524                   21270357.8244
 -36033399.53147 -27115323.48445  20998224.3984                   20998221.9104
 -76505665.32045 -59274827.85242  24027739.3674                   24027741.4304
 -30563190.42646 -21498416.72743  24784179.1804                   24784182.8594
 -30383279.99647 -23526165.93445  21095622.2034                   21095621.4384
 -59487352.73846 -44287694.40643  22832637.6954                   22832636.5084
  -9334504.34446  -7232267.18044  23100911.4454                   23100912.3364
 -53499121.75047 -41537604.01645  20847893.1954                   20847889.1884
  -7924476.96146  -4479965.85543  22953533.5234                   22953532.2624
 11  8 23  0 42  0.0000000  0  9G10G12G17G09G05G04G25G02G30
 -44814241.34047 -33075531.12544  21261294.6724                   21261293.3324
 -36150746.62947 -27206762.77045  20975893.5944                   20975890.8754
 -76531652.19545 -59295077.42642  24022794.7584                   24022796.4844
 -30571121.66846 -21504597.12543  24782670.0314                   24782674.0204
 -30536180.43747 -23645309.10945  21066526.5634                   21066524.8714
 -59495130.60246 -44293755.09843  22831158.6024                   22831157.0084
  -9506552.62946  -7366330.71944  23068171.7734                   23068172.7274
 -53572287.99247 -41594616.66445  20833970.2114                   20833965.9884
  -8092827.96146  -4611148.40243  22921496.2344                   22921495.6764
 11  8 23  0 42 30.0000000  0  9G10G12G17G09G05G04G25G02G30
 -44861280.92647 -33112185.34445  21252343.6884                   21252342.2114
 -36267527.97747 -27297761.20745  20953671.0004                   20953668.7504
 -76557439.547 5                  24017888.633
 -30579086.26246 -21510803.48043  24781155.2114                   24781159.0204
 -30688589.61347 -23764069.45745  21037524.2504                   21037522.7814
 -59502870.36746 -44299786.12144  22829685.1334                   22829684.2074
  -9678237.94546  -7500111.44543  23035501.2734                   23035501.6524
 -53645231.87947 -41651456.05945  20820089.4844                   20820084.8954
  -8260742.36346  -4741990.74643  22889543.5944                   22889542.4884
 11  8 23  0 43  0.0000000  0  9G10G12G17G09G05G04G25G02G30
 -44907725.40647 -33148375.85945  21243505.2274                   21243503.5234
 -36383740.73847 -27388316.60545  20931555.9844                   20931554.2894
 -76583025.547 5                  24013019.336
 -30587085.77046 -21517037.06643  24779632.4694                   24779637.6094
 -30840504.05147 -23882444.29745  21008615.9694                   21008614.2304
 -59510572.03146 -44305787.45343  22828219.9454                   22828218.7274
  -9849556.39546  -7633606.31244  23002900.1334                   23002901.5514
 -53717953.08647 -41708121.94545  20806250.8284                   20806246.5474
  -8428216.25446  -4872489.85543  22857674.3834                   22857673.0394
 11  8 23  0 43 30.0000000  0  9G10G12G17G09G05G04G25G02G30
 -44953575.69947 -33184103.36744  21234780.7894                   21234778.5394
 -36499383.01647 -27478427.46145  20909550.7664                   20909548.2704
 -76608409.191 5                  24008188.547
 -30595122.29745 -21523299.53142  24778103.5634                   24778108.2624
 -30991920.59447 -24000431.16845  20979801.9454                   20979800.8714
 -59518236.02046 -44311759.47343  22826761.5864                   22826760.4454
 -10020504.27346  -7766812.40644  22970369.5474                   22970370.8674
 -53790451.94947 -41764614.55945  20792454.7814                   20792450.8714
  -8595246.08646  -5002642.96943  22825889.5704                   22825887.6254
 11  8 23  0 44  0.0000000  0  9G10G12G17G09G05G04G25G02G30
 -44998834.50847 -33219369.98844  21226168.4064                   21226166.4414
 -36614454.73847 -27568093.73445  20887653.0164                   20887650.8914
 -76633591.344 5                  24003396.008
 -30603200.10945 -21529594.13342  24776566.0864                   24776571.3244
 -31142838.48447 -24118029.48845  20951083.5634                   20951081.8204
 -59525864.58646 -44317703.86343  22825309.4454                   22825309.5594
 -10191080.25446  -7899728.73044  22937910.0164                   22937911.4264
 -53862730.83247 -41820935.78145  20778700.8834                   20778696.6414
  -8761830.45346  -5132448.92643  22794189.7114                   22794188.0314
 11  8 23  0 44 30.0000000  0  9G10G12G17G09G05G04G25G02G30
 -45043504.81647 -33254178.02745  21217667.5864                   21217665.9494
 -36728955.45347 -27657315.06645  20865864.5314                   20865861.7424
 -76658573.14515                  23998642.867
 -30611323.51245 -21535924.31242  24775020.8674                   24775026.6884
 -31293257.13747 -24235238.79345  20922459.7114                   20922457.7504
 -59533460.30146 -44323622.65243  22823864.6484                   22823863.6524
 -10361282.84846  -8032354.10244  22905521.8054                   22905522.8244
 -53934791.99647 -41877087.33645  20764987.3444                   20764983.8914
  -8927967.89846  -5261906.68443  22762575.3674                   22762573.4454
 11  8 23  0 45  0.0000000  0  9G10G12G17G09G05G04G25G02G30
 -45087587.35247 -33288528.07044  21209278.5864                   21209277.1644
 -36842884.07447 -27746090.61345  20844184.2584                   20844181.7774
 -76683353.40615                  23993928.289
 -30619494.66445 -21542291.65242  24773464.4064                   24773472.5984
 -31443173.50447 -24352056.70345  20893931.7344                   20893929.8364
 -59541023.86746 -44329516.39843  22822425.7114                   22822424.7074
 -10531108.87546  -8164686.05144  22873205.2274                   22873205.5704
 -54006636.03147 -41933069.70345  20751316.4844                   20751312.3204
  -9093655.40246  -5391013.81643  22731045.4454                   22731044.1844
 11  8 23  0 45 30.0000000  0  9G10G12G17G09G05G04G25G02G30
 -45131083.36347 -33322421.06645  21201002.0704                   21201000.3834
 -36956238.49247 -27834418.72745  20822613.7894                   20822611.5864
 -76707931.434 5                  23989249.359
 -30627715.79345 -21548697.92242  24771902.6724                   24771908.5784
 -31592585.06647 -24468481.25045  20865499.5164                   20865497.4734
 -59548555.71946 -44335385.43043  22820992.1334                   22820990.8054
 -10700555.17646  -8296722.14844  22840960.4774                   22840961.1024
 -54078263.60247 -41988883.38745  20737686.5394                   20737681.7194
  -9258889.80546  -5519767.89843  22699603.1024                   22699601.1844
 11  8 23  0 46  0.0000000  0  9G10G12G17G09G05G04G25G02G30
 -45173995.65647 -33355859.23045  21192836.2034                   21192834.5634
 -37069018.41847 -27922299.18045  20801152.3444                   20801149.8244
 -76732307.820 5                  23984612.289
 -30635990.918 5                  24770326.406
 -31741490.62147 -24584511.51645  20837164.1024                   20837161.9734
 -59556058.32046 -44341231.67243  22819564.6174                   22819563.0084
 -10869620.17646  -8428461.10544  22808788.8134                   22808789.2034
 -54149676.38347 -42044529.71945  20724096.9534                   20724092.7234
  -9423669.52346  -5648167.66443  22668246.4534                   22668244.7544
 11  8 23  0 46 30.0000000  0  9G10G12G17G09G05G04G25G02G30
 -45216325.18747 -33388843.28144  21184781.2194                   21184779.0784
 -37181221.74647 -28009730.34045  20779800.9454                   20779798.4654
 -76756482.242 5                  23980012.344
 -30644322.016 5                  24768740.711
 -31889887.84047 -24700145.66845  20808924.3134                   20808923.1134
 -59563532.05546 -44347055.41043  22818141.4224                   22818140.8134
 -11038300.46146  -8559900.27744  22776689.4534                   22776690.2464
 -54220875.37147 -42100009.44945  20710547.7974                   20710543.5514
  -9587991.24246  -5776210.55543  22636977.1724                   22636974.9384
 11  8 23  0 47  0.0000000  0  9G10G12G17G09G05G04G25G02G30
 -45258076.21947 -33421376.55944  21176836.1954                   21176834.2774
 -37292849.74247 -28096713.18445  20758559.0004                   20758556.2934
 -76780456.328 5                  23975449.219
 -30652714.320 5                  24767144.984
 -32037776.87147 -24815383.84045  20780782.1724                   20780780.7114
 -59570980.35246 -44352859.34843  22816724.6174                   22816723.8594
 -11206595.88346  -8691039.59044  22744663.4144                   22744664.3984
 -54291863.67647 -42155325.00445  20697038.8134                   20697035.0204
  -9751854.78546  -5903896.43043  22605795.1484                   22605793.2974
 11  8 23  0 47 30.0000000  0  9G10G12G17G09G05G04G25G02G30
 -45299247.14147 -33453457.80144  21169001.5164                   21169000.0434
 -37403898.65647 -28183244.81245  20737426.7424                   20737424.2464
 -76804226.582 5                  23970926.680
 -30661167.457 5                  24765537.031
 -32185152.41847 -24930221.89845  20752737.5004                   20752735.7774
 -59578401.03946 -44358641.79343  22815312.6644                   22815312.3954
 -11374500.36346  -8821874.24644  22712712.6094                   22712713.7424
 -54362639.10547 -42210474.69945  20683570.6564                   20683567.2234
  -9915254.33646  -6031220.74643  22574701.5234                   22574699.3714
 11  8 23  0 48  0.0000000  0  8G10G12G17G05G04G25G02G30
 -45339839.45347 -33485088.18444  21161277.6334                   21161275.1414
 -37514366.93047 -28269323.98045  20716405.5704                   20716403.1414
 -76827792.867 5                  23966442.688
 -32332012.36747 -25044658.19145  20724791.6174                   20724789.5314
 -59585795.42246 -44364403.67643  22813905.8524                   22813905.3794
 -11542011.36347  -8952402.31644  22680836.5944                   22680837.2304
 -54433202.76647 -42265459.37145  20670143.0704                   20670139.0394
 -10078187.28146  -6158181.44543  22543694.6484                   22543694.0634
 11  8 23  0 48 30.0000000  0  8G10G12G17G05G04G25G02G30
 -45379856.62947 -33516270.38344  21153661.8984                   21153660.3914
 -37624254.87547 -28354950.94145  20695494.8054                   20695491.8954
 -76851156.11714                  23961995.352
 -32478356.30947 -25158692.39845  20696942.8364                   20696940.8634
 -59593166.02046 -44370147.05943  22812502.9144                   22812502.6644
 -11709127.66846  -9082622.81244  22649035.5394                   22649036.2814
 -54503557.07047 -42320280.89545  20656755.3674                   20656751.2774
 -10240652.47746  -6284777.69943  22512778.8834                   22512777.9534
 11  8 23  0 49  0.0000000  0  8G10G12G17G05G04G25G02G30
 -45419299.04347 -33547004.72345  21146156.5084                   21146154.7034
 -37733559.70747 -28440123.53545  20674694.6954                   20674691.3714
 -76874314.52014                  23957589.188
 -32624180.82447 -25272321.85245  20669192.7274                   20669191.5514
 -59600512.16046 -44375871.35943  22811105.0004                   22811104.5164
 -11875845.04746  -9212532.46144  22617310.4694                   22617311.1524
 -54573701.35247 -42374938.77045  20643407.2424                   20643403.1024
 -10402645.76246  -6411006.19943  22481952.7194                   22481951.6804
 11  8 23  0 49 30.0000000  0  8G10G12G17G05G04G25G02G30
 -43882742.20747 -32349687.70344  21438553.3364                   21438552.0394
 -36266852.00847 -27297234.41445  20953799.8834   20953797.2854   24253016.359
 -31194054.00047 -24157937.27045  20941337.2344                   20941335.1804
 -58032409.62546 -43153973.33243  23109505.2974                   23109504.8554
 -10466730.37947  -8114521.02344  22885456.5864                   22885456.5554
 -53068209.65247
 -41201828.36345                  20929892.8524                   20929888.7774
  -8988734.38746  -5309257.06243  22751011.1254                   22751010.1254
 11  8 23  0 50  0.0000000  0  8G10G12G17G05G04G25G02G30
 -43921030.99247 -32379523.11344  21431267.5944                   21431265.9264
 -36374978.30947 -27381488.66845  20933224.0394   20933221.2504   24248687.523
 -31338824.02047 -24270745.04745  20913787.5864                   20913786.8554
 -58039700.68046 -43159654.69943  23108117.8524                   23108118.3404
 -10632632.67246  -8243795.52744  22853885.5634                   22853886.5744
 -53137928.18447
 -41256154.49245                  20916625.8364                   20916621.8874
  -9149767.07746  -5434737.08443  22720367.7814                   22720367.0004
 11  8 23  0 50 30.0000000  0  8G10G12G17G05G04G25G02G30
 -43958745.84847 -32408911.32044  21424091.1094                   21424089.0634
 -36482514.29747 -27465282.94145  20912760.6564   20912757.9064   24244400.828
 -31483064.34047 -24383140.06645  20886340.3054                   20886338.3324
 -58046966.25446 -43165316.20743  23106735.7034                   23106734.9804
 -10798123.91046  -8372749.72344  22822394.0634                   22822394.3094
 -53207435.59847
 -41310316.10945                  20903399.4694                   20903395.4064
  -9310315.92646  -5559840.07443  22689815.4844                   22689815.4144
 11  8 23  0 51  0.0000000  0  8G10G12G17G05G04G25G02G30
 -43995891.84047 -32437856.23044  21417021.5704                   21417020.0354
 -36589461.68447 -27548618.55945  20892409.2344   20892406.9924
 -75389432.27314                  24240155.016
 -31626776.17247 -24495123.27045  20858992.6024                   20858991.0004
 -58054210.44946 -43170961.03143  23105356.6884                   23105355.8444
 -10963204.57046  -8501383.96944  22790980.3444                   22790980.8984
 -53276736.00847 -41364316.42645  20890211.8054                   20890207.7934
  -9470381.71946  -5684566.65243  22659357.0234                   22659355.8404
 11  8 23  0 51 30.0000000  0  7G10G12G05G04G25G02G30
 -44032471.32447 -32466359.70744  21410061.2194                   21410059.0864
 -36695820.16447 -27631495.29745  20872169.6954   20872167.1254
 -31769957.87147 -24606693.38345  20831746.0704                   20831744.8094
 -58061434.52746 -43176590.20743  23103981.5474                   23103981.6804
 -11127872.34446  -8629696.50044  22759644.3914                   22759645.5664
 -53345830.82447 -41418156.53145  20877063.7274                   20877059.1604
  -9629962.14846  -5808915.02743  22628989.1564                   22628988.4384
 11  8 23  0 52  0.0000000  0  7G10G12G05G04G25G02G30
 -44068488.16447 -32494424.76244  21403206.9614                   21403205.2154
 -36801590.37147 -27713913.63745  20852042.2814   20852039.5274
 -31912609.52047 -24717850.47345  20804600.6174                   20804598.8754
 -58068641.37146 -43182205.94543  23102611.0704                   23102610.1454
 -11292126.62546  -8757686.81244  22728388.3284                   22728388.8984
 -53414723.04747 -41471838.77045  20863953.8204                   20863949.7854
  -9789056.66046  -5932884.77343  22598715.2274                   22598713.7234
 11  8 23  0 52 30.0000000  0  7G10G12G05G04G25G02G30
 -44103945.12947 -32522053.55544  21396460.2274                   21396458.4494
 -36906772.39847 -27795873.65245  20832027.0164   20832024.0864
 -32054730.17247 -24828593.78945  20777555.4614                   20777553.6844
 -58075833.05546 -43187809.87543  23101242.3834                   23101241.3404
 -11455965.56246  -8885353.46944  22697210.2974                   22697211.5594
 -53483414.17247 -41525364.32045  20850882.1954                   20850877.9614
  -9947663.69546  -6056474.65243  22568533.4144                   22568531.4064
 11  8 23  0 53  0.0000000  0  7G10G12G05G04G25G02G30
 -44138847.32047 -32549250.07044  21389817.9384                   21389816.5474
 -37011368.62947 -27877377.19945  20812122.4454   20812120.0784
 -32196321.20747 -24938924.43045  20750611.7274                   20750610.1294
 -58083013.60546 -43193405.12943  23099875.1804                   23099875.6764
 -11619389.91847  -9012697.06644  22666111.8054                   22666112.6884
 -53551908.85947 -41578736.79345  20837847.6334                   20837844.0634
 -10105784.02346  -6179685.29343  22538444.0784                   22538442.1374
 11  8 23  0 53 30.0000000  0  7G10G12G05G04G25G02G30
 -44173194.63747 -32576014.21944  21383282.4224                   21383280.3954
 -37115376.25447 -27958422.08645  20792330.3444   20792328.4774
 -32337379.10547 -25048839.63345  20723769.2734                   20723767.2544
 -58090182.41446 -43198991.23443  23098510.7894                   23098510.7114
 -11782395.35247  -9139714.24244  22635092.7034                   22635093.6334
 -53620206.40247 -41631955.64545  20824851.5394                   20824846.9454
 -10263413.35246  -6302513.32043  22508447.9224                   22508446.4024
 11  8 23  0 54  0.0000000  0  7G10G12G05G04G25G02G30
 -44206989.68047 -32602348.00844  21376851.5784                   21376849.8284
 -37218795.14847 -28039008.24245  20772650.9304   20772648.2114
 -32477902.46947 -25158338.31645  20697028.9694                   20697027.0124
 -58097340.54746 -43204568.98443  23097149.1094                   23097148.8324
 -11944979.60547  -9266403.19544  22604154.4064                   22604155.2854
 -53688307.80547 -41685021.66445  20811892.3524                   20811887.8324
 -10420549.68046  -6424957.17643  22478545.9694                   22478544.9184
 11  8 23  0 54 30.0000000  0  7G10G12G05G04G25G02G30
 -44240233.30547 -32628252.11744  21370524.9924                   21370523.2894
 -37321622.77047 -28119133.66045  20753083.2664   20753080.9494
 -32617887.63747 -25267417.63345  20670390.3054                   20670388.7344
 -58104487.67246 -43210138.17243  23095789.7734                   23095789.0434
 -12107138.77347  -9392760.93444  22573295.9534                   22573297.0164
 -53756212.84847 -41737934.68445  20798970.2194                   20798966.5634
 -10577189.19946  -6547013.92243  22448738.3984                   22448737.0554
 11  8 23  0 55  0.0000000  0  7G10G12G05G04G25G02G30
 -44272927.70747 -32653728.27044  21364303.7664                   21364301.8324
 -37423858.79347 -28198798.08645  20733628.2894   20733625.9454
 -32757334.27347 -25376077.30945  20643854.4614                   20643852.6454
 -58111625.39146 -43215700.02743  23094430.8364                   23094430.5004
 -12268870.85947  -9518785.87144  22542519.7114                   22542519.9734
 -53823922.98847 -41790695.83645  20786085.4384                   20786081.0744
 -10733330.10246  -6668682.10944  22419026.1484                   22419024.5664
 11  8 23  0 55 30.0000000  0  7G10G12G05G04G25G02G30
 -44305076.70347 -32678779.44144  21358185.8284                   21358183.8244
 -37525504.16447 -28278002.27045  20714285.9694   20714283.3244
 -32896241.94147 -25484317.00845  20617421.1024                   20617419.5904
 -58118756.32446 -43221256.57843  23093074.1954                   23093073.6914
 -12430175.01647  -9644477.36744  22511824.3134                   22511825.2774
 -53891440.96547 -41843307.23445  20773237.3984                   20773233.2234
 -10888971.55946  -6789961.12544  22389407.8444                   22389406.5944
 11  8 23  0 56  0.0000000  0  7G10G12G05G04G25G02G30
 -44336681.95347 -32703406.91444  21352170.8834                   21352170.0664
 -37626557.60547 -28356745.20745  20695056.4454   20695053.7304
 -33034608.39147 -25592134.98845  20591091.1804                   20591088.8794
 -58125880.77746 -43226808.07043  23091717.4924                   23091716.9534
 -12591048.34847  -9769833.14544  22481210.9534                   22481212.3054
 -53958767.33647 -41895769.32845  20760425.1484                   20760420.8164
 -11044110.93746  -6910848.89544  22359885.9694                   22359885.4924
 11  8 23  0 56 30.0000000  0  7G10G12G05G04G25G02G30
 -44367745.81647 -32727612.53544  21346260.1954                   21346259.2154
 -37727018.82047 -28435026.68445  20675939.6334   20675936.7034
 -33172432.49247 -25699530.35545  20564863.9844                   20564861.9574
 -58133000.35246 -43232355.80543  23090363.0084                   23090363.0514
 -12751488.71147  -9894851.54744  22450679.7894                   22450681.1764
 -54025903.55947 -41948083.27745  20747649.6174                   20747645.4774
 -11198746.19946  -7031343.84043  22330459.9144                   22330458.6644
 11  8 23  0 57  0.0000000  0  7G10G12G05G04G25G02G30
 -44398270.52347 -32751398.02744  21340452.5474                   21340449.6414
 -37826887.38747 -28512846.33645  20656934.5164   20656931.9184
 -33309712.72747 -25806501.93045  20538740.1024                   20538738.3794
 -58140115.67646 -43237900.20343  23089009.0084                   23089008.9614
 -12911493.68747 -10019530.70744  22420232.7734                   22420232.9534
 -54092850.42647 -42000249.66445  20734910.4844                   20734905.8204
 -11352875.09446  -7151444.21943  22301130.1334                   22301129.2854
 11  8 23  0 57 30.0000000  0  8G10G12G17G05G04G25G02G30
 -44428258.50047 -32774765.28944  21334744.0084                   21334743.1724
 -37926162.47747 -28590203.55945  20638043.0234   20638040.2504
                                  24188466.695
 -33446447.51647 -25913048.48045  20512720.4924                   20512718.3204
 -58147228.13346 -43243442.37943  23087656.1724                   23087655.1994
 -13071060.92647 -10143868.75444  22389867.7424                   22389868.1334
 -54159609.09047 -42052269.41045  20722206.4614                   20722202.3594
 -11506495.47346  -7271148.33644  22271897.0944                   22271895.9184
 11  8 23  0 58  0.0000000  0  8G10G12G17G05G04G25G02G30
 -42882291.18447 -31570115.43444  21628933.0314                   21628931.6294
 -36449420.69147 -27439495.67245  20919057.7194   20919055.4924
  11001016.539 5                  24484554.516
 -32007210.96147 -24791565.41445  20786597.8364                   20786596.0784
 -56578918.42246 -42021382.82843  23386095.7814                   23386094.6174
 -11654763.02047  -9040259.93044  22659380.2664                   22659380.3364
 -52650758.88747 -40876541.98045  21009331.5474                   21009327.2464
 -10084180.25846  -6162850.72344  22542554.0864                   22542552.9654
 11  8 23  0 58 30.0000000  0  8G10G12G17G05G04G25G02G30
 -42911212.80547 -31592651.77044  21623429.0634                   21623427.2274
 -36547508.16447 -27515927.47745  20900392.2424   20900390.0744
  10981750.387 5                  24480888.422
 -32142850.96147 -24897258.88745  20760786.3524                   20760784.4844
 -56586028.24646 -42026922.92643  23384743.0474                   23384741.9344
 -11813448.32047  -9163910.77344  22629183.5944                   22629183.4304
 -52717145.30547 -40928271.66445  20996698.3524                   20996694.3794
 -10236777.60246  -6281757.66444  22513516.5164                   22513514.7664
 11  8 23  0 59  0.0000000  0  9G10G12G17G29G05G04G25G02G30
 -42939605.63747 -31614776.05544  21618026.3834                   21618024.5944
 -36645001.62147 -27591896.41845  20881840.0704   20881837.9104
  10962686.109 5                  24477260.133
  10761717.09056   8421588.17252  24754705.8594                   24754705.9694
 -32277942.47347 -25002524.96145  20735079.8914                   20735077.3404
 -56593139.28946 -42032463.98843  23383389.5704                   23383389.1254
 -11971690.09446  -9287216.00444  22599070.6724                   22599070.8284
 -52783347.89547 -40979858.09445  20984100.0314                   20984096.3244
 -10388861.16446  -6400264.28544  22484576.0234                   22484574.5744
 11  8 23  0 59 30.0000000  0  9G10G12G17G29G05G04G25G02G30
 -42967474.88747 -31636492.37944  21612722.9614                   21612721.5044
 -36741904.21947 -27667404.93745  20863400.1334   20863397.7034
  10943820.723 5                  24473669.883
  10593135.49646   8290225.99642  24722625.4144                   24722625.1994
 -32412487.02747 -25107364.84045  20709476.4614                   20709474.8874
 -56600255.64546 -42038009.14543  23382035.7194                   23382034.3284
 -12129489.10947  -9410176.25044  22569042.7504                   22569042.9064
 -52849371.14547 -41031304.78145  20971536.4614                   20971532.0594
 -10540431.93046  -6518371.31244  22455732.7274                   22455731.5084
 11  8 23  1  0  0.0000000  0  9G10G12G17G29G05G04G25G02G30
 -42994824.66447 -31657803.88744  21607518.6254                   21607516.9654
 -36838217.03947 -27742453.90245  20845072.4534   20845070.1884
  10925152.551 5                  24470118.055
  10424484.14146   8158809.43442  24690531.8054                   24690532.1644
 -32546484.73047 -25211778.60245  20683977.3284                   20683975.5354
 -56607379.82046 -42043560.43743  23380679.5004                   23380678.9384
 -12286844.64547  -9532790.92244  22539098.9454                   22539099.5314
 -52915217.78947 -41082613.85245  20959006.0634                   20959002.2464
 -10691489.39846  -6636078.37944  22426987.2194                   22426985.9344
 11  8 23  1  0 30.0000000  0  9G10G12G17G29G05G04G25G02G30
 -43021657.26647 -31678712.41044  21602412.2734                   21602410.6094
 -36933939.51647 -27817042.84845  20826856.8914   20826854.2584
  10906681.70715                  24466602.523
  10255763.53546   8027338.85242  24658425.9224                   24658425.8714
 -32679934.44947 -25315765.35545  20658582.8834                   20658580.5434
 -56614512.61746 -42049118.45743  23379322.2114                   23379321.7974
 -12443754.54347  -9655058.34844  22509240.2664                   22509240.2584
 -52980888.52047 -41133785.85245  20946509.1644                   20946505.3554
 -10842031.41846  -6753383.80544  22398339.9534                   22398338.3674
 11  8 23  1  1  0.0000000  0  9G10G12G17G29G05G04G25G02G30
 -43047972.78546 -31699218.02044  21597404.7344                   21597403.6374
 -37029068.96547 -27891169.69545  20808754.3054   20808751.7814
  10888410.22714                  24463126.367
  10086976.41445   7895816.53142  24626306.3754                   24626306.6764
 -32812832.54347 -25419322.27745  20633293.1724                   20633291.0274
 -56621652.96946 -42054682.35543  23377963.7274                   23377962.7274
 -12600214.18447  -9776974.94544  22479466.4614                   22479466.8324
 -53046382.23447 -41184819.91845  20934046.8594                   20934041.8874
 -10992053.80146  -6870284.33244  22369792.3754                   22369790.7704
 11  8 23  1  1 30.0000000  0  8G10G12G29G05G04G25G02G30
 -43073775.67647 -31719324.17644  21592494.5314                   21592492.9494
 -37123607.23847 -27964835.88745  20790764.5164   20790761.6844
   9918121.71945   7764241.50842  24594173.7034                   24594175.0204
 -32945179.10247 -25522449.43445  20608108.4454                   20608106.5394
 -56628803.65646 -42060254.30943  23376602.3444                   23376602.3984
 -12756223.08647  -9898540.31244  22449779.3364                   22449779.5704
 -53111702.16847 -41235718.55545  20921616.6174                   20921612.4104
 -11141556.16846  -6986779.65644  22341343.1094                   22341340.6884
 11  8 23  1  2  0.0000000  0  8G10G12G29G05G04G25G02G30
 -43099065.61347 -31739030.62144  21587681.9304                   21587680.3674
 -37217551.13347 -28038038.91845  20772887.7114   20772884.8554
   9749202.38345   7632616.11342  24562028.5314                   24562030.8594
 -33076970.73447 -25625144.18045  20583029.1334                   20583027.4184
 -56635963.12946 -42065833.10243  23375240.0554                   23375239.5314
 -12911776.52747 -10019750.78944  22420177.7194                   22420178.4964
 -53176846.52047 -41286480.37945  20909220.2894                   20909215.6134
 -11290534.09046  -7102866.34044  22312992.9924                   22312991.3484
 11  8 23  1  2 30.0000000  0  8G10G12G29G05G04G25G02G30
 -43123843.12547 -31758337.77344  21582966.9224                   21582965.6094
 -37310898.18447 -28110776.88345  20755124.3914   20755121.6994
   9580220.84045   7500942.19542  24529873.4614                   24529875.0044
 -33208204.56247 -25727404.27045  20558056.4384                   20558054.2304
 -56643130.34846 -42071417.93043  23373876.1884                   23373875.7774
 -13066870.52347 -10140603.26644  22390664.6414                   22390665.3284
 -53241814.61747 -41337104.86345  20896856.9614                   20896852.4384
 -11438983.76646  -7218541.39144  22284743.4534                   22284742.4734
 11  8 23  1  3  0.0000000  0  8G10G12G29G05G04G25G02G30
 -43148109.03147 -31777246.27044  21578349.3674                   21578348.1454
 -37403647.20347 -28183048.84445  20737474.6414   20737471.7894
   9411179.02045   7369221.38742  24497704.8284                   24497707.4064
 -33338877.73447 -25829227.48845  20533189.7814                   20533188.0594
 -56650305.00846 -42077008.58643  23372511.2584                   23372510.0944
 -13221501.36347 -10261094.82444  22361239.9224                   22361239.3674
 -53306606.19947 -41387591.81245  20884527.8754                   20884523.8324
 -11586901.61746  -7333802.06244  22256596.3054                   22256594.8794
 11  8 23  1  3 30.0000000  0  8G10G12G29G05G04G25G02G30
 -43171865.22347 -31795757.59044  21573828.8054                   21573827.1214
 -37495797.15647 -28254853.99645  20719939.4844   20719936.2424
   9242078.03145   7237454.44142  24465527.2894                   24465528.8554
 -33468988.37547 -25930612.37545  20508430.6484                   20508428.6914
 -56657487.23045 -42082605.10943  23371143.8284                   23371143.3984
 -13375666.26647 -10381223.34844  22331903.5164                   22331903.0314
 -53371221.69147 -41437941.54345  20872231.3914                   20872227.9024
 -11734285.27346  -7448646.46944  22228549.2664                   22228547.9924
 11  8 23  1  4  0.0000000  0  8G10G12G29G05G04G25G02G30
 -43195116.74647 -31813875.66044  21569404.2734                   21569402.9654
 -37587350.65647 -28326194.37945  20702516.6094   20702514.1134
   9072916.21545   7105640.00442  24433337.2194                   24433337.5164
 -33598537.53547 -26031559.73845  20483777.9144                   20483775.8754
 -56664680.18446 -42088210.03943  23369774.8984                   23369775.2974
 -13529365.23447 -10500988.79744  22302654.3754                   22302655.0514
 -53435664.36747 -41488156.60245  20859968.3674                   20859964.4774
 -11881134.89546  -7563074.74644  22200604.4144                   22200603.5354
 11  8 23  1  4 30.0000000  0  8G10G12G29G05G04G25G02G30
 -43217864.41047 -31831601.12544  21565075.7584                   21565073.9024
 -37678305.28947 -28397068.11745  20685209.1884   20685206.4454
   8903695.98445   6973780.16842  24401135.5234                   24401136.2114
 -33727522.43447 -26132067.41846  20459232.9384                   20459230.9384
 -56671883.14546 -42093822.79343  23368404.7194                   23368404.9884
 -13682594.45347 -10620388.20344  22273496.6024                   22273496.6954
 -53499933.58247 -41538236.50845  20847738.4774                   20847734.3444
 -12027446.91846  -7677084.13344  22172762.8524                   22172761.8204
 11  8 23  1  5  0.0000000  0  8G10G12G29G05G04G25G02G30
 -43240110.09447 -31848935.41844  21560842.7344                   21560841.0474
 -37768660.98447 -28467475.14845  20668014.8674   20668012.2664
   8734418.04745   6841875.30142  24368922.9534                   24368922.8954
 -33855941.35947 -26232134.08645  20434795.8594                   20434794.0864
 -56679096.67246 -42099443.75843  23367032.1254                   23367031.3914
 -13835351.54347 -10739419.71544  22244427.3524                   22244427.7854
 -53564029.91847 -41588181.71945  20835541.1024                   20835537.5514
 -12173219.14146  -7790672.87944  22145023.2894                   22145021.7114
 11  8 23  1  5 30.0000000  0  8G10G12G29G05G04G25G02G30
 -43261855.48447 -31865879.86744  21556704.3524                   21556702.9064
 -37858416.31647 -28537414.37545  20650935.4924   20650932.6844
   8565084.29345   6709926.94542  24336699.2034                   24336698.9144
 -33983792.62147 -26331758.39846  20410466.1254                   20410464.5664
 -56686320.77046 -42105072.89543  23365657.6954                   23365656.8914
 -13987633.28146 -10858080.82844  22215449.6954                   22215449.8874
 -53627953.72747 -41637992.47345  20823377.2734                   20823372.9844
 -12318448.67246  -7903838.75444  22117387.2814                   22117385.5394
 11  8 23  1  6  0.0000000  0  8G10G12G29G05G04G25G02G30
 -43283099.53547 -31882433.66844  21552661.7584                   21552660.2934
 -37947567.69147 -28606882.96945  20633969.9454   20633967.6844
   8395698.71145   6577938.23842  24304465.5314                   24304466.5434
 -34111071.36347 -26430936.60945  20386246.2664                   20386244.2974
 -56693552.72346 -42110708.16843  23364281.0234                   23364280.5744
 -14139434.07047 -10976367.16444  22186562.5864                   22186563.0704
 -53691702.50847 -41687666.84445  20811246.0394                   20811241.9924
 -12463130.23446  -8016577.66444  22089855.4694                   22089854.1604
 11  8 23  1  6 30.0000000  0  8G10G12G29G05G04G25G02G30
 -43303844.12547 -31898598.28544  21548714.0084                   21548712.3404
 -38036114.21147 -28675880.25045  20617120.3674   20617117.6724
   8226262.59046   6445910.11343  24272223.9694                   24272224.4024
 -34237775.55547 -26529667.12145  20362135.0474                   20362133.2584
 -56700792.71946 -42116349.72343  23362902.8204                   23362902.9694
 -14290751.04347 -11094276.51244  22157769.3284                   22157768.6724
 -53755276.55947 -41737205.06245  20799148.1724                   20799144.3204
 -12607261.06646  -8128887.41044  22062427.7584                   22062426.4614
 11  8 23  1  7  0.0000000  0  8G10G12G29G05G04G25G02G30
 -41748674.10546 -30686777.49244  21844652.7194                   21844651.2774
 -36548636.11347 -27516806.40645  20900177.8594   20900175.1804
   9632199.03546   7541445.05543  24539764.6174                   24539764.5394
 -32788483.74647 -25400348.78945  20637926.4304                   20637924.0704
 -55132624.52346 -40894400.53143  23661315.9844                   23661315.6254
 -12866160.26647  -9984205.76244  22428858.5394                   22428859.2464
 -52243257.89847 -40559008.71945  21086875.9924                   21086871.5594
 -11175417.84446  -7013165.43444  22334899.1254                   22334897.6174
 11  8 23  1  7 30.0000000  0  8G10G12G29G05G04G25G02G30
 -41768434.55147 -30702175.23044  21840892.8444                   21840891.6914
 -36635980.11347 -27584866.66045  20883556.1414   20883553.9884
   9462656.36346   7409333.90243  24507501.6564                   24507501.4024
 -32914044.25847 -25498188.11345  20614032.5084                   20614030.9344
 -55139890.55946 -40900062.39543  23659933.7034                   23659933.1684
 -13016510.74247 -10101361.97344  22400248.2584                   22400248.2344
 -52306492.67247 -40608282.57445  21074842.6724                   21074838.6374
 -11318449.41846  -7124618.62144  22307681.1254                   22307679.4534
 11  8 23  1  8  0.0000000  0  8G10G12G29G05G04G25G02G30
 -41787708.81247 -30717194.13744  21837225.0944                   21837223.0984
 -36722725.17247 -27652460.21945  20867050.1414   20867046.9694
   9293060.07846   7277181.03143  24475227.3834                   24475227.7704
 -33039032.93747 -25595581.85245  20590248.6174                   20590246.3834
 -55147172.86746 -40905736.97343  23658548.2274                   23658547.0704
 -13166376.81647 -10218140.71944  22371729.9614                   22371729.6414
 -52369561.40247 -40657427.03145  21062841.3204                   21062837.3244
 -11460930.55546  -7235642.88344  22280567.3754                   22280565.8164
 11  8 23  1  8 30.0000000  0  8G10G12G29G05G04G25G02G30
 -41806498.75847 -30731835.64544  21833649.5474                   21833647.8524
 -36808870.53947 -27719586.48845  20850657.0394   20850654.3484
   9123410.73046   7144986.78943  24442945.5234                   24442945.3164
 -33163448.37547 -25692528.91845  20566572.3914                   20566570.5124
 -55154471.54346 -40911424.25843  23657158.8364                   23657157.7624
 -13315755.75847 -10334539.88344  22343303.4064                   22343303.5664
 -52432464.52747 -40706442.45345  21050871.4534                   21050867.1884
 -11602858.89546  -7346236.40644  22253559.4384                   22253558.2194
 11  8 23  1  9  0.0000000  0  8G10G12G29G05G04G25G02G30
 -41824808.85947 -30746103.25444  21830165.2974                   21830163.4304
 -36894418.00847 -27786246.84845  20834378.0944   20834374.8834
   8953707.03146   7012750.21143  24410651.8364                   24410651.5004
 -33287291.54747 -25789030.05545  20543006.6024                   20543004.1884
 -55161789.25846 -40917126.41843  23655765.5944                   23655765.5864
 -13464647.60547 -10450559.46544  22314971.2424                   22314970.8914
 -52495204.91447 -40755331.07845  21038932.1094                   21038928.2734
 -11744234.62546  -7456399.31244  22226656.8834                   22226655.3914
 11  8 23  1  9 30.0000000  0  8G10G12G29G05G04G25G02G30
 -41842640.84447 -30759998.30144  21826771.6884                   21826770.0634
 -36979366.75047 -27852440.68445  20818212.5784   20818209.8054
   8783951.12945   6880472.94943  24378348.5394                   24378348.3284
 -33410560.50047 -25885083.74645  20519548.9694                   20519546.3834
 -55169125.87146 -40922843.27343  23654369.6024                   23654370.2584
 -13613049.10947 -10566196.96944  22286730.4774                   22286731.0944
 -52557782.35547 -40804092.73045  21027024.1024                   21027020.0434
 -11885054.99246  -7566129.45744  22199858.9614                   22199858.0594
 11  8 23  1 10  0.0000000  0  8G10G12G29G05G04G25G02G30
 -41859997.64847 -30773523.07844  21823468.7194                   21823467.2194
 -37063717.14147 -27918168.28145  20802161.1884   20802158.5864
   8614143.18445   6748155.15642  24346035.3524                   24346034.7814
 -33533254.60247 -25980689.50445  20496200.9384                   20496198.6254
 -55176482.52746 -40928575.77043  23652970.2584                   23652970.0124
 -13760958.62547 -10681451.10244  22258584.3204                   22258585.1024
 -52620198.26647 -40852728.50445  21015146.4064                   21015142.3914
 -12025318.57447  -7675425.74644  22173168.1564                   22173166.8714
 11  8 23  1 10 30.0000000  0  8G10G12G29G05G04G25G02G30
 -41876879.09047 -30786677.44544  21820256.0784                   21820254.5744
 -37147466.81647 -27983427.78145  20786224.2194   20786221.5204
   8444286.39845   6615799.30942  24313711.7734                   24313711.9024
 -33655370.22347 -26075844.50045  20472963.2424                   20472960.9454
 -55183857.12946 -40934322.25843  23651567.5084                   23651566.4184
 -13908371.47747 -10796318.22344  22230532.3914                   22230533.2424
 -52682450.89847 -40901237.04745  21003299.9224                   21003295.9924
 -12165020.98846  -7784284.76244  22146583.0864                   22146582.1214
 11  8 23  1 11  0.0000000  0  8G10G12G29G05G04G25G02G30
 -41893289.37947 -30799464.68044  21817133.8054                   21817131.9104
 -37230617.59047 -28048220.60545  20770401.4924   20770398.4064
   8274380.18045   6483404.97342  24281380.3364                   24281379.3674
 -33776908.41847 -26170549.55145  20449834.9454                   20449833.1604
 -55191252.30146 -40940084.74243  23650160.1174                   23650159.4574
 -14055287.28147 -10910798.02744  22202575.2114                   22202575.4924
 -52744542.98047 -40949620.49645  20991484.3984                   20991480.4534
 -12304162.12546  -7892706.39844  22120105.9064                   22120104.4024
 11  8 23  1 11 30.0000000  0  8G10G12G29G05G04G25G02G30
 -41909231.24647 -30811886.91044  21814100.3054                   21814098.6524
 -37313169.43447 -28112546.73045  20754692.1644   20754689.5234
   8104424.84445   6350972.32042  24249037.3914                   24249038.3834
 -33897868.14847 -26264803.85246  20426816.6644                   20426814.9144
 -55198668.90246 -40945863.96943  23648748.6804                   23648748.3984
 -14201704.27747 -11024889.15244  22174712.8984                   22174713.6174
 -52806475.77347 -40997879.82445  20979699.0084                   20979694.8674
 -12442740.58646  -8000689.59844  22093734.8984                   22093733.8594
 11  8 23  1 12  0.0000000  0  8G10G12G29G05G04G25G02G30
 -41924707.74647 -30823946.51644  21811154.8284                   21811153.1844
 -37395122.85247 -28176406.55545  20739096.8594   20739094.1844
   7934421.26245   6218501.98842  24216686.8524                   24216688.5554
 -34018248.99647 -26358607.07446  20403909.3984                   20403907.2734
 -55206107.58246 -40951660.42643  23647332.2034                   23647333.0314
 -14347620.58247 -11138590.10545  22146945.7974                   22146947.1054
 -52868250.15247 -41046015.70745  20967943.8134                   20967939.7974
 -12580754.85546  -8108233.15644  22067471.9384                   22067470.2234
 11  8 23  1 12 30.0000000  0  8G10G12G29G05G04G25G02G30
 -41939725.82046 -30835648.92244  21808297.0234                   21808295.7934
 -37476482.35547 -28239803.58245  20723614.5004   20723611.7424
   7764365.78945   6085991.40642  24184327.6334                   24184328.3324
 -34138054.59047 -26451962.04346  20381111.1724                   20381108.7814
 -55213573.74645 -40957478.27042  23645911.4924                   23645911.7424
 -14493038.68047 -11251902.86744  22119273.9614                   22119274.4264
 -52929871.43747 -41094032.28945  20956217.2034                   20956213.8404
 -12718207.67646  -8215339.22744  22041315.5314                   22041314.1024
 11  8 23  1 13  0.0000000  0  8G10G12G29G05G04G25G02G30
 -41954281.40247 -30846990.93444  21805527.6334                   21805525.6294
 -37557241.49647 -28302732.80545  20708246.8364   20708244.3874
   7594265.99645   5953446.18842  24151958.2664                   24151959.4964
 -34257277.33247 -26544862.84846  20358423.6484                   20358421.7234
 -55221061.39846 -40963312.83242  23644487.4454                   23644487.6294
 -14637949.94947 -11364820.68744  22091697.6724                   22091699.0514
 -52991333.78147 -41141925.02045  20944522.0554                   20944517.6094
 -12855090.75446  -8322001.34444  22015267.3594                   22015265.8364
 11  8 23  1 13 30.0000000  0  8G10G12G29G05G04G25G02G30
 -41968380.57446 -30857977.30544  21802843.9614                   21802842.5084
 -37637404.11347 -28365197.19945  20692992.1884   20692990.0474
   7424119.17246   5820864.27342  24119580.6254                   24119580.7154
 -34375919.75447 -26637311.46146  20335846.8914                   20335845.1484
 -55228574.09446 -40969166.87143  23643057.7664                   23643057.9964
 -14782355.54747 -11477344.48044  22064218.8134                   22064219.1884
 -53052641.32047 -41189697.12545  20932855.4924                   20932851.4384
 -12991405.57447  -8428220.64544  21989327.3054                   21989326.0354
 11  8 23  1 14  0.0000000  0  8G10G12G29G05G04G25G02G30
 -41982026.17647 -30868610.23844  21800247.4694                   21800246.0594
 -37716970.57047 -28427197.05145  20677850.8284   20677848.7344
   7253925.61346   5688245.94142  24087193.2034                   24087193.0984
 -34493981.34047 -26729307.46546  20313380.4224                   20313378.1454
 -55236113.27746 -40975041.62143  23641623.1954                   23641623.0274
 -14926254.06647 -11589473.16044  22036835.9774                   22036835.9264
 -53113795.16447 -41237349.46145  20921218.5864                   20921214.0124
 -13127151.25446  -8533996.45344  21963495.4454                   21963494.4184
 11  8 23  1 14 30.0000000  0  8G10G12G29G05G04G25G02G30
 -41995223.13746 -30878893.60244  21797736.0864                   21797734.8404
 -37795943.31247 -28488734.27045  20662823.5164   20662820.6644
   7083684.12946   5555590.23042  24054797.6884                   24054797.5164
 -34611463.62147 -26820852.06646  20291024.1174                   20291022.1724
 -55243682.05546 -40980939.46543  23640182.0634                   23640182.7734
 -15069645.99647 -11701207.08244  22009548.6954                   22009549.1294
 -53174799.31647 -41284885.14545  20909609.6564                   20909605.1134
 -13262328.35246  -8639329.21944  21937773.1414                   21937771.2734
 11  8 23  1 15  0.0000000  0  8G10G12G29G05G04G25G02G30
 -42007970.28547 -30888826.44544  21795310.6414                   21795309.1604
 -37874319.11347 -28549806.33645  20647908.9454   20647906.2154
   6913399.66446   5422901.05142  24022394.2344                   24022393.4224
 -34728362.31247 -26911941.93046  20268779.5234                   20268777.2234
 -55251276.75845 -40986857.49243  23638736.5944                   23638738.3014
 -15212525.35247 -11812541.59844  21982360.3444                   21982360.2424
 -53235650.14147 -41332301.35945  20898029.9694                   20898025.8914
 -13396931.41447  -8744214.68044  21912158.6724                   21912157.0204
 11  8 23  1 15 30.0000000  0  8G10G12G29G05G04G25G02G30
 -42020271.80147 -30898412.04744  21792969.7504                   21792968.2704
 -37952099.27747 -28610414.26645  20633107.5474   20633105.2664
   6743071.37945   5290177.69543  23989981.4774                   23989980.8524
 -34844677.94947 -27002577.44546  20246644.9924                   20246642.5234
 -55258899.34846 -40992797.26643  23637287.3444                   23637287.5084
 -15354891.55947 -11923476.25844  21955268.5474                   21955269.1644
 -53296350.00447 -41379599.94145  20886478.8204                   20886474.9184
 -13530960.23046  -8848652.68044  21886653.9614                   21886652.1564
 11  8 23  1 16  0.0000000  0  8G10G12G29G05G04G25G02G30
 -40456709.94147 -29680052.15244  22090506.0864                   22090504.1884
 -36453861.79347 -27442956.48845  20918213.4694   20918210.6254
   8148126.27346   6385025.67643  24257353.8754                   24257353.2774
 -33384985.92247 -25865155.05946  20524414.7584                   20524413.0904
 -53691130.34846 -39771159.14543  23935623.1724                   23935623.5904
 -13921318.00047 -10806405.91845  22228068.4454                   22228068.7734
 -51781477.43747 -40199179.74645  21174749.6724                   21174745.7344
 -12088988.83247  -7725038.57044  22161051.8054                   22161049.9844
 11  8 23  1 16 30.0000000  0  8G10G12G29G05G04G25G02G30
 -40468129.79747 -29688950.75844  22088332.8984                   22088331.0944
 -36530453.93447 -27502638.68445  20903638.1254   20903635.2734
   7977711.76646   6252235.12543  24224925.5474                   24224924.9064
 -33500134.99647 -25954881.58645  20502503.0634                   20502500.8244
 -53698812.53146 -39777145.33243  23934161.7894                   23934162.3594
 -14062654.05947 -10916537.87944  22201173.1174                   22201173.3444
 -51841879.46947 -40246246.25445  21163256.1644                   21163251.3714
 -12221866.32047  -7828579.41444  22135765.7974                   22135764.4614
 11  8 23  1 17  0.0000000  0  8G10G12G29G05G04G25G02G30
 -40479112.73446 -29697508.90244  22086242.5164                   22086240.7544
 -36606452.79747 -27561858.58245  20889175.3984   20889173.2464
   7807255.20346   6119411.84443  24192488.9144                   24192487.3594
 -33614700.11747 -26044153.07046  20480701.8754                   20480699.9654
 -53706525.52346 -39783155.50843  23932694.2424                   23932694.0274
 -14203472.43047 -11026266.44544  22174376.1094                   22174376.6564
 -51902133.87547 -40293197.71945  21151789.5234                   21151785.8444
 -12354166.16446  -7931670.17244  22110590.0084                   22110588.5164
 11  8 23  1 17 30.0000000  0  8G10G12G29G05G04G25G02G30
 -40489662.30146 -29705729.34844  22084235.2194                   22084233.7274
 -36681859.28947 -27620616.89145  20874826.3674   20874824.2154
   7636756.91446   5986556.02743  24160044.3054                   24160043.4804
 -33728681.20347 -26132969.47346  20459012.0704                   20459010.2624
 -53714270.70746 -39789190.77042  23931221.1094                   23931220.1994
 -14343772.09447 -11135590.83645  22147678.1644                   22147678.6844
 -51962242.21547 -40340035.38345  21140351.1024                   21140346.8954
 -12485887.70347  -8034310.29344  22085524.3284                   22085523.0744
 11  8 23  1 18  0.0000000  0  8G10G12G29G05G04G25G02G30
 -40499780.71946 -29713613.83244  22082309.6644                   22082308.1054
 -36756673.51247 -27678913.69145  20860589.9454   20860587.4224
   7466218.52346   5853669.05543  24127591.5004                   24127590.7544
 -33842077.33247 -26221330.06646  20437433.1724                   20437431.5164
 -53722048.29346 -39795251.25843  23929740.3594                   23929740.6134
 -14483550.60947 -11244509.13744  22121079.5864                   22121079.0864
 -52022205.02747 -40386759.65645  21128940.4774                   21128937.3484
 -12617028.86746  -8136498.17644  22060568.7274                   22060566.7344
 11  8 23  1 18 30.0000000  0  8G10G12G29G05G04G25G02G30
 -40509469.25446 -29721163.35244  22080465.3594                   22080464.1254
 -36830894.94147 -27736748.57045  20846466.2034   20846463.4414
   7295642.09045   5720752.33243  24095131.0634                   24095131.3054
 -33954886.37547 -26309233.18746  20415966.3834                   20415964.7154
 -53729856.73846 -39801335.83642  23928254.8284                   23928254.7234
 -14622804.75447 -11353018.83645  22094579.8984                   22094580.0204
 -52082021.68747 -40433370.03145  21117559.9064                   21117553.5744
 -12747586.82846  -8238231.62144  22035724.3134                   22035722.8714
 11  8 23  1 19  0.0000000  0  8G10G12G29G05G04G25G02G30
 -40518731.49646 -29728380.68744  22078703.6954                   22078701.9924
 -36904524.64547 -27794122.35545  20832454.2664   20832452.5274
   7125027.70745   5587806.14543  24062664.9924                   24062664.4384
 -34067108.70747 -26396679.12546  20394611.2734                   20394609.0514
 -53737698.10946 -39807446.05543  23926762.3364                   23926762.6094
 -14761533.68747 -11461119.28145  22068180.8834                   22068180.8554
 -52141693.91047 -40479867.88345  21106202.8444                   21106198.3834
 -12877561.15247  -8339510.27744  22010990.7734                   22010990.0234
 11  8 23  1 19 30.0000000  0  8G10G12G29G05G04G25G02G30
 -40527571.87946 -29735269.30144  22077021.3444                   22077019.6054
 -36977564.78947 -27851036.75445  20818555.7504   20818553.2934
   6954374.59445   5454829.74243  24030190.0554                   24030190.1134
 -34178746.10247 -26483669.27346  20373367.8594                   20373365.5004
 -53745574.75446 -39813583.74242  23925264.1254                   23925264.4574
 -14899737.52347 -11568810.55945  22041881.3204                   22041881.9774
 -52201224.22747 -40526255.13745  21094874.2114                   21094870.7544
 -13006952.34847  -8440334.55144  21986369.0394                   21986367.2544
 11  8 23  1 20  0.0000000  0  8G10G12G29G05G04G25G02G30
 -40535992.44146 -29741830.78944  22075418.8754                   22075417.3094
 -37050014.90247 -27907491.38745  20804769.1484   20804766.1884
   6783684.62545   5321824.67243  23997710.1094                   23997709.6134
 -34289796.71147 -26570202.18446  20352235.1804                   20352233.3204
 -53753485.98846 -39819748.33642  23923758.5864                   23923758.3524
 -15037413.38347 -11676090.44544  22015682.4454                   22015682.6294
 -52260612.31247 -40572531.57445  21083573.6644                   21083569.2464
 -13135757.92647  -8540702.50444  21961857.3284                   21961855.9844
 11  8 23  1 20 30.0000000  0  8G10G12G29G05G04G25G02G30
 -40543996.58646 -29748067.78544  22073896.1334                   22073893.9264
 -37121876.81247 -27963487.66845  20791093.5944   20791091.2034
   6612958.14146   5188791.05543  23965221.5314                   23965220.9574
 -34400260.83247 -26656278.09046  20331214.5004                   20331212.4024
 -53761432.85946 -39825940.69542  23922245.3284                   23922246.5164
 -15174560.29347 -11782958.16045  21989584.3914                   21989584.4024
 -52319859.50047 -40618698.22345  21072298.8204                   21072294.8874
 -13263977.40646  -8640613.76644  21937458.1254                   21937457.0124
 11  8 23  1 21  0.0000000  0  8G10G12G29G05G04G25G02G30
 -40551586.65646 -29753982.10944  22072451.5634                   22072449.7624
 -37193150.43747 -28019025.55545  20777530.7584   20777528.3674
   6442196.45346   5055730.09043  23932725.4144                   23932726.0594
 -34510137.63747 -26741896.34846  20310306.0314                   20310303.8554
 -53769416.01245 -39832161.33642  23920726.3984                   23920726.8244
 -15311176.25047 -11889412.12945  21963586.8754                   21963587.1374
 -52378966.72347 -40664755.80945  21061050.9924                   21061047.2424
 -13391609.04747  -8740066.96544  21913170.9454                   21913169.3794
 11  8 23  1 21 30.0000000  0  8G10G12G29G05G04G25G02G30
 -40558766.32846 -29759576.68044  22071084.9224                   22071083.5784
 -37263837.51647 -28074106.39145  20764079.8524   20764077.2114
   6271399.64146   4922641.73443  23900223.8834                   23900224.1374
 -34619427.89147 -26827057.55146  20289508.5474                   20289506.4344
 -53777436.46945 -39838411.09442  23919200.3054                   23919201.4304
 -15447260.54347 -11995451.84045  21937691.0864                   21937691.2894
 -52437935.64147 -40710705.61745  21049830.3054                   21049825.4804
 -13518652.77747  -8839062.05944  21888994.9224                   21888993.7344
 11  8 23  1 22  0.0000000  0  8G10G12G29G05G04G25G02G30
 -40565536.30147 -29764851.96944  22069796.9774                   22069795.1454
 -37333936.06247 -28128728.63345  20750739.9844   20750737.8914
   6100571.25446   4789528.77743  23867716.9144                   23867716.6254
 -34728128.93447 -26911759.62546  20268823.8054                   20268820.9734
 -53785492.64845 -39844688.59842  23917667.9304                   23917668.7934
 -15582809.28947 -12101074.23445  21911897.2424                   21911897.0044
 -52496764.82047 -40756546.53945  21038635.2894                   21038630.3094
 -13645105.07447  -8937596.28544  21864931.9384                   21864931.0744
 11  8 23  1 22 30.0000000  0  8G10G12G29G05G04G25G02G30
 -40571901.96546 -29769812.21144  22068585.1254                   22068583.5594
 -37403449.83647 -28182895.21545  20737512.4144   20737509.8634
   5929709.18446   4656389.57843  23835203.1644                   23835202.4844
 -34836243.02047 -26996004.34046  20248249.9144                   20248247.7114
 -53793587.86345 -39850996.56242  23916127.2584                   23916128.7344
 -15717823.48047 -12206280.08645  21886204.8204                   21886204.7034
 -52555457.43747 -40802281.03945  21027466.6564                   21027461.9224
 -13770967.23047  -9035670.68744  21840981.5634                   21840980.1254
 11  8 23  1 23  0.0000000  0  8G10G12G29G05G04G25G02G30
 -40577864.51646 -29774458.35544  22067451.1024                   22067449.0044
 -37472378.26247 -28236605.67645  20724395.6484   20724393.1524
   5758815.79346   4523225.93843  23802683.3364                   23802682.7704
 -34943768.75847 -27079790.59846  20227788.3284                   20227786.0204
 -53801721.16045 -39857334.19142  23914579.0944                   23914580.3954
 -15852300.16847 -12311067.11345  21860614.7114                   21860614.9454
 -52614013.04747 -40847908.77045  21016323.9384                   21016319.4804
 -13896236.89147  -9133283.39544  21817143.5084                   21817141.9144
 11  8 23  1 23 30.0000000  0  8G10G12G29G05G04G25G02G30
 -40583426.57046 -29778792.40644  22066392.3674                   22066390.3984
 -37540721.36747 -28289860.04345  20711390.4064   20711387.7034
   5587892.37146   4390038.91043  23770158.1724                   23770155.8714
 -35050705.21547 -27163117.67246  20207438.9694                   20207436.9184
 -53809892.81245 -39863701.66842  23913024.0234                   23913024.5664
 -15986237.48047 -12415433.84045  21835127.0004                   21835127.1644
 -52672432.20747 -40893430.18445  21005206.8204                   21005202.6374
 -14020912.55547  -9230433.24244  21793418.0474                   21793416.8244
 11  8 23  1 24  0.0000000  0  8G10G12G29G05G04G25G02G30
 -40588591.87546 -29782817.31244  22065409.3444                   22065407.7974
 -37608481.39147 -28342660.06645  20698496.1094   20698493.6954
   5416939.25046   4256828.73443  23737625.3134                   23737625.0354
 -35157053.06647 -27245986.09846  20187201.3204                   20187199.3014
 -53818104.13745 -39870100.07842  23911461.9304                   23911462.2234
 -16119634.77347 -12519379.77745  21809742.1024                   21809742.9924
 -52730716.49647 -40938846.49645  20994115.5864                   20994111.4104
 -14144994.14147  -9327120.18044  21769806.7034                   21769805.3204
 11  8 23  1 24 30.0000000  0  8G10G12G29G05G04G25G02G30
 -40593363.79746 -29786535.66844  22064501.3594                   22064500.1024
 -37675659.73847 -28395006.84045  20685712.4454   20685710.1454
   5245956.60546   4123595.57843  23705088.1564                   23705088.3164
 -35262812.72347 -27328396.19146  20167076.0554                   20167073.7074
 -53826356.16046 -39876530.15242  23909890.0474                   23909891.6374
 -16252491.07447 -12622904.16045  21784460.7974                   21784461.2504
 -52788867.13747 -40984158.65245  20983050.0474                   20983045.8834
 -14268480.97347  -9423343.68744  21746308.1724                   21746306.3134
 11  8 23  1 25  0.0000000  0  8G10G12G29G05G04G25G02G30
 -39022325.82446 -28562350.23844  22363460.1094                   22363458.7814
 -36166835.50447 -27219299.65645  20972832.2504   20972829.6024
   6650370.69546   5217944.30543  23972340.0864                   23972339.5664
 -33792561.75047 -26182746.04746  20446855.3834                   20446853.7114
 -52259229.81245 -38655392.64842  24208105.5314                   24208105.9454
 -14809381.16847 -11498402.92645  22059075.7274                   22059075.5664
 -51271463.77747 -39801766.39545  21271802.0314                   21271798.3484
 -12815948.68046  -8291500.34844  22022715.2114                   22022713.8594
 11  8 23  1 25 30.0000000  0  8G10G12G29G05G04G25G02G30
 -39026320.73046 -28565463.13744  22362699.5864                   22362698.1764
 -36232853.60547 -27270742.34845  20960269.5554   20960266.9024
   6479331.75046   5084667.29743  23939792.5234                   23939791.9494
 -33897146.14847 -26264240.35246  20426954.2194                   20426951.4224
 -52267565.59845 -38661887.99642  24206518.5944                   24206519.8444
 -14941151.96147 -11601081.44545  22034000.4694                   22034000.6914
 -51329351.01247 -39846873.30945  21260786.1884                   21260782.5314
 -12938243.91046  -8386795.32044  21999443.5634                   21999442.0124
 11  8 23  1 26  0.0000000  0  8G10G12G29G05G04G25G02G30
 -39029930.49646 -28568275.92644  22362013.0704                   22362011.1564
 -36298292.10547 -27321733.40245  20947817.0314   20947814.2854
   6308266.76646   4951369.96543  23907239.7274                   23907239.2504
 -34001141.44947 -26345275.62546  20407164.2274                   20407161.9024
 -52275943.33646 -38668416.08642  24204926.0314                   24204925.5664
 -15072376.98047 -11703334.69145  22009028.7034                   22009029.5514
 -51387106.44147 -39891877.52045  21249796.3914                   21249791.8954
 -13059941.08646  -8481624.29344  21976284.9534                   21976283.3284
 11  8 23  1 26 30.0000000  0  8G10G12G29G05G04G25G02G30
 -39033157.93446 -28570790.80144  22361399.2664                   22361396.7584
 -36363151.98847 -27372273.58245  20935474.6414   20935472.1684
   6137177.09846   4818053.44943  23874681.9844                   23874682.2704
 -34104547.70347 -26425851.89546  20387486.7274                   20387484.3404
 -52284363.32846 -38674977.09842  24203323.0084                   24203323.0824
 -15203054.71947 -11805161.50445  21984161.7274                   21984162.3754
 -51444731.09447 -39936779.82045  21238830.6024                   21238826.1954
 -13181039.21946  -8575986.47744  21953240.1484                   21953239.2894
 11  8 23  1 27  0.0000000  0  8G10G12G29G05G04G25G02G30
 -39036007.66446 -28573011.36744  22360856.5164                   22360855.1414
 -36427435.97347 -27422365.01645  20923241.7584   20923239.1484
   5966061.63345   4684716.82043  23842119.5554                   23842120.0164
 -34207366.69547 -26505970.56646  20367920.9304                   20367918.4224
 -52292827.95746 -38681572.87542  24201712.5314                   24201712.6334
 -15333185.71547 -11906562.26645  21959398.9384                   21959399.3634
 -51502227.29347 -39981582.03145  21227888.9774                   21227885.1764
 -13301539.26246  -8669882.60944  21930310.2894                   21930309.0004
 11  8 23  1 27 30.0000000  0  8G10G12G29G05G04G25G02G30
 -39038481.55146 -28574939.06243  22360385.1484                   22360383.5004
 -36491143.96147 -27472007.61345  20911118.4774   20911116.2114
   5794922.94946   4551362.09443  23809552.7274                   23809553.3094
 -34309597.55947 -26585630.94946  20348467.0704                   20348464.4614
 -52301336.48446 -38688202.89542  24200092.8284                   24200093.5744
 -15462767.39847 -12007535.00045  21934740.0554                   21934740.7464
 -51559594.99247 -40026284.11345  21216972.2274                   21216968.0824
 -13421439.09846  -8763311.06644  21907495.4384                   21907492.7774
 11  8 23  1 28  0.0000000  0  8G10G12G29G05G04G25G02G30
 -39040584.82046 -28576577.97744  22359985.8134                   22359983.6684
 -36554279.44947 -27521204.12145  20899104.4844   20899101.8674
   5623759.69146   4417988.23443  23776982.0554                   23776981.3794
 -34411242.27747 -26664834.60546  20329124.5784                   20329122.2504
 -52309891.59046 -38694869.15643  24198465.4304                   24198464.9574
 -15591800.65647 -12108080.39545  21910186.1024                   21910186.4384
 -51616837.29347 -40070888.48845  21206079.3984                   21206074.8484
 -13540740.09046  -8856272.87544  21884792.4064                   21884790.3054
 11  8 23  1 28 30.0000000  0  8G10G12G29G05G04G25G02G30
 -39042320.53546 -28577930.48443  22359655.3054                   22359653.4024
 -36616843.42247 -27569955.28145  20887198.9614   20887196.3834
   5452572.76646   4284595.89843  23744406.9534                   23744406.0824
 -34512301.05947 -26743581.68046  20309894.0164                   20309891.4064
 -52318493.87946 -38701572.21942  24196827.9224                   24196827.9344
 -15720284.38347 -12208197.57445  21885735.5004                   21885736.6884
 -51673955.04747 -40115395.79745  21195210.5704                   21195206.2154
 -13659441.64146  -8948767.59444  21862204.2114                   21862202.3754
 11  8 23  1 29  0.0000000  0  8G10G12G29G05G04G25G02G30
 -39043688.50846 -28578996.42244  22359394.4224                   22359393.0474
 -36678834.35947 -27618259.92645  20875401.8594   20875399.4224
   5281365.94046   4151188.06343  23711826.6334                   23711826.3094
 -34612771.14547 -26821870.03546  20290775.0704                   20290772.8954
 -52327141.03945 -38708310.26242  24195181.8444                   24195182.9494
 -15848214.41447 -12307883.30945  21861391.8134                   21861392.5984
 -51730946.09447 -40159804.40645  21184365.1804                   21184361.1414
 -13777540.14547  -9040792.41044  21839730.2734                   21839729.0984
 11  8 23  1 29 30.0000000  0  8G10G12G29G05G04G25G02G30
 -39044691.25846 -28579777.76243  22359202.8284                   22359202.5474
 -36740252.49647 -27666118.22345  20863714.4924   20863712.1254
   5110141.04746   4017766.11743  23679243.9614                   23679243.0164
 -34712652.05547 -26899699.29746  20271768.4304                   20271765.9694
 -52335832.81245 -38715083.10942  24193528.4534                   24193529.9224
 -15975588.79347 -12407136.06645  21837153.3524                   21837154.0554
 -51787810.23847 -40204114.11745  21173544.5004                   21173540.2854
 -13895034.06247  -9132346.11744  21817372.0084                   21817370.2774
 11  8 23  1 30  0.0000000  0  8G10G12G29G05G04G25G02G30
 -39045333.32846 -28580278.07443  22359081.2814                   22359079.7624
 -36801100.73047 -27713532.45345  20852135.3054   20852132.9104
   4938897.51246   3884329.66843  23646657.1884                   23646656.3834
 -34811945.81247 -26977071.03546  20252873.4304                   20252870.8554
 -52344571.42645 -38721892.43742  24191865.4064                   24191867.1174
 -16102408.05947 -12505956.27045  21813020.4614                   21813020.6914
 -51844550.27747 -40248327.13345  21162747.0704                   21162743.0634
 -14011924.50447  -9223429.57844  21795128.7734                   21795126.8594
 11  8 23  1 30 30.0000000  0  8G10G12G29G05G04G25G02G30
 -39045619.16446 -28580500.80544  22359027.6094                   22359025.2894
 -36861381.85947 -27760504.78945  20840664.7344   20840661.9184
   4767634.80946   3750878.24643  23614066.8134                   23614065.0394
 -34910653.93047 -27053986.42646  20234089.8204                   20234087.5984
 -52353358.97345 -38728739.81242  24190193.8754                   24190195.4264
 -16228672.47347 -12604344.13345  21788992.8914                   21788993.2854
 -51901168.28947 -40292445.05945  21151972.9614                   21151968.7814
 -14128212.18747  -9314043.35944  21773000.0554                   21772998.2114
 11  8 23  1 31  0.0000000  0  8G10G12G29G05G04G25G02G30
 -39045550.63746 -28580447.39543  22359041.2344                   22359038.3794
 -36921095.89847 -27807035.22345  20829301.4924   20829298.5744
   4596355.13746   3617413.57043  23581472.5784                   23581471.8094
 -35008775.34447 -27130444.64546  20215417.7424                   20215415.5784
 -52362194.47345 -38735624.57042  24188512.1564                   24188513.8834
 -16354379.73447 -12702297.84845  21765072.0784                   21765072.2074
 -51957663.98047 -40336467.67645  21141221.9694                   21141218.0634
 -14243895.32047  -9404186.06644  21750986.2194                   21750984.3524
 11  8 23  1 31 30.0000000  0  9G10G12G26G29G05G04G25G02G30
 -39045132.57846 -28580121.63743  22359121.1884                   22359118.0744
 -36980246.40247 -27853126.53945  20818045.7114   20818042.9614
  15346661.42615                  24731836.047
   4425057.74246   3483935.13343  23548875.4924                   23548875.2584
 -35106312.43747 -27206447.54346  20196857.2114                   20196854.6024
 -52371080.41845 -38742548.66842  24186821.2814                   24186822.9534
 -16479530.68447 -12799818.06245  21741256.6644                   21741256.9184
 -52014040.32447 -40380397.28545  21130494.7424                   21130490.2424
 -14358975.30147  -9493858.76244  21729087.1644                   21729086.0084
 11  8 23  1 32  0.0000000  0  9G10G12G26G29G05G04G25G02G30
 -39044372.04346 -28579529.02343  22359264.8444                   22359263.2854
 -37038838.28547 -27898782.56245  20806896.2194   20806893.7464
  15166649.844 5                  24697582.422
   4253739.89846   3350440.71543  23516275.6174                   23516274.0984
 -35203269.27747 -27281998.28946  20178406.7504                   20178404.0944
 -52380021.12945 -38749515.45342  24185119.7974                   24185121.5394
 -16604128.12147 -12896906.98045  21717546.2734                   21717546.6994
 -52070301.82447 -40424237.41445  21119788.5084                   21119783.9494
 -14473455.41046  -9583064.04344  21707302.6254                   21707300.7624
 11  8 23  1 32 30.0000000  0  9G10G12G26G29G05G04G25G02G30
 -39043271.87946 -28578671.75443  22359474.1644                   22359472.2544
 -37096872.64147 -27944004.15245  20795852.0234   20795850.1644
  14986508.219 5                  24663301.273
   4082402.70346   3216931.20343  23483670.8364                   23483669.9924
 -35299645.80547 -27357096.86746  20160067.2734                   20160064.9104
 -52389016.85945 -38756525.03142  24183408.1254                   24183410.2234
 -16728170.66047 -12993563.50845  21693941.7114                   21693942.2384
 -52126449.04347 -40467988.48845  21109103.3594                   21109099.4454
 -14587334.83247  -9671801.25044  21685632.2894                   21685630.3094
 11  8 23  1 33  0.0000000  0  9G10G12G26G29G05G04G25G02G30
 -39041832.32446 -28577550.04343  22359748.4614                   22359745.6914
 -37154348.25047 -27988790.36345  20784915.1414   20784912.7854
  14806241.406 5                  24628998.047
   3911049.55946   3083409.25443  23451063.3524                   23451062.7584
 -35395440.09447 -27431741.73446  20141837.7274                   20141835.4104
 -52398065.69145 -38763576.04742  24181685.2894                   24181688.2814
 -16851654.79747 -13089784.91045  21670442.9144                   21670443.8834
 -52182480.00047 -40511648.96145  21098441.1724                   21098437.3524
 -14700610.66047  -9760068.12944  21664076.1024                   21664074.3594
 11  8 23  1 33 30.0000000  0  9G10G12G26G29G05G04G25G02G30
 -39040058.69546 -28576167.96543  22360086.2034                   22360083.8204
 -37211269.10547 -28033144.29345  20774083.0164   20774080.9844
  14625850.18045  12200923.35252  24594670.6094                   24594671.1604
   3739679.73046   2949874.34043  23418453.2114                   23418452.7234
 -35490654.96947 -27505935.11746  20123718.9534                   20123716.2934
 -52407170.09445 -38770670.40242  24179952.3674                   24179956.0004
 -16974581.81647 -13185572.20745  21647051.1564                   21647051.9884
 -52238397.71947 -40555221.21545  21087800.6334                   21087796.8634
 -14813284.49647  -9847865.91044  21642634.7114                   21642633.6564
 11  8 23  1 34  0.0000000  0  9G10G12G26G29G05G04G25G02G30
 -37462530.41846 -27346925.15643  22660278.7664                   22660277.9384
 -35692211.01247 -26849462.67245  21063150.2814   21063148.3634
  16020766.96946  13287871.56642  24860114.3674                   24860115.8874
   5143723.62146   4043934.52343  23685633.7974                   23685632.9264
 -34009863.69947 -26352071.76246  20405504.1024                   20405501.7894
 -50840906.793 5                  24478001.969
 -15521522.89547 -12053318.49245  21923559.7504                   21923559.8674
 -50718777.58647 -39371101.61745  21376974.8364                   21376970.7584
 -13349928.61347  -8707588.59044  21921101.9614                   21921101.0394
 11  8 23  1 34 30.0000000  0  9G10G12G26G29G05G04G25G02G30
 -37460089.41446 -27345023.09443  22660743.5554                   22660742.1374
 -35748017.79347 -26892948.48845  21052531.1564   21052528.2734
  15840143.27745  13147125.94942  24825741.9144                   24825744.3874
   4972331.79746   3910382.45743  23653019.3284                   23653018.3054
 -34103911.92247 -26425356.06246  20387607.4694                   20387604.6684
 -50850115.648 5                  24476250.555
 -15643324.23847 -12148228.62945  21900381.4534                   21900381.4884
 -50774463.23447 -39414493.03145  21366378.1174                   21366373.6724
 -13461389.00847  -8794440.84444  21899892.4774                   21899890.8324
 11  8 23  1 35  0.0000000  0  9G10G12G26G29G05G04G25G02G30
 -37457318.06646 -27342863.58243  22661270.8834                   22661269.1764
 -35803268.84047 -26936001.27345  21042017.3914   21042014.5204
  15659408.54746  13006293.75842  24791350.3054                   24791351.6764
   4800931.65246   3776823.90643  23620403.1884                   23620402.4494
 -34197376.39547 -26498185.50046  20369821.1024                   20369819.1724
 -50859376.297 5                  24474489.273
 -15764560.26647 -12242698.26645  21877311.3134                   21877311.5784
 -50830032.88747 -39457794.04745  21355803.4924                   21355799.1684
 -13572240.92247  -8880818.95344  21878798.1644                   21878796.0784
 11  8 23  1 35 30.0000000  0  9G10G12G26G29G05G04G25G02G30
 -37454219.41446 -27340449.06643  22661860.6024                   22661859.0514
 -35857965.41847 -26978621.99645  21031608.7584   21031606.4494
  15478565.69545  12865377.35942  24756937.1954                   24756938.4104
   4629524.60546   3643259.98043  23587785.3204                   23587784.7304
 -34290257.51247 -26570560.35546  20352146.6884                   20352144.5594
 -50868688.973 6                  24472716.695
 -15885229.87147 -12336726.52345  21854348.3594                   21854348.6684
 -50885487.03147 -39501005.06245  21345250.9144                   21345246.8204
 -13682483.91447  -8966722.58644  21857819.1564                   21857817.7814
 11  8 23  1 36  0.0000000  0  9G10G12G26G29G05G04G25G02G30
 -37450797.57846 -27337782.71143  22662511.8984                   22662511.0394
 -35912110.15647 -27020812.72745  21021305.2664   21021302.8714
  15297616.30945  12724377.90642  24722504.6644                   24722504.6994
   4458110.48846   3509690.56343  23555165.7894                   23555165.3094
 -34382557.37947 -26642482.30946  20334583.0314                   20334580.3834
 -50878055.48046 -37551865.43752  24470934.2664                   24470933.0594
 -16005333.39847 -12430313.68745  21831493.1484                   21831493.5944
 -50940827.53547 -39544127.51645  21334720.4304                   21334715.7734
 -13792118.86747  -9052152.41444  21836956.5634                   21836954.7274
 11  8 23  1 36 30.0000000  0  9G10G12G26G29G05G04G25G02G30
 -37447053.55146 -27334865.27743  22663223.6174                   22663222.3874
 -35965702.75047 -27062573.19545  21011106.4924   21011104.4494
  15116564.65645  12583298.90242  24688051.0004                   24688052.9414
   4286692.48046   3376118.13343  23522545.3524                   23522545.4064
 -34474274.05547 -26713949.83246  20317129.8444                   20317127.2774
 -50887474.12946 -37559204.55542  24469141.6094                   24469141.5354
 -16124868.09047 -12523457.60245  21808747.1174                   21808746.9654
 -50996053.46147 -39587160.68745  21324211.2344                   21324206.8094
 -13901143.55547  -9137106.72744  21816209.2424                   21816207.8404
 11  8 23  1 37  0.0000000  0  9G10G12G26G29G05G04G25G02G30
 -37442991.60246 -27331700.14143  22663997.5944                   22663995.5434
 -36018745.68447 -27103905.37145  21001012.9144   21001010.9024
  14935413.28945  12442142.03542  24653577.9844                   24653580.1214
   4115270.68846   3242542.77043  23489925.6024                   23489925.4774
 -34565409.37947 -26784964.34446  20299787.1804                   20299784.8054
 -50896946.34846 -37566585.44542  24467339.3284                   24467338.7304
 -16243834.04747 -12616158.34045  21786108.2344                   21786108.3674
 -51051166.44147 -39630105.85545  21313723.1564                   21313719.2704
 -14009558.64547  -9221586.02044  21795579.3444                   21795577.4654
 11  8 23  1 37 30.0000000  0  9G10G12G26G29G05G04G25G02G30
 -37438614.30546 -27328289.26243  22664830.3754                   22664828.8284
 -36071239.69947 -27144809.81245  20991024.0784   20991021.4264
  14754164.96145  12300909.76642  24619086.5234                   24619089.9574
   3943846.78546   3108965.79743  23457305.0474                   23457303.9884
 -34655963.29347 -26855525.81246  20282555.8054                   20282552.9104
 -50906471.93746 -37574007.94942  24465526.8284                   24465526.9304
 -16362229.85247 -12708414.79745  21763578.4384                   21763578.4414
 -51106166.43047 -39672962.97345  21303257.0234                   21303252.6094
 -14117363.21547  -9305589.57844  21775064.7814                   21775062.6604
 11  8 23  1 38  0.0000000  0  9G10G12G26G29G05G04G25G02G30
 -37433924.74246 -27324635.06643  22665721.2584                   22665721.4494
 -36123187.59447 -27185288.69545  20981138.2344   20981136.0554
  14572822.33245  12159603.91442  24584580.1884                   24584582.2074
   3772421.39546   2975387.61343  23424683.8134                   23424682.5274
 -34745936.98047 -26925635.16046  20265433.8984                   20265431.7114
 -50916051.80946 -37581472.80942  24463703.6884                   24463704.2194
 -16480055.28947 -12800226.81645  21741156.9384                   21741156.9924
 -51161054.77047 -39715733.09845  21292812.2504                   21292808.0124
 -14224557.74247  -9389117.77344  21754665.9144                   21754664.1684
 11  8 23  1 38 30.0000000  0  9G10G12G26G29G05G04G25G02G30
 -37428926.49646 -27320740.34843  22666674.4534                   22666672.8364
 -36174590.95347 -27225343.27045  20971357.0314   20971354.6374
  14391387.992 5                  24550054.047
   3600995.46946   2841809.05143  23392062.2344                   23392060.7194
 -34835330.97347 -26995292.80146  20248423.3054                   20248420.4534
 -50925686.65246 -37588980.54742  24461869.5554                   24461870.7814
 -16597309.69147 -12891593.87945  21718843.6724                   21718843.9654
 -51215832.29347 -39758416.85945  21282388.0784                   21282383.7274
 -14331142.06247  -9472170.49644  21734384.2274                   21734382.3014
 11  8 23  1 39  0.0000000  0  9G10G12G26G29G05G04G25G02G30
 -37423621.15646 -27316606.27743  22667683.3914                   22667682.4104
 -36225450.41447 -27264974.02345  20961678.8364   20961676.2624
  14209865.83615                  24515510.836
   3429571.55946   2708232.07843  23359441.0704                   23359440.0864
 -34924145.23047 -27064498.69546  20231521.8054                   20231519.7424
 -50935375.35546 -37596530.14542  24460026.2504                   24460027.0704
 -16713991.26647 -12982514.57845  21696640.6094                   21696640.2194
 -51270498.71947 -39801014.05545  21271985.3674                   21271981.3164
 -14437114.97347  -9554746.78944  21714217.0314                   21714216.1334
 11  8 23  1 39 30.0000000  0  9G10G12G26G29G05G04G25G02G30
 -37418010.73046 -27312234.51643  22668750.4224                   22668749.2974
 -36275765.97747 -27304180.96545  20952103.7114   20952101.4964
  14028260.152 5                  24480951.945
   3258152.09846   2574658.53543  23326820.9534                   23326819.5234
 -35012378.73447 -27133252.05546  20214731.2344                   20214729.0944
 -50945117.45355 -37604121.45752  24458171.7034                   24458173.5864
 -16830097.76247 -13072987.15645  21674545.9224                   21674546.0944
 -51325053.15247 -39843523.98845  21261603.8364                   21261599.9454
 -14542474.82447  -9636845.37144  21694168.4844                   21694166.4574
 11  8 23  1 40  0.0000000  0  9G10G12G26G29G05G04G25G02G30
 -37412098.33646 -27307627.46143  22669875.8524                   22669874.4924
 -36325539.55947 -27342965.59445  20942631.7344   20942630.1524
  13846573.586 5                  24446378.211
   3086738.12946   2441089.30143  23294201.6254                   23294200.3554
 -35100032.47747 -27201553.66446  20198051.7344                   20198049.0514
 -50954912.82855 -37611754.23852  24456308.3444                   24456309.2774
 -16945628.74247 -13163011.28945  21652561.0164                   21652561.3634
 -51379496.44547 -39885947.30945  21251244.2194                   21251239.5234
 -14647221.65247  -9718466.28944  21674235.5474                   21674234.0004
 11  8 23  1 40 30.0000000  0  9G10G12G26G29G05G04G25G02G30
 -37405887.64146 -27302787.95743  22671058.4924                   22671056.0084
 -36374773.48047 -27381329.69545  20933263.4534   20933261.1174
  13664808.051 5                  24411789.445
   2915330.18846   2307524.71143  23261583.8054                   23261582.7974
 -35187107.81247 -27269404.55546  20181481.5474                   20181479.4064
 -50964764.15656 -37619430.86352  24454434.5474                   24454435.0354
 -17060584.22747 -13252586.98445  21630685.9454                   21630685.8164
 -51433830.19947 -39928285.29745  21240904.4534                   21240900.1334
 -14751356.18047  -9799610.07044  21654419.3914                   21654418.3484
 11  8 23  1 41  0.0000000  0  9G10G12G26G29G05G04G25G02G30
 -37399381.19946 -27297718.00043  22672295.8674                   22672294.5044
 -36423469.24247 -27419274.45745  20923996.6484   20923994.4384
  13482967.422 5                  24377186.430
   2743930.24246   2173966.39843  23228966.7734                   23228966.5084
 -35273604.79747 -27336804.78546  20165022.4224                   20165019.5434
 -50974668.62546 -37627148.68042  24452549.5864                   24452549.6604
 -17174962.85947 -13341713.17645  21608919.9454                   21608920.2934
 -51488054.11747 -39970537.68745  21230586.2194                   21230581.9064
 -14854877.60947  -9880276.11744  21634720.5704                   21634718.8164
 11  8 23  1 41 30.0000000  0  9G10G12G26G29G05G04G25G02G30
 -37392582.91046 -27292420.63343  22673590.0234                   22673588.2934
 -36471629.54747 -27456801.98445  20914832.1174   20914829.9494
  13301053.211 5                  24342569.586
   2572538.03146   2040414.06343  23196352.8674                   23196351.9414
 -35359525.50847 -27403755.96946  20148671.5004                   20148669.1484
 -50984629.08245 -37634910.12542  24450654.4144                   24450655.0234
 -17288765.39147 -13430390.45745  21587264.6564                   21587264.5204
 -51542170.36747 -40012706.18445  21220288.1884                   21220284.0084
 -14957787.25447  -9960465.44944  21615137.1254                   21615135.6024
 11  8 23  1 42  0.0000000  0  9G10G12G26G29G05G04G25G02G30
 -37385494.62546 -27286897.29743  22674937.4844                   22674936.7544
 -36519254.80147 -27493912.58645  20905769.4774   20905767.3284
  13119069.957 5                  24307939.172
   2401156.71246   1906870.23843  23163739.9694                   23163739.9614
 -35444869.43447 -27470257.71546  20132430.9614                   20132428.9494
 -50994644.33245 -37642714.08242  24448748.8674                   24448749.8874
 -17401989.71147 -13518617.19145  21565718.4534                   21565718.2704
 -51596178.22747 -40054790.21945  21210010.7734                   21210006.6054
 -15060083.70347 -10040176.96544  21595670.3054                   21595669.4574
 11  8 23  1 42 30.0000000  0  9G10G12G26G29G05G04G25G02G30
 -37378120.07846 -27281150.87143  22676342.2034                   22676339.9694
 -36566347.46147 -27530608.16445  20896808.1564   20896805.4064
  12937019.836 5                  24273294.820
   2229786.52046   1773335.05144  23131129.9534                   23131128.5274
 -35529637.89547 -27536311.03146  20116300.3674                   20116297.8164
 -51004715.328 5                  24446831.328
 -17514635.75847 -13606393.32445  21544282.5394                   21544282.6134
 -51650078.90247 -40096790.74245  21199753.7664                   21199749.8594
 -15161767.38347 -10119411.00044  21576320.5474                   21576319.5594
 11  8 23  1 43  0.0000000  0  9G10G12G26G29G05G04G25G02G30
 -35795042.20746 -26047583.71143  22977591.6094                   22977589.9454
 -35037488.17647 -26339289.25845  21187740.1484   21187738.3364
  14330331.777 5                  24538434.180
   3633854.62946   2867414.12144  23398315.1024                   23398313.6524
 -34038408.97747 -26374314.44146  20400071.6954                   20400069.3094
 -49439422.016 5                  24744696.328
 -16051279.34847 -12466115.58645  21822750.2424                   21822750.0044
 -50128451.07447 -38911106.70345  21489309.6804                   21489305.8244
 -13687415.05547  -8970565.03144  21856880.7584                   21856879.1994
 11  8 23  1 43 30.0000000  0  9G10G12G26G29G05G04G25G02G30
 -35787104.69546 -26041398.66843  22979103.0234                   22979100.2154
 -35083522.52047 -26375160.17645  21178980.2274   21178977.7114
  14148155.461 6                  24503767.305
   3462509.48046   2733898.43444  23365709.2114                   23365707.9884
 -34122030.33647 -26439473.91846  20384159.0784                   20384156.8984
 -49449606.50415                  24742758.867
 -16162768.58647 -12552990.30145  21801534.6414                   21801534.4264
 -50182139.94147 -38952942.18445  21479093.3984                   21479089.1294
 -13787874.83647  -9048845.36744  21837764.2814                   21837762.4694
 11  8 23  1 44  0.0000000  0  9G10G12G26G29G05G04G25G02G30
 -35778890.24246 -26034997.76243  22980665.1334                   22980663.2854
 -35129030.46947 -26410620.91445  21170320.3134   21170317.8984
  13965920.805 5                  24469089.070
   3291179.21146   2600394.34044  23333105.7664                   23333105.1724
 -34205079.26647 -26504187.33646  20368355.5944                   20368353.0084
 -49459848.13315                  24740809.063
 -16273678.40247 -12639413.53145  21780428.9144                   21780428.6804
 -50235723.57447 -38994695.64845  21468896.9454                   21468892.0704
 -13887722.57447  -9126648.80944  21818763.9534                   21818762.2194
 11  8 23  1 44 30.0000000  0  9G10G12G26G29G05G04G25G02G30
 -35770401.42246 -26028383.08243  22982280.4454                   22982279.0634
 -35174013.27347 -26445672.45345  21161760.6954   21161758.1804
  13783630.863 5                  24434399.875
   3119865.68446   2466903.27744  23300505.9454                   23300504.9654
 -34287556.24247 -26568455.08246  20352660.6094                   20352658.1994
 -49470146.801 5                  24738848.594
 -16384007.90647 -12725384.56245  21759434.1094                   21759434.2234
 -50289202.50447 -39036367.52045  21458719.9064                   21458715.0234
 -13986957.94947  -9203975.07844  21799879.9454                   21799877.9654
 11  8 23  1 45  0.0000000  0  9G10G12G26G29G05G04G25G02G30
 -35761640.43746 -26021556.34443  22983948.1174                   22983946.0634
 -35218471.98847 -26480315.61745  21153300.2034   21153297.9614
  13601289.78946  13136871.01252  24399701.9224                   24399701.9384
   2948570.76646   2333426.71944  23267909.9224                   23267908.6684
 -34369461.47347 -26632277.32046  20337074.8524                   20337072.2384
 -49480501.664 5                  24736880.359
 -16493755.73047 -12810902.32445  21738549.4304                   21738549.7664
 -50342576.40247 -39077957.56245  21448563.4384                   21448558.5354
 -14085580.24647  -9280823.60944  21781112.4614                   21781111.1134
 11  8 23  1 45 30.0000000  0  8G10G12G26G29G05G25G02G30
 -35752609.88746 -26014519.55143  22985665.9384                   22985664.4184
 -35262408.14547 -26514551.60245  21144939.3284   21144937.3324
  13418900.66846  12994749.74642  24364994.3674                   24364994.8094
   2777296.03946   2199965.89143  23235317.0084                   23235315.9694
 -34450795.47747 -26695654.43046  20321597.6254                   20321594.9064
 -16602921.22347 -12895966.34445  21717775.9694                   21717776.0824
 -50395845.50047 -39119465.93445  21438426.3204                   21438422.5554
 -14183589.41447  -9357194.39144  21762461.9844                   21762460.2074
 11  8 23  1 46  0.0000000  0  8G10G12G26G29G05G25G02G30
 -35743313.57446 -26007275.66443  22987435.4614                   22987433.5784
 -35305824.21547 -26548382.31645  21136677.7504   21136675.5434
  13236465.94946  12852592.99642  24330277.9774                   24330278.4884
   2606042.05946   2066521.23443  23202728.0704                   23202727.2934
 -34531559.86347 -26758587.68446  20306228.3284                   20306225.9804
 -16711504.64847 -12980576.78545  21697113.8284                   21697113.7034
 -50449011.51247 -39160894.00445  21428309.5084                   21428304.7704
 -14280986.40647  -9433088.13744  21743927.7974                   21743926.5234
 11  8 23  1 46 30.0000000  0  8G10G12G26G29G05G25G02G30
 -35733752.21346 -25999825.24743  22989254.4384                   22989252.8014
 -35348721.09447 -26581808.46545  21128514.2814   21128512.7384
  13053990.19145  12710404.25842  24295554.0004                   24295554.5234
   2434812.48446   1933095.59043  23170144.7344                   23170143.4734
 -34611753.83647 -26821076.46946  20290967.4694                   20290965.5664
 -16819503.77347 -13064731.92645  21676561.3914                   21676561.5234
 -50502072.08247 -39202239.90245  21418212.1174                   21418208.1454
 -14377769.50847  -9508503.53144  21725510.8204                   21725508.9064
 11  8 23  1 47  0.0000000  0  8G10G12G26G29G05G25G02G30
 -35723924.56246 -25992167.34843  22991124.5234                   22991123.0944
 -35391095.52347 -26614827.51245  21120450.7274   21120449.0704
  12871481.37145  12568189.69142  24260822.5084                   24260823.9224
   2263613.13746   1799693.53143  23137565.7034                   23137565.4104
 -34691373.73447 -26883117.91846  20275816.4384                   20275814.4304
 -16926913.55547 -13148427.84845  21656122.2504                   21656122.8674
 -50555023.67647 -39243500.88345  21408135.7034                   21408131.1994
 -14473934.30147  -9583437.12944  21707211.4384                   21707209.8134
 11  8 23  1 47 30.0000000  0  8G10G12G26G29G05G25G02G30
 -35713834.77046 -25984305.14843  22993044.8754                   22993042.8244
 -35432951.09447 -26647442.25445  21112486.2814   21112484.1054
  12688941.57045  12425951.01242  24226086.2194                   24226087.8244
   2092444.25046   1666315.21143  23104993.4694                   23104993.2384
 -34770422.02047 -26944713.95346  20260774.0704                   20260771.6914
 -17033734.77047 -13231665.13745  21635794.2734                   21635795.0004
 -50607867.89847 -39284678.18445  21398079.8674                   21398075.5864
 -14569482.28947  -9657890.10544  21689029.2734                   21689027.4344
 11  8 23  1 48  0.0000000  0  8G10G12G26G29G05G25G02G30
 -35703484.44546 -25976239.97743  22995014.1094                   22995012.7814
 -35474287.73847 -26679652.64145  21104620.2584   21104617.9344
  12506374.76645  12283691.28542  24191345.6414                   24191346.9614
   1921308.68046   1532962.84443  23072427.2734                   23072426.9344
 -34848898.12547 -27005864.14146  20245840.7734                   20245838.0944
 -17139965.74647 -13314442.50445  21615579.6334                   21615580.3634
 -50660604.12147 -39325771.35545  21388044.2664                   21388040.3634
 -14664412.34047  -9731861.55944  21670964.4844                   21670962.9144
 11  8 23  1 48 30.0000000  0  8G10G12G26G29G05G25G02G30
 -35692881.22746 -25967977.73443  22997031.6254                   22997030.2814
 -35515112.75847 -26711464.34845  21096851.2894   21096849.1334
  12323779.47345  12141409.43442  24156599.0314                   24156599.3914
   1750203.17246   1399633.88744  23039867.9694                   23039866.3404
 -34926807.70347 -27066572.87546  20231014.7034                   20231012.6254
 -17245610.81647 -13396763.32045  21595476.3674                   21595476.6684
 -50713237.29347 -39366784.21545  21378029.0784                   21378024.3874
 -14758729.45747  -9805355.40244  21653016.2424                   21653014.7114
 11  8 23  1 49  0.0000000  0  8G10G12G26G29G05G25G02G30
 -35682025.23846 -25959518.52743  22999098.0634                   22999096.1564
 -35555425.44547 -26742876.84445  21089180.0004   21089178.0634
  12141161.55545  11999109.93442  24121847.0314                   24121848.6914
   1579131.84846   1266331.56343  23007312.9614                   23007312.7154
 -35004149.46947 -27126839.16046  20216297.3054                   20216294.9344
 -17350667.00047 -13478625.27345  21575484.3524                   21575484.7384
 -50765765.61347 -39407715.36345  21368032.5704                   21368028.4654
 -14852431.32447  -9878369.84044  21635185.5634                   21635184.2114
 11  8 23  1 49 30.0000000  0  8G10G12G26G29G05G25G02G30
 -35670922.46946 -25950867.02743  23001210.9454                   23001209.1764
 -35595230.40647 -26773893.70345  21081605.4304   21081603.3674
  11958521.27745  11856792.93442  24087091.8674                   24087093.9574
   1408093.10246   1133054.65643  22974766.2584                   22974764.9064
 -35080927.18447 -27186665.92246  20201686.8204                   20201684.3524
 -17455137.02047 -13560030.46545  21555604.6484                   21555604.8954
 -50818192.26247 -39448567.28945  21358056.4144                   21358051.9774
 -14945521.32847  -9950907.49644  21617471.5314                   21617469.4534
 11  8 23  1 50  0.0000000  0  8G10G12G26G29G05G25G02G30
 -35659575.32846 -25942025.11743  23003369.5004                   23003368.2974
 -35634529.62547 -26804516.48445  21074126.9064   21074124.5434
  11775861.94945  11714461.09842  24052332.6254                   24052334.8484
   1237089.10246    999804.84844  22942224.7424                   22942224.4964
 -35157141.52747 -27246053.69946  20187183.6414                   20187181.3014
 -17559020.19547 -13640978.38745  21535836.3914                   21535836.3204
 -50870517.42247 -39489340.13745  21348099.5394                   21348094.9774
 -15037999.31647 -10022968.25844  21599873.5084                   21599870.9614
 11  8 23  1 50 30.0000000  0  8G10G12G26G29G05G25G02G30
 -35647988.03146 -25932996.05943  23005576.1954                   23005573.0554
 -35673326.77747 -26834748.03545  21066744.0004   21066742.0704
  11593185.75445  11572116.11742  24017571.4384                   24017572.9414
   1066119.70346    866581.98444  22909690.9064                   22909689.7464
 -35232794.90647 -27305004.36746  20172787.6024                   20172784.9734
 -17662317.60947 -13721469.86745  21516179.6484                   21516179.7934
 -50922742.42247 -39530034.94545  21338161.9064                   21338156.8324
 -15129867.09447 -10094553.52044  21582391.6644                   21582390.1094
 11  8 23  1 51  0.0000000  0  8G10G12G26G29G05G25G02G30
 -35636164.34846 -25923782.75843  23007824.7734                   23007823.0634
 -35711624.23447 -26864590.22345  21059456.5084   21059454.3324
  11410494.67245  11429759.52742  23982806.2504                   23982807.1844
    895185.70746    733386.72744  22877162.2424                   22877161.6994
 -35307889.77047 -27363519.82446  20158497.3364                   20158494.4344
 -17765029.71947 -13801505.26245  21496633.9774                   21496634.0904
 -50974868.80147 -39570652.89845  21328242.0004                   21328237.6484
 -15221125.75047 -10165664.15244  21565025.6564                   21565023.6844
 11  8 23  1 51 30.0000000  0  8G10G12G26G29G05G25G02G30
 -34048686.33646 -24686786.89843  23309910.9534                   23309910.1684
 -34174001.88747 -25666442.93445  21352056.7034   21352054.5124
  12803219.25446  12514999.59442  24247832.9774                   24247834.0984
   2299715.75446   1827825.77044  23144436.5634                   23144434.8874
 -33807003.14147 -26193997.75046  20444106.2734                   20444103.9024
 -16291731.86347 -12653480.96145  21776993.2034                   21776993.4064
 -49451474.09447 -38383592.09445  21618134.2814                   21618130.0664
 -13736351.61747  -9008697.28144  21847569.1484                   21847566.9964
 11  8 23  1 52  0.0000000  0  8G10G12G26G29G05G25G02G30
 -34036396.11346 -24677210.11343  23312250.7274                   23312249.0354
 -34211303.76247 -25695509.34845  21344957.9304   21344955.5824
  12620510.71546  12372629.44142  24213064.1724                   24213064.5704
   2128860.02346   1694691.50044  23111922.8444                   23111922.2274
 -33880981.04347 -26251642.85246  20430029.2734                   20430026.4734
 -16393270.46947 -12732601.94145  21757670.7584                   21757671.1254
 -49503401.89847 -38424055.32845  21608252.8134                   21608248.1524
 -13826391.04347  -9078857.87144  21830435.0864                   21830433.5394
 11  8 23  1 52 30.0000000  0  8G10G12G26G29G05G25G02G30
 -34023879.03546 -24667456.55143  23314633.0234                   23314631.2934
 -34248113.66047 -25724192.38345  21337953.3834   21337951.5944
  12437796.13745  12230254.50842  24178294.6484                   24178295.5234
   1958043.35246   1561587.67244  23079417.7814                   23079416.6294
 -33954404.48047 -26308855.89846  20416056.9384                   20416054.3754
 -16494224.32047 -12811267.28945  21738460.0864                   21738460.3014
 -49555233.44547 -38464443.53945  21598389.4614                   21598385.1134
 -13915823.77747  -9148545.73044  21813415.1954                   21813413.8484
 11  8 23  1 53  0.0000000  0  8G10G12G26G29G05G25G02G30
 -34011137.00446 -24657527.67643  23317057.5394                   23317056.2304
 -34284432.66447 -25752492.91045  21331041.7584   21331040.1174
  12255079.74246  12087878.18442  24143524.5164                   24143525.8364
   1787268.51246   1428516.42244  23046920.6414                   23046919.2154
 -34027273.64847 -26365637.05146  20402190.9384                   20402187.8914
 -16594592.28947 -12889476.09845  21719360.3754                   21719360.8674
 -49606967.95747 -38504756.14845  21588545.1414                   21588540.6054
 -14004649.43047  -9217760.52744  21796512.5634                   21796511.7234
 11  8 23  1 53 30.0000000  0  8G10G12G26G29G05G25G02G30
 -33998172.57446 -24647425.53143  23319523.9774                   23319523.0004
 -34320261.96947 -25780411.84845  21324224.2504   21324221.8714
  12072365.37545  11945503.45742  24108754.9614                   24108756.2894
   1616537.77346   1295479.54744  23014431.1954                   23014430.5274
 -34099589.11747 -26421986.75446  20388429.6724                   20388426.6884
 -16694373.47347 -12967227.68045  21700373.2974                   21700373.4414
 -49658605.13347 -38544992.90645  21578718.7974                   21578714.2234
 -14092867.78147  -9286502.09444  21779725.7734                   21779724.1884
 11  8 23  1 54  0.0000000  0  8G10G12G26G29G05G25G02G30
 -33984987.37146 -24637151.35943  23322033.6564                   23322031.5434
 -34355602.87947 -25807950.21545  21317498.8134   21317496.6684
  11889657.39145  11803133.68042  24073986.4534                   24073987.7584
   1445853.13346   1162478.59044  22981951.5634                   22981949.7384
 -34171351.12547 -26477905.18046  20374773.4454                   20374770.8554
 -16793566.77047 -13044521.17645  21681497.2194                   21681497.8244
 -49710143.94547 -38585153.01645  21568910.6484                   21568906.8524
 -14180478.29347  -9354770.03144  21763054.3204                   21763052.1954
 11  8 23  1 54 30.0000000  0  8G10G12G26G29G05G25G02G30
 -33971583.43046 -24626706.73043  23324584.1334                   23324582.7894
 -34390457.32847 -25835109.52745  21310866.3134   21310864.3204
  11706959.37945  11660771.72742  24039220.9844                   24039221.3014
   1275217.46946   1029515.79343  22949480.0944                   22949478.8284
 -34242560.55947 -26533393.03146  20361222.4774                   20361220.2584
 -16892171.77747 -13121356.25845  21662733.5084                   21662733.3794
 -49761584.63347 -38625236.67245  21559122.0554                   21559118.0784
 -14267481.27047  -9422564.57844  21746497.6564                   21746496.1214
 11  8 23  1 55  0.0000000  0  8G10G12G26G29G05G25G02G30
 -33957967.03946 -24616096.57043  23327175.5164                   23327174.1134
 -34424830.27747 -25861893.64545  21304325.7114   21304323.1994
  11524271.54745  11518417.69542  24004456.0474                   24004456.5514
   1104629.10246    896589.84843  22917017.9774                   22917017.2584
 -34313221.62547 -26588453.57846  20347776.4924                   20347773.8364
 -16990191.34047 -13197735.15645  21644081.1024                   21644081.2544
 -49812930.46547 -38665246.40645  21549351.3204                   21549347.4534
 -14353880.24247  -9489888.47344  21730057.0084                   21730055.2194
 11  8 23  1 55 30.0000000  0  8G10G12G26G29G05G25G02G30
 -33944139.32046 -24605321.73442  23329806.7734                   23329804.8914
 -34458722.35547 -25888303.06645  21297875.6094   21297873.8164
  11341599.08246  11376075.57042  23969694.3054                   23969694.8164
    934091.29746    763703.29343  22884565.9304                   22884564.7034
 -34383333.92247 -26643086.51646  20334434.2504                   20334431.5474
 -17087623.90647 -13273656.64545  21625540.1334                   21625540.1884
 -49864180.12547 -38705181.20745  21539599.3364                   21539594.6564
 -14439674.15247  -9556740.87544  21713730.7344                   21713728.7624
 11  8 23  1 56  0.0000000  0  8G10G12G26G29G05G25G02G30
 -33930103.28946 -24594384.51243  23332477.3134                   23332475.6454
 -34492135.71147 -25914339.44945  21291517.1254   21291515.0044
  11158945.04346  11233747.90243  23934936.3444                   23934936.8204
    763605.64846    630857.39844  22852123.3364                   22852122.1954
 -34452898.88747 -26697292.96146  20321196.8914                   20321193.5784
 -17184469.48447 -13349120.74645  21607110.9694                   21607111.3014
 -49915334.17247 -38745041.49245  21529864.3834                   21529860.2384
 -14524863.89147  -9623122.50844  21697519.7344                   21697517.7074
 11  8 23  1 56 30.0000000  0  8G10G12G26G29G05G25G02G30
 -33915860.87946 -24583286.54343  23335187.9144                   23335186.1604
 -34525071.82847 -25940003.95345  21285250.0004   21285248.0164
  10976313.55146  11091437.71543  23900183.3204                   23900183.9384
    593174.77346    498054.16044  22819692.1884                   22819690.2584
 -34521917.23447 -26751073.46946  20308062.5234                   20308059.7704
 -17280727.25047 -13424126.81645  21588793.8754                   21588793.8164
 -49966391.99647 -38784826.78945  21520148.7894                   21520144.2154
 -14609449.12547  -9689033.10244  21681423.5084                   21681421.9264
 11  8 23  1 57  0.0000000  0  8G10G12G26G29G05G25G02G30
 -33901416.84046 -24572031.48843  23337935.4774                   23337935.6024
 -34557535.09047 -25965300.00445  21279072.6174   21279070.0474
  10793705.86745  10949146.08643  23865433.3054                   23865434.2704
    422798.00446    365293.09844  22787269.7034                   22787268.4344
 -34590392.38747 -26804430.71146  20295032.5314                   20295029.7194
 -17376399.48847 -13498676.62545  21570588.1724                   21570588.6174
 -50017356.15247 -38824539.10245  21510450.6414                   21510446.1134
 -14693432.90647  -9754475.02344  21665442.0704                   21665439.9694
 11  8 23  1 57 30.0000000  0  8G10G12G26G29G05G25G02G30
 -33886773.93046 -24560621.42243  23340723.7734                   23340722.1094
 -34589528.21147 -25990229.70745  21272984.3754   21272981.9024
  10611125.05145  10806875.42642  23830689.1484                   23830690.5944
    252476.93446    232575.42644  22754858.9774                   22754857.5274
 -34658325.66047 -26857365.71146  20282105.0944                   20282102.3404
 -17471486.40647 -13572770.32445  21552493.4694                   21552493.3834
 -50068227.02047 -38864178.73845  21500770.4534                   21500765.7814
 -14776816.07847  -9819448.93744  21649574.9224                   21649572.7384
 11  8 23  1 58  0.0000000  0  8G10G12G26G29G05G25G02G30
 -33871934.83246 -24549058.48042  23343546.7034                   23343545.9774
 -34621053.28947 -26014794.69945  21266985.7034   21266982.6564
  10428574.85945  10664628.62942  23795950.5864                   23795951.9304
     82213.39546     99902.59444  22722459.1644                   22722457.1644
 -34725718.21147 -26909879.37146  20269280.5704                   20269278.2304
 -17565987.82447 -13646407.80945  21534510.0554                   21534510.7704
 -50119004.56247 -38903745.63745  21491106.7814                   21491102.9884
 -14859599.12147  -9883955.21544  21633821.5164                   21633820.0124
 11  8 23  1 58 30.0000000  0  8G10G12G26G29G05G25G02G30
 -33856903.70746 -24537345.88742  23346406.8834                   23346405.9804
 -34652113.61347 -26038997.54745  21261074.7974   21261072.7274
  10246057.45745  10522407.33643  23761219.2504                   23761219.9924
    -87991.78146    -32724.77044  22690070.4384                   22690068.4614
 -34792572.69547 -26961973.75446  20256558.8914                   20256556.0434
 -17659905.02747 -13719590.04745  21516638.7194                   21516638.6764
 -50169690.27747 -38943240.97745  21481462.4454                   21481457.3364
 -14941784.06647  -9947995.44944  21618182.3594                   21618180.7234
 11  8 23  1 59  0.0000000  0  8G10G12G26G29G05G25G02G30
 -33841677.37146 -24525481.23443  23349304.7734                   23349303.1564
 -34682705.28547 -26062835.21945  21255252.6644   21255251.2974
  10063582.23445  10380218.97743  23726494.7584                   23726495.4804
   -258130.98446   -165300.70344  22657692.8754                   22657692.0084
 -34858884.49247 -27013645.28146  20243940.2584                   20243937.4184
 -17753232.08247 -13792312.41845  21498879.4384                   21498879.6844
 -50220278.45347 -38982660.32844  21471835.6484                   21471831.4734
 -15023365.47747 -10011565.37944  21602657.8444                   21602656.2464
 11  8 23  1 59 30.0000000  0  8G10G12G26G29G05G25G02G30
 -33826261.71146 -24513469.00043  23352237.4534                   23352237.2234
 -34712833.71147 -26086311.92245  21249519.7974   21249517.6174
   9881149.37945  10238063.61343  23691779.2814                   23691779.7814
   -428205.22346   -297826.00444  22625329.5234                   22625327.9694
 -34924658.30147 -27064897.58246  20231423.5554                   20231420.9064
 -17845972.26247 -13864577.48845  21481230.7424                   21481231.3984
 -50270772.10547 -39022006.01645  21462227.2274                   21462222.7074
 -15104347.45347 -10074668.22744  21587247.8444                   21587245.9264
 11  8 23  2  0  0.0000000  0  8G10G12G26G29G05G25G02G30
 -33810661.73846 -24501313.15243  23355206.8914                   23355205.4574
 -34742504.09847 -26109431.70745  21243874.9384   21243871.6764
   9698759.80946  10095941.96143  23657071.8054                   23657072.5474
   -598215.72346   -430301.66044  22592977.1174                   22592976.2194
 -34989897.74247 -27115733.48846  20219008.9534                   20219006.4924
 -17938128.33247 -13936387.41045  21463694.7274                   21463694.5744
 -50321174.09447 -39061280.27045  21452635.8834                   21452631.5634
 -15184733.36347 -10137306.58644  21571950.7274                   21571948.7624
 11  8 23  2  0 30.0000000  0  8G10G12G26G29G05G25G02G30
 -32219461.32046 -23261416.65642  23658002.4534                   23658000.5744
 -33196298.05147 -24904595.83645  21538107.1884   21538105.0824
  11091842.52746  11181461.06343  23922166.4534                   23922166.5394
    807264.55546    664877.80944  22860431.3134                   22860430.1684
 -33479182.77347 -25938552.98846  20506488.1334                   20506485.7384
 -16454277.91447 -12780140.30945  21746061.6024                   21746062.1024
 -48796063.65647 -37872882.50844  21742854.1954                   21742850.3874
 -13689101.89547  -8971879.45344  21856560.0784                   21856558.5984
 11  8 23  2  1  0.0000000  0  8G10G12G26G29G05G25G02G30
 -32203500.09046 -23248979.35942  23661038.8594                   23661037.5514
 -33225057.95347 -24927006.15645  21532634.6174   21532632.0864
  10909551.09045  11039415.83243  23887478.0474                   23887478.3594
    637388.46946    532506.89844  22828104.9454                   22828104.1214
 -33543356.98447 -25988558.84846  20494276.3594                   20494273.8404
 -16545265.22747 -12851039.49645  21728747.6884                   21728747.6374
 -48846282.20747 -37912013.82845  21733298.0944                   21733293.9144
 -13768297.07847  -9033589.99244  21841490.1804                   21841487.5474
 11  8 23  2  1 30.0000000  0  8G10G12G26G29G05G25G02G30
 -32187362.74646 -23236404.84443  23664110.6254                   23664108.6724
 -33253366.82047 -24949065.02745  21527247.8284   21527245.0944
  10727313.07846  10897412.28942  23852798.9064                   23852799.0474
    467581.31346    400189.68844  22795791.6644                   22795790.7194
 -33607001.47347 -26038151.95346  20482165.1334                   20482162.5354
 -16635669.10547 -12921484.06645  21711544.7344                   21711544.3284
 -48896409.76647 -37951074.24645  21723759.0554                   21723755.0314
 -13846898.92647  -9094838.15644  21826532.3914                   21826530.1914
 11  8 23  2  2  0.0000000  0  8G10G12G26G29G05G25G02G30
 -32171051.68746 -23223694.89843  23667214.1724                   23667211.9064
 -33281226.25447 -24970773.68445  21521945.7344   21521943.5514
  10545132.61746  10755453.57043  23818132.3524                   23818131.2234
    297845.81346    267928.31644  22763492.3524                   22763490.8244
 -33670117.10947 -26087332.94946  20470154.7194                   20470152.2704
 -16725489.34447 -12991473.84445  21694452.1804                   21694452.3324
 -48946446.07447 -37990063.56245  21714238.1334                   21714233.6254
 -13924907.82047  -9155624.28944  21811687.4694                   21811685.8754
 11  8 23  2  2 30.0000000  0  8G10G12G26G29G05G25G02G30
 -32154568.86346 -23210851.15243  23670351.4534                   23670348.8164
 -33308638.23447 -24992133.68045  21516730.0864   21516727.5124
  10363013.89546  10613542.94143  23783475.2034                   23783474.8594
    128184.60246    135724.82444  22731206.6094                   22731205.7034
 -33732704.79347 -26136102.56246  20458244.8054                   20458241.8164
 -16814725.38747 -13061008.40645  21677470.2734                   21677471.1214
 -48996390.47747 -38028981.27345  21704733.5164                   21704729.2974
 -14002323.93447  -9215948.52744  21796955.8914                   21796953.9774
 11  8 23  2  3  0.0000000  0  8G10G12G26G29G05G25G02G30
 -32137918.07046 -23197876.53143  23673518.7894                   23673517.6094
 -33335606.09447 -25013147.60545  21511597.5004   21511595.5474
  10180959.22746  10471682.27742  23748830.8524                   23748830.7304
    -41401.82846      3579.59044  22698935.1174                   22698934.1644
 -33794767.14847 -26184462.82446  20446434.4614                   20446432.2814
 -16903378.93447 -13130089.06645  21660600.9924                   21660601.2974
 -49046244.63347 -38067828.64544  21695247.0234                   21695242.6214
 -14079149.56647  -9275812.61344  21782336.8984                   21782334.3954
 11  8 23  2  3 30.0000000  0  9G10G12G26G29G05G15G25G02G30
 -32121106.55946 -23184776.66042  23676719.1564                   23676717.3364
 -33362136.78947 -25033820.89145  21506549.3754   21506546.7154
   9998967.28146  10329870.49242  23714199.8284                   23714199.2114
   -210916.55546   -128509.77044  22666677.0394                   22666676.3484
 -33856310.58647 -26232418.73446  20434722.9614                   20434720.7504
                                  21524725.02015                  24617194.414
 -16991454.99247 -13198719.75845  21643839.9844                   21643840.4264
 -49096013.15647 -38106609.29744  21685776.1884                   21685771.7624
 -14155390.47747  -9335221.10244  21767827.8594                   21767826.6374
 11  8 23  2  4  0.0000000  0  9G10G12G26G29G05G15G25G02G30
 -32104138.52746 -23171554.84842  23679946.5234                   23679946.5124
 -33388234.73847 -25054156.96945  21501582.5634   21501580.5864
   9817040.48445  10188109.41842  23679578.7814                   23679579.8284
   -380358.53146   -260542.43744  22634434.1024                   22634432.5904
 -33917337.91447 -26279972.48846  20423110.5704                   20423107.7464
  21343813.57845  17095178.43853  24582768.0784                   24582769.0124
 -17078955.02347 -13266901.59445  21627190.0634                   21627190.0594
 -49145697.36747 -38145324.25845  21676321.1414                   21676317.0824
 -14231048.77047  -9394175.61744  21753431.0784                   21753428.7504
 11  8 23  2  4 30.0000000  0  9G10G12G26G29G05G15G25G02G30
 -32087014.80946 -23158211.71143  23683205.2814                   23683204.7274
 -33413900.38347 -25074156.19545  21496699.0864   21496696.5664
   9635183.85545  10046403.06342  23644972.4694                   23644973.6054
   -549724.53546   -392515.91444  22602205.0474                   22602203.4224
 -33977848.66847 -26327123.70746  20411594.9454                   20411592.9384
  21162779.58246  16954113.14143  24548318.3444                   24548319.4694
 -17165877.87947 -13334633.68745  21610648.7974                   21610648.5944
 -49195295.92247 -38183972.46545  21666882.6644                   21666878.5944
 -14306124.00847  -9452675.78544  21739144.7894                   21739142.4534
 11  8 23  2  5  0.0000000  0  9G10G12G26G29G05G15G25G02G30
 -32069737.00846 -23144748.51643  23686493.7894                   23686492.3244
 -33439134.56247 -25093819.21145  21491897.1644   21491894.7304
   9453402.26645   9904755.12942  23610380.8754                   23610381.1564
   -719011.03946   -524427.43744  22569990.7424                   22569989.0634
 -34037843.26247 -26373872.72746  20400178.4534                   20400175.9694
  20981627.03146  16812955.47343  24513845.9304                   24513847.4144
 -17252222.51647 -13401915.21145  21594218.0164                   21594218.1134
 -49244807.19947 -38222552.66845  21657461.9144                   21657457.0904
 -14380615.85947  -9510721.36344  21724968.6804                   21724967.8594
 11  8 23  2  5 30.0000000  0  9G10G12G26G29G05G15G25G02G30
 -32052304.98045 -23131165.22342  23689810.6094                   23689810.3054
 -33463937.60247 -25113146.27745  21487177.2894   21487174.9104
   9271701.74646   9763170.40643  23575804.7034                   23575804.4774
   -888213.84846   -656273.75444  22537792.1484                   22537791.0164
 -34097321.03947 -26420219.02746  20388860.3914                   20388857.9924
  20800360.73845  16671709.18843  24479351.2814                   24479353.5824
 -17337987.02347 -13468744.69945  21577897.1884                   21577897.5634
 -49294229.18747 -38261063.29745  21648057.1174                   21648051.9064
 -14454522.94547  -9568311.30544  21710904.8594                   21710902.9964
 11  8 23  2  6  0.0000000  0  9G10G12G26G29G05G15G25G02G30
 -32034722.43746 -23117464.54742  23693156.5784                   23693155.9654
 -33488312.74247 -25132139.91045  21482538.9924   21482536.6254
   9090084.84046   9621650.78942  23541244.3914                   23541243.8794
  -1057331.98846   -788054.10244  22505609.2974                   22505608.5474
 -34156284.57447 -26466164.62946  20377640.0314                   20377637.4774
  20618982.33645  16530375.55143  24444836.8134                   24444837.4264
 -17423172.81647 -13535123.25445  21561687.2974                   21561687.1484
 -49343562.95747 -38299505.17245  21638669.2424                   21638664.6604
 -14527847.41847  -9625447.25444  21696951.4384                   21696950.1524
 11  8 23  2  6 30.0000000  0  9G10G12G26G29G05G15G25G02G30
 -32016993.34046 -23103649.67642  23696530.8524                   23696529.3014
 -33512263.84447 -25150803.12945  21477980.5784   21477978.6484
   8908553.60546   9480197.98043  23506700.1804                   23506700.1684
  -1226364.93447   -919768.04744  22473443.6334                   22473442.5824
 -34214736.97347 -26511711.93745  20366516.3284                   20366514.0904
  20437492.80546  16388955.30543  24410299.9454                   24410301.1214
 -17507781.80147 -13601052.32445  21545586.5634                   21545587.1914
 -49392810.00047 -38337879.47745  21629297.6174                   21629293.2774
 -14600591.85247  -9682131.23844  21683109.2194                   21683107.2734
 11  8 23  2  7  0.0000000  0  9G10G12G26G29G05G15G25G02G30
 -31999118.46546 -23089721.19142  23699931.6334                   23699930.9694
 -33535791.31147 -25169136.23145  21473503.6024   21473501.9694
   8727113.75446   9338816.37143  23472172.8834                   23472172.8914
  -1395308.78546  -1051412.57444  22441295.5474                   22441294.0434
 -34272677.55547 -26556860.43046  20355491.1254                   20355488.8554
  20255896.96545  16247452.19143  24375743.2274                   24375744.0944
 -17591812.46947 -13666530.77345  21529596.0394                   21529596.3674
 -49441968.50847 -38376184.78545  21619943.0314                   21619938.5634
 -14672755.45747  -9738362.60944  21669376.9304                   21669374.7734
 11  8 23  2  7 30.0000000  0  9G10G12G26G29G05G15G25G02G30
 -31981100.85946 -23075681.48042  23703360.8524                   23703359.7194
 -33558898.52747 -25187141.87145  21469106.6484   21469104.3754
   8545768.28946   9197508.28143  23437664.2194                   23437663.6764
  -1564162.03946  -1182986.49644  22409163.4144                   22409161.9184
 -34330108.52347 -26601611.82046  20344561.9694                   20344559.7934
  20074197.11745  16105868.05142  24341167.6334                   24341167.4024
 -17675265.80947 -13731559.35545  21513715.7194                   21513715.3954
 -49491038.78147 -38414421.33644  21610604.5784                   21610600.3554
 -14744339.87947  -9794142.68744  21655754.8364                   21655752.8134
 11  8 23  2  8  0.0000000  0  9G10G12G26G29G05G15G25G02G30
 -31962942.49646 -23061532.12542  23706815.9224                   23706815.3164
 -33581587.42647 -25204821.54745  21464789.7114   21464787.4064
   8364521.25446   9056276.91443  23403174.2424                   23403173.8094
  -1732922.21146  -1314487.87944  22377049.4844                   22377047.7974
 -34387031.34847 -26645967.26245  20333730.5164                   20333728.0744
  19892396.10945  15964205.08642  24306571.7274                   24306571.6604
 -17758141.92647 -13796138.15645  21497944.8914                   21497944.7234
 -49540020.38747 -38452588.81645  21601284.1724                   21601279.5394
 -14815345.89847  -9849472.06644  21642243.0234                   21642240.9884
 11  8 23  2  8 30.0000000  0  9G10G12G26G29G05G15G25G02G30
 -31944646.22346 -23047275.34443  23710297.5474                   23710296.8054
 -33603860.40647 -25222177.14545  21460550.7584   21460548.8244
   8183376.18446   8915124.98043  23368702.6334                   23368702.8164
  -1901587.42646  -1445915.28544  22344953.9614                   22344951.8134
 -34443447.89547 -26689928.18445  20322994.4454                   20322991.8324
  19710496.27745  15822465.19542  24271957.3054                   24271957.6644
 -17840441.46547 -13860267.66845  21482283.7114                   21482283.7544
 -49588913.65247 -38490687.44544  21591979.6564                   21591975.7854
 -14885774.70747  -9904351.66044  21628840.6094                   21628838.6174
 11  8 23  2  9  0.0000000  0  9G10G12G26G29G05G15G25G02G30
 -31926216.18746 -23032914.27342  23713805.1564                   23713804.2704
 -33625722.01647 -25239212.18445  21456390.6484   21456388.6054
   8002334.92246   8774053.94543  23334252.5084                   23334251.2934
  -2070157.58646  -1577268.61744  22312875.7114                   22312874.0514
 -34499361.34847 -26733497.10246  20312354.7194                   20312352.4264
  19528498.99645  15680649.29342  24237323.4844                   24237325.5704
 -17922166.73447 -13923949.69545  21466731.6954                   21466731.6844
 -49637720.42247 -38528718.69544  21582692.3054                   21582688.3404
 -14955629.46547  -9958783.94944  21615547.4064                   21615545.5744
 11  8 23  2  9 30.0000000  0  9G10G12G26G29G05G15G25G02G30
 -30332232.69146 -21790849.17242  24017129.9534                   24017128.8984
 -32071750.98447 -24028325.67645  21752101.8204   21752099.9144
   9396830.10246   9860673.63343  23599616.4534                   23599614.6804
   -663201.82446   -480939.39144  22580610.2664                   22580609.1374
 -32979348.80147 -25549071.72346  20601603.7194                   20601601.0354
  20921835.83645  16766366.43842  24502466.8054                   24502468.8204
 -16427892.69947 -12759580.31645  21751082.8204                   21751082.8134
 -48111015.89847 -37339078.79745  21873214.9224                   21873210.3954
 -13449486.17247  -8785165.81644  21902156.7034                   21902155.4494
 11  8 23  2 10  0.0000000  0  9G10G12G26G29G05G15G25G02G30
 -30313539.38345 -21776282.93442  24020686.7664                   24020686.0594
 -32092793.40647 -24044722.39145  21748097.0784   21748095.2464
   9216010.75446   9719775.55143  23565206.6024                   23565206.6214
   -831572.03546   -612136.90244  22548570.8754                   22548568.9534
 -33034257.73447 -25591857.87546  20591154.7344                   20591152.0274
  20739654.70345  16624407.27342  24467798.1334                   24467800.4064
 -16508467.87947 -12822366.16045  21735750.1414                   21735749.9024
 -48159645.74647 -37376972.17244  21863960.4614                   21863956.6604
 -13518193.19547  -8838703.76244  21889082.5084                   21889080.6564
 11  8 23  2 10 30.0000000  0  9G10G12G26G29G05G15G25G02G30
 -30294717.73445 -21761616.75842  24024268.4694                   24024267.9304
 -32113429.74647 -24060802.68445  21744170.4534   21744168.4454
   9035308.32046   9578968.52743  23530820.2194                   23530819.5664
   -999838.60946   -743253.65244  22516550.4224                   22516548.6524
 -33088666.27347 -25634254.12546  20580801.5474                   20580798.5634
  20557386.22345  16482380.09042  24433113.4534                   24433115.7774
 -16588468.47347 -12884704.27345  21720526.0394                   21720526.3834
 -48208186.69547 -37414796.27044  21854723.7274                   21854719.5084
 -13586327.75847  -8891795.64144  21876116.9144                   21876115.5744
 11  8 23  2 11  0.0000000  0  9G10G12G26G29G05G15G25G02G30
 -30275772.66845 -21746854.41442  24027873.9064                   24027873.2234
 -32133665.16847 -24076570.54745  21740319.8134   21740317.4614
   8854724.22746   9438253.72743  23496456.0704                   23496455.9964
  -1168002.09846   -874290.08644  22484550.3134                   22484547.9614
 -33142578.74647 -25676263.81646  20570542.2734                   20570539.2194
  20375030.73046  16340285.05942  24398412.8754                   24398413.9844
 -16667897.45747 -12946596.97745  21705411.5234                   21705411.6724
 -48256641.00447 -37452552.87944  21845503.3754                   21845498.7734
 -13653893.51647  -8944444.28144  21863259.9224                   21863257.7934
 11  8 23  2 11 30.0000000  0  9G10G12G26G29G05G15G25G02G30
 -30256706.01246 -21731997.31642  24031502.4144                   24031501.7074
 -32153500.97747 -24092027.05145  21736545.3204   21736543.1174
   8674262.98846   9297634.65243  23462115.2894                   23462114.4654
  -1336059.35247  -1005243.73044  22452569.7664                   22452567.7504
 -33195996.32447 -25717887.89145  20560376.7974                   20560374.0554
  20192591.83646  16198125.10243  24363694.9224                   24363696.4494
 -16746754.71547 -13008044.16845  21690405.4614                   21690405.7734
 -48305008.06247 -37490241.48445  21836299.2584                   21836294.9924
 -13720890.99647  -8996650.12144  21850510.7814                   21850509.3754
 11  8 23  2 12  0.0000000  0  9G10G12G26G29G05G15G25G02G30
 -30237520.00446 -21717047.20342  24035152.7584                   24035152.3284
 -32172939.56247 -24107174.00445  21732846.4924   21732844.0634
   8493928.02346   9157113.94943  23427797.8754                   23427798.3014
  -1504008.58646  -1136113.19144  22420609.8444                   22420607.9534
 -33248920.36347 -25759127.37546  20550305.2664                   20550303.0434
  20010072.21145  16055902.19542  24328963.1024                   24328964.5514
 -16825041.02047 -13069046.45745  21675507.6644                   21675507.9144
 -48353287.59047 -37527861.89544  21827111.5634                   21827107.3284
 -13787321.71147  -9048414.30144  21837869.2584                   21837867.6884
 11  8 23  2 12 30.0000000  0  9G10G12G26G29G05G15G25G02G30
 -30218216.41046 -21702005.47342  24038825.6804                   24038825.6054
 -32191983.34447 -24122013.33245  21729222.1484   21729220.3014
   8313723.78946   9016695.15643  23393506.8444                   23393506.1174
  -1671846.94946  -1266896.25044  22388671.1254                   22388669.4304
 -33301352.08247 -25799983.24646  20540328.3594                   20540325.8284
  19827475.14545  15913618.91042  24294215.4144                   24294216.7504
 -16902756.53547 -13129603.98045  21660719.0474                   21660719.2464
 -48401479.21947 -37565413.82444  21817940.8914                   21817936.9454
 -13853186.47347  -9099737.50044  21825335.6724                   21825333.8244
 11  8 23  2 13  0.0000000  0  9G10G12G26G29G05G15G25G02G30
 -30198799.34446 -21686875.32842  24042521.4224                   24042520.8524
 -32210636.24247 -24136548.07445  21725672.4694   21725670.6564
   8133652.28546   8876379.79343  23359241.6414                   23359239.2974
  -1839573.60946  -1397592.27744  22356753.5864                   22356752.3754
 -33353295.00047 -25840458.23046  20530444.2034                   20530441.4574
  19644802.32446  15771276.60543  24259453.6094                   24259454.7814
 -16979903.35547 -13189718.36345  21646038.3834                   21646038.8284
 -48449583.93747 -37602898.02344  21808787.0004                   21808783.2424
 -13918488.00047  -9150621.78544  21812908.3364                   21812907.2624
 11  8 23  2 13 30.0000000  0  9G10G12G26G29G05G15G25G02G30
 -30179269.71946 -21671657.40642  24046237.7424                   24046237.1644
 -32228899.57447 -24150779.25845  21722197.3984   21722195.3324
   7953718.98846   8736172.10243  23325000.2034                   23324998.8984
  -2007185.40247  -1528198.79744  22324858.2974                   22324856.5594
 -33404749.14847 -25880552.35245  20520652.4454                   20520649.7664
  19462057.43846  15628878.14543  24224680.3204                   24224679.2194
 -17056480.96147 -13249389.19945  21631466.6334                   21631466.2274
 -48497600.50446 -37640313.53544  21799650.0474                   21799645.3364
 -13983226.41047  -9201067.28144  21800589.6254                   21800587.9264
 11  8 23  2 14  0.0000000  0  9G10G12G26G29G05G15G25G02G30
 -30159632.39846 -21656355.58642  24049973.8524                   24049973.6994
 -32246778.03147 -24164710.54745  21718795.3754   21718792.9694
   7773925.16846   8596073.10543  23290786.4614                   23290785.1214
  -2174682.14846  -1658715.66444  22292984.1884                   22292982.9104
 -33455718.60547 -25920268.80546  20510953.6724                   20510950.5124
  19279241.19946  15486424.05543  24189890.1174                   24189890.5234
 -17132492.19947 -13308618.70745  21617001.7504                   21617002.0434
 -48545530.74247 -37677661.80144  21790529.2504                   21790525.0164
 -14047405.37547  -9251076.86744  21788377.1804                   21788375.3484
 11  8 23  2 14 30.0000000  0  9G10G12G26G29G05G15G25G02G30
 -30139886.54746 -21640969.23043  24053732.7034                   24053731.5514
 -32264270.71547 -24178341.22345  21715466.2424   21715464.1684
   7594277.93046   8456088.30943  23256600.9694                   23256600.1914
  -2342058.31646  -1789138.58644  22261133.9694                   22261132.3954
 -33506202.28947 -25959606.72346  20501346.5474                   20501343.7234
  19096359.82846  15343919.24243  24155089.3204                   24155089.1334
 -17207934.75447 -13367405.08645  21602645.4534                   21602645.4734
 -48593371.62147 -37714940.41044  21781425.5084                   21781421.4264
 -14111022.96547  -9300648.99244  21776270.4384                   21776269.0474
 11  8 23  2 15  0.0000000  0  9G10G12G26G29G05G15G25G02G30
 -30120036.25846 -21625501.46542  24057511.2344                   24057508.5314
 -32281382.23047 -24191674.89145  21712210.7114   21712208.4144
   7414779.25446   8316219.28543  23222444.0554                   23222442.1604
  -2509313.76247  -1919467.43044  22229305.9844                   22229304.8324
 -33556203.37147 -25998568.59846  20491831.6414                   20491829.0274
  18913414.15646  15201364.27343  24120275.3834                   24120276.0204
 -17282811.31247 -13425750.43445  21588397.0234                   21588397.0434
 -48641124.71947 -37752150.64144  21772338.3674                   21772333.9844
 -14174082.73047  -9349786.45344  21764271.0004                   21764269.5234
 11  8 23  2 15 30.0000000  0  9G10G12G26G29G05G15G25G02G30
 -30100084.08245 -21609954.35942  24061306.1174                   24061304.6414
 -32298115.57447 -24204713.87945  21709026.2114   21709024.0944
   7235432.52046   8176468.64843  23188314.8284                   23188313.9964
  -2676446.54346  -2049700.68744  22197501.7894                   22197500.4104
 -33605724.25047 -26037156.28546  20482408.2584                   20482405.5664
  18730406.85545  15058761.29743  24085449.5234                   24085451.1454
 -17357122.86747 -13483655.51245  21574255.7734                   21574256.5274
 -48688790.19147 -37789292.57444  21763267.7734                   21763263.6334
 -14236586.22347  -9398490.46544  21752376.8754                   21752374.9804
 11  8 23  2 16  0.0000000  0  9G10G12G26G29G05G15G25G02G30
 -30080032.69546 -21594329.99642  24065122.6884                   24065121.1844
 -32314473.56647 -24217460.39545  21705913.4304   21705911.0594
   7056241.14146   8036839.07443  23154216.0234                   23154215.0314
  -2843454.68447  -2179836.82444  22165721.0864                   22165719.8054
 -33654766.54747 -26075371.04746  20473075.6564                   20473072.6994
  18547341.14846  14916112.79342  24050613.3984                   24050613.9614
 -17430870.55147 -13541121.22745  21560221.9304                   21560222.5354
 -48736368.06247 -37826366.25844  21754213.9694                   21754209.9064
 -14298535.35247  -9446762.50044  21740589.0394                   21740587.0124
 11  8 23  2 16 30.0000000  0  9G10G12G26G29G05G15G25G02G30
 -30059884.11745 -21578629.78142  24068956.2034                   24068956.4104
 -32330458.27347 -24229916.02745  21702871.6024   21702869.2114
   6877209.44146   7897333.91443  23120147.0704                   23120146.6134
  -3010335.69947  -2309873.90244  22133964.6804                   22133963.1134
 -33703332.11747 -26113214.33245  20463834.0864                   20463831.1804
  18364219.22746  14773420.53943  24015766.1644                   24015767.4304
 -17504054.93447 -13598147.99645  21546295.8204                   21546295.6954
 -48783857.66447 -37863371.15244  21745177.3834                   21745172.7584
 -14359931.23847  -9494603.41844  21728904.9224                   21728903.5354
 11  8 23  2 17  0.0000000  0  9G10G12G26G29G05G15G25G02G30
 -30039641.176 5                  24072808.633
 -32346073.16047 -24242083.50845  21699900.4144   21699898.1524
   6698340.41446   7757955.51643  23086110.0704                   23086108.4224
  -3177088.10547  -2439810.78544  22102232.8984                   22102230.8954
 -33751423.39147 -26150688.03145  20454682.2664                   20454679.7934
  18181043.73045  14630686.51643  23980910.0394                   23980909.7734
 -17576677.69947 -13654737.14545  21532476.0634                   21532475.9454
 -48831259.98447 -37900308.04744  21736156.6094                   21736152.5314
 -14420776.30547  -9542015.14844  21717326.4694                   21717325.1604
 11  8 23  2 17 30.0000000  0  9G10G12G26G29G05G15G25G02G30
 -30019304.648 5                  24076678.203
 -32361319.19147 -24253963.55545  21696999.0084   21696996.9924
   6519639.41446   7618708.06643  23052103.9924                   23052103.3134
  -3343707.87547  -2569644.31244  22070526.1484                   22070524.5274
 -33799040.35547 -26187792.16045  20445621.4224                   20445618.6334
  17997819.39145  14487914.44943  23946042.3914                   23946043.8754
 -17648737.95747 -13710887.97745  21518763.3524                   21518763.6914
 -48878572.64547 -37937175.05144  21727153.4304                   21727149.0354
 -14481070.21147  -9588997.39144  21705853.4224                   21705851.3674
 11  8 23  2 18  0.0000000  0  9G10G12G26G29G05G15G25G02G30
 -29998879.012 5                  24080564.414
 -32376200.78947 -24265559.62145  21694166.8594   21694164.7154
   6341108.37946   7479593.05943  23018130.4304                   23018129.5554
  -3510194.90646  -2699374.40644  22038843.9694                   22038842.7894
 -33846187.23847 -26224529.96545  20436649.3364                   20436646.7464
  17814546.79345  14345104.78543  23911166.8054                   23911168.0394
 -17720238.86747 -13766602.94545  21505156.7734                   21505157.0274
 -48925797.57047 -37973973.70344  21718166.5164                   21718162.1294
 -14540816.88747  -9635553.22744  21694484.0944                   21694481.7814
 11  8 23  2 18 30.0000000  0  9G10G12G26G29G05G15G25G02G30
 -28402947.160 5                  24384260.273
 -30815300.75047 -23049273.89545  21991196.7974   21991193.9844
   7738176.85546   8568217.91443  23283983.4144                   23283982.0314
  -2101121.30147  -1601394.90244  22306982.1644                   22306980.6094
 -32317444.48047 -25033301.82845  20727559.4774                   20727557.0314
  19206654.75846  15429864.31643  24176075.9924                   24176077.1884
 -16215759.14847 -12594281.07845  21791449.6954                   21791449.9774
 -47397513.37947 -36783102.89844  22008989.6174                   22008985.3714
 -13024595.88347  -8454082.31644  21983010.7734                   21983009.2504
 11  8 23  2 19  0.0000000  0  9G10G12G26G29G05G15G25G02G30
 -28382350.238 5                  24388180.617
 -30829462.03947 -23060308.67645  21988501.2344   21988498.8914
   7559997.05146   8429376.60243  23250076.6484                   23250075.7194
  -2267335.94147  -1730912.75844  22275353.0944                   22275351.2734
 -32363656.71147 -25069311.34445  20718765.5314                   20718763.4264
  19023294.38345  15286986.22743  24141183.8284                   24141184.6094
 -16286144.34447 -12649126.67245  21778056.1174                   21778056.4574
 -47444562.87147 -36819764.84844  22000036.4224                   22000032.2504
 -13083252.73047  -8499788.94144  21971849.0234                   21971847.1454
 11  8 23  2 19 30.0000000  0  9G10G12G26G29G05G15G25G02G30
 -28361672.781 5                  24392115.156
 -30843268.55547 -23071067.01245  21985874.5474   21985871.5704
   7381997.20346   8290675.46543  23216204.3524                   23216203.6454
  -2433412.57047  -1860323.06244  22243749.2424                   22243747.4694
 -32409405.85547 -25104960.01645  20710060.0634                   20710057.3794
  18839893.43446  15144076.53143  24106284.4384                   24106283.8634
 -16355974.49647 -12703539.77345  21764767.4304                   21764767.9024
 -47491525.52347 -36856359.13344  21991099.7894                   21991095.6804
 -13141368.62947  -8545074.03944  21960790.0554                   21960788.6294
 11  8 23  2 20  0.0000000  0  9G10G12G26G29G05G15G25G02G30
 -28340916.719 6                  24396065.742
 -30856722.73847 -23081550.81245  21983313.8674   21983311.6994
   7204180.99246   8152117.45743  23182367.6414                   23182366.2304
  -2599348.56247  -1989623.79744  22212173.0234                   22212171.2504
 -32454693.70747 -25140249.23845  20701441.8834                   20701439.1604
  18656454.55146  15001137.28943  24071376.9694                   24071376.4574
 -16425250.71147 -12757521.23445  21751584.8914                   21751585.2894
 -47538401.30147 -36892885.69944  21982179.6094                   21982175.2774
 -13198945.19947  -8589938.89144  21949833.4454                   21949831.5554
 11  8 23  2 20 30.0000000  0  9G10G12G26G29G05G15G25G02G30
 -28320084.227 5                  24400028.711
 -30869827.32847 -23091762.20345  21980820.5314   21980818.1484
   7026552.77746   8013705.91443  23148565.7814                   23148565.1644
  -2765141.61347  -2118813.15244  22180623.4454                   22180621.5824
 -32499522.02047 -25175180.37545  20692911.4614                   20692908.4694
  18472981.07846  14858171.05542  24036463.2974                   24036462.4384
 -16493973.78547 -12811071.69145  21738507.6334                   21738507.8444
 -47585189.43747 -36929343.97744  21973276.0164                   21973271.8484
 -13255983.95347  -8634384.66444  21938979.0314                   21938977.8014
 11  8 23  2 21  0.0000000  0  9G10G12G26G29G05G15G25G02G30
 -28299178.727 6                  24404007.250
 -30882585.53547 -23101703.68445  21978392.4694   21978390.8404
   6849114.98446   7875442.78943  23114800.5164                   23114799.4224
  -2930790.48047  -2247890.16044  22149101.5004                   22149099.4694
 -32543893.82047 -25209755.78545  20684467.2664                   20684465.0984
  18289475.05946  14715179.43443  24001542.6564                   24001542.4024
 -16562145.92247 -12864192.83645  21725535.4144                   21725535.1604
 -47631890.90247 -36965734.69144  21964388.6334                   21964384.7854
 -13312487.59047  -8678413.48044  21928227.3204                   21928225.2304
 11  8 23  2 21 30.0000000  0  9G10G12G26G29G05G15G25G02G30
 -28278201.633 5                  24407999.516
 -30895000.05547 -23111377.35545  21976029.8914   21976027.8554
   6671872.20746   7737331.57043  23081071.8674                   23081070.8754
  -3096292.12547  -2376852.44144  22117606.9454                   22117605.4734
 -32587810.16047 -25243976.29745  20676110.6954                   20676107.7664
  18105939.79746  14572165.05543  23966616.5474                   23966615.9964
 -16629767.58647 -12916885.04745  21712667.2114                   21712667.0004
 -47678504.98847 -37002057.32044  21955518.7974                   21955514.0234
 -13368457.35947  -8722026.27044  21917576.0234                   21917574.2154
 11  8 23  2 22  0.0000000  0  9G10G12G26G29G05G15G25G02G30
 -28257155.937 5                  24412003.000
 -30907074.14547 -23120785.77744  21973732.4844   21973730.7854
   6494827.50646   7599374.70243  23047381.7424                   23047379.8134
  -3261645.26646  -2505699.02744  22086141.9534                   22086139.6374
 -32631273.80147 -25277844.05945  20667839.3754                   20667837.0514
  17922377.56646  14429129.64843  23931686.4454                   23931685.0664
 -16696840.65247 -12969149.77745  21699903.3204                   21699903.8834
 -47725031.90247 -37038312.03944  21946665.2664                   21946660.5904
 -13423895.65647  -8765224.94944  21907026.2664                   21907024.7734
 11  8 23  2 22 30.0000000  0  9G10G12G26G29G05G15G25G02G30
 -28236042.11745 -20336281.19953  24416022.4384                   24416020.2854
 -30918808.35247 -23129929.32444  21971499.2734   21971497.5594
   6317986.36746   7461576.47343  23013729.9454                   23013728.3754
  -3426845.74647  -2634426.64144  22054705.1414                   22054703.1054
 -32674285.35247 -25311359.53945  20659655.1094                   20659652.5474
  17738792.64546  14286076.59043  23896751.3914                   23896750.8094
 -16763364.75047 -13020986.75045  21687244.3984                   21687244.4304
 -47771470.00447 -37074497.57444  21937827.8914                   21937823.8674
 -13478802.80547  -8808009.73844  21896578.8364                   21896576.3484
 11  8 23  2 23  0.0000000  0  9G10G12G26G29G05G15G25G02G30
 -28214864.52045 -20319779.24243  24420051.6414                   24420050.7584
 -30930208.17647 -23138812.33245  21969330.6884   21969328.6644
   6141350.75846   7323938.35243  22980117.2894                   22980115.8134
  -3591893.17647  -2763035.00445  22023297.5394                   22023295.5004
 -32716848.72747 -25344525.78145  20651555.3524                   20651552.6334
  17555186.78146  14143007.21543  23861811.3674                   23861811.2584
 -16829342.91047 -13072398.31245  21674689.2034                   21674689.3094
 -47817820.60247 -37110614.92244  21929007.6804                   21929003.2274
 -13533182.40247  -8850383.46144  21886230.4144                   21886228.1764
 11  8 23  2 23 30.0000000  0  9G10G12G26G29G05G15G25G02G30
 -28193625.45345 -20303229.39842  24424093.0314                   24424092.9264
 -30941276.21547 -23147436.78944  21967224.3984   21967222.2704
   5964924.30146   7186463.20743  22946544.4454                   22946542.8014
  -3756785.32847  -2891522.37145  21991920.0474                   21991918.0514
 -32758966.13347 -25377344.53145  20643540.4774                   20643537.8834
  17371562.50845  13999923.48842  23826869.0704                   23826868.1254
 -16894776.46147 -13123385.51245  21662237.2034                   21662237.1294
 -47864084.26647 -37146664.52044  21920204.1564                   21920199.8914
 -13587036.50447  -8892347.68744  21875981.6724                   21875980.3834
 11  8 23  2 24  0.0000000  0  9G10G12G26G29G05G15G25G02G30
 -28172327.36345 -20286633.56642  24428146.7504                   24428146.2234
 -30952015.05947 -23155804.74645  21965181.0554   21965178.6994
   5788710.86746   7049154.07843  22913011.9844                   22913010.7624
  -3921519.80147  -3019886.85944  21960572.2344                   21960569.9964
 -32800639.10247 -25409816.95345  20635610.5314                   20635607.4144
  17187922.87145  13856827.79743  23791923.8054                   23791922.7624
 -16959666.71547 -13173949.35545  21649888.8284                   21649889.1134
 -47910260.05147 -37182645.64844  21911417.6254                   21911412.8444
 -13640367.08247  -8933904.00044  21865833.5164                   21865831.7154
 11  8 23  2 24 30.0000000  0  9G10G12G26G29G05G15G25G02G30
 -28150972.01645 -20269992.95342  24432209.7194                   24432211.5474
 -30962427.63347 -23163918.46144  21963199.5634   21963196.9454
   5612714.16046   6912013.79743  22879521.6334                   22879519.0124
  -4086094.37147  -3148126.74245  21929254.2344                   21929252.6684
 -32841870.14847 -25441945.03145  20627764.2344                   20627761.7304
  17004270.87146  13713722.46943  23756976.6564                   23756975.1054
 -17024015.08247 -13224090.94545  21637644.1414                   21637644.5234
 -47956348.03147 -37218558.34444  21902646.4144                   21902642.6844
 -13693176.00047  -8975053.80144  21855784.1414                   21855782.6844
 11  8 23  2 25  0.0000000  0  9G10G12G26G29G05G15G25G02G30
 -28129561.781 4                  24436284.523
 -30972516.04747 -23171779.57044  21961279.5864   21961277.8794
   5436938.66046   6775045.92643  22846071.5004                   22846070.3164
  -4250506.35547  -3276239.93744  21897967.8054                   21897965.5984
 -32882660.54347 -25473729.74245  20620002.2814                   20619999.3754
  16820610.02046  13570610.25843  23722026.1024                   23722026.4774
 -17087822.30947 -13273810.85945  21625502.0704                   21625502.1604
 -48002347.41447 -37254402.03144  21893893.2584                   21893889.1604
 -13745464.72747  -9015798.27044  21845834.4614                   21845832.2624
 11  8 23  2 25 30.0000000  0  9G10G12G26G29G05G15G25G02G30
 -28108099.10515                  24440369.227
 -30982283.49647 -23179390.57844  21959420.8594   21959418.6804
   5261387.54346   6638252.89543  22812666.2114                   22812663.8444
  -4414753.77047  -3404224.88345  21866712.6414                   21866710.3284
 -32923012.86347 -25505173.09845  20612323.4224                   20612320.3554
  16636942.55546  13427492.90643  23687075.4694                   23687074.9574
 -17151090.10947 -13323110.44945  21613462.9384                   21613462.3714
 -48048258.35947 -37290176.77744  21885157.1414                   21885152.9574
 -13797235.57047  -9056139.17644  21835982.8834                   21835980.9144
 11  8 23  2 26  0.0000000  0  9G10G12G26G29G05G15G25G02G30
 -28086587.687 5                  24444460.977
 -30991734.96947 -23186755.38744  21957622.2114   21957620.1334
   5086062.64146   6501636.11743  22779302.6484                   22779301.1254
  -4578836.40247  -3532081.43445  21835488.8204                   21835486.4654
 -32962931.17247 -25536278.27045  20604727.4384                   20604724.5004
  16453269.78546  13284371.37543  23652122.9694                   23652122.7074
 -17213821.96147 -13371992.41045  21601525.0164                   21601525.2464
 -48094082.70747 -37325884.07444  21876436.9694                   21876432.3594
 -13848492.62147  -9096079.74644  21826228.6884                   21826226.8244
 11  8 23  2 26 30.0000000  0  9G10G12G26G29G05G15G25G02G30
 -28065029.996 5                  24448563.867
 -31000872.96547 -23193875.91845  21955883.6254   21955881.3634
   4910967.94546   6365198.73443  22745983.0944                   22745981.7114
  -4742751.68747  -3659807.56245  21804296.7114                   21804294.5904
 -33002417.44147 -25567046.78945  20597213.5784                   20597210.2274
  16269594.77346  13141248.11743  23617171.8284                   23617170.1174
 -17276019.12147 -13420457.72745  21589689.1094                   21589689.4454
 -48139819.87147 -37361523.43044  21867733.2584                   21867728.8954
 -13899237.73447  -9135621.39844  21816572.3364                   21816570.7194
 11  8 23  2 27  0.0000000  0 10G10G12G26G29G05G15G25G02G30G21
 -28043430.746 6                  24452674.266
 -31009702.88747 -23200756.39144  21954203.2424   21954201.2504
   4736105.07446   6228942.01243  22712707.8134                   22712706.8554
  -4906499.71547  -3787403.35244  21773136.0314                   21773134.0234
 -33041476.17247 -25597482.15245  20589781.0784                   20589778.2074
  16085918.12546  12998123.55143  23582219.1334                   23582217.3874
 -17337685.32847 -13468509.32445  21577954.7344                   21577954.8834
 -48185471.96547 -37397096.49644  21859046.3284                   21859041.5944
 -13949475.25447  -9174767.52744  21807012.5554                   21807010.5044
                                  24930546.66815                  25029408.023
 11  8 23  2 27 30.0000000  0  9G12G26G29G05G15G25G02G30G21
 -29442810.31647 -21979801.17244  22252373.0004   22252370.8164
   6136900.30946   7320470.79343  22979269.4924                   22979268.9144
  -3494656.08247  -2687265.39144  22041800.8984                   22041798.9224
 -31504691.34847 -24399987.48045  20882220.6564                   20882217.9844
  17477665.52746  14082602.16843  23847059.6254                   23847057.7464
 -15823403.25847 -12288549.26245  21866112.9924                   21866112.8634
 -46655620.55547 -36205004.50444  22150167.3284                   22150162.8954
 -12423788.96147  -7985921.05544  22097340.4924                   22097338.9654
                                  26362641.777 5                  25301926.328
 11  8 23  2 28  0.0000000  0  9G12G26G29G05G15G25G02G30G21
 -29451036.56647 -21986211.25044  22250807.3204   22250805.1174
   5962507.76646   7184580.53943  22946084.7194                   22946083.2664
  -3658066.80147  -2814598.33644  22010704.9614                   22010702.9414
 -31542905.75047 -24429764.93445  20874949.1174                   20874945.9574
  17293990.18846  13939478.60543  23812107.1804                   23812106.0944
 -15884016.32847 -12335780.21545  21854578.5864                   21854579.0904
 -46701106.27347 -36240447.93444  22141511.9304                   22141507.2304
 -12473021.97347  -8024284.43744  22087971.9774                   22087971.0274
                                  26219319.906 5                  25274652.961
 11  8 23  2 28 30.0000000  0  9G12G26G29G05G15G25G02G30G21
 -29458962.38347 -21992387.22744  22249299.3594   22249297.2114
   5788358.69946   7048880.01243  22912944.5084                   22912943.2934
  -3821302.96147  -2941795.27044  21979642.1254                   21979639.8094
 -31580698.49647 -24459213.82045  20867757.2114                   20867754.5784
  17110322.55946  13796361.07843  23777156.1334                   23777155.2074
 -15944102.46947 -12382600.59045  21843145.5704                   21843145.1374
 -46746505.74247 -36275824.15244  22132872.1804                   22132868.0164
 -12521753.25847  -8062256.88344  22078698.4694                   22078697.0084
                                  26076006.852 5                  25247381.727
 11  8 23  2 29  0.0000000  0  9G12G26G29G05G15G25G02G30G21
 -29466586.30947 -21998327.96544  22247848.1094   22247846.4574
   5614461.76246   6913375.96543  22879853.7584                   22879851.9224
  -3984357.21947  -3068850.46945  21948613.8914                   21948611.6954
 -31618066.78147 -24488331.96145  20860646.6484                   20860643.3134
  16926670.69546  13653255.78143  23742207.2344                   23742206.7814
 -16003658.43447 -12429007.82845  21831811.4384                   21831811.3054
 -46791813.87147 -36311129.19144  22124250.4304                   22124246.2774
 -12569980.10547  -8099836.23844  22069521.7344                   22069519.8164
                                  25932707.184 5                  25220112.094
 11  8 23  2 29 30.0000000  0  9G12G26G29G05G15G25G02G30G21
 -29473912.94947 -22004037.06644  22246454.2584   22246452.6764
   5440818.96546   6778069.93443  22846809.7344                   22846808.6994
  -4147228.95747  -3195763.43445  21917620.6884                   21917618.1134
 -31655014.97347 -24517122.75845  20853615.8674                   20853612.5514
  16743035.64146  13510163.62943  23707263.2034                   23707262.0864
 -16062687.53547 -12475004.52345  21820578.8594                   21820578.3594
 -46837032.32447 -36346364.34844  22115645.8284                   22115641.2234
 -12617706.51647  -8137025.64844  22060440.0394                   22060437.6564
                                  25789418.516 5                  25192844.945
 11  8 23  2 30  0.0000000  0  9G12G26G29G05G15G25G02G30G21
 -29480943.63347 -22009515.53944  22245116.4144   22245114.8674
   5267435.34846   6642965.88743  22813815.8054                   22813814.3244
  -4309914.39147  -3322531.23445  21886662.2114                   21886660.6134
 -31691543.66447 -24545586.66845  20846664.2424                   20846661.5204
  16559421.60546  13367087.84043  23672322.4924                   23672321.3674
 -16121190.20347 -12520591.01245  21809446.0864                   21809445.8754
 -46882159.55147 -36381528.41044  22107058.4224                   22107053.1374
 -12664933.41447  -8173825.81644  22051452.4304                   22051451.2544
                                  25646141.641 5                  25165580.305
 11  8 23  2 30 30.0000000  0  9G12G26G29G05G15G25G02G30G21
 -29487681.77347 -22014766.05944  22243834.2664   22243832.3754
   5094314.30546   6508066.42644  22780872.2974                   22780871.3324
  -4472412.24247  -3449152.85945  21855739.9534                   21855737.4384
 -31727655.62547 -24573725.85545  20839791.9774                   20839789.7154
  16375831.67646  13224030.85943  23637387.3054                   23637386.0634
 -16179168.09047 -12565768.57445  21798413.1254                   21798412.8164
 -46927195.18447 -36416621.10944  22098488.5554                   22098484.1524
 -12711663.04347  -8210238.48844  22042560.1484                   22042558.2304
                                  25502876.008 5                  25138317.836
 11  8 23  2 31  0.0000000  0  9G12G26G29G05G15G25G02G30G21
 -29494131.37547 -22019791.76644  22242606.4304   22242605.4264
   4921458.58646   6373373.69943  22747979.3984                   22747978.1334
  -4634720.81247  -3575627.01245  21824853.6564                   21824850.5554
 -31763353.94147 -24601542.73045  20832999.1884                   20832996.2114
  16192267.39145  13080993.85243  23602455.3834                   23602454.1684
 -16236624.24647 -12610539.59045  21787479.5704                   21787479.3484
 -46972140.39547 -36451643.36744  22089934.9384                   22089931.1254
 -12757899.09047  -8246266.58244  22033761.6804                   22033759.9264
                                  25359619.207 5                  25111057.250
 11  8 23  2 31 30.0000000  0  9G12G26G29G05G15G25G02G30G21
 -29500294.36747 -22024594.12544  22241433.9454   22241432.4304
   4748872.87246   6238891.37544  22715136.4224                   22715135.8714
  -4796836.78547  -3701951.07445  21794003.8834                   21794001.4694
 -31798639.87947 -24629038.25445  20826284.4534                   20826281.7424
  16008732.98446  12937980.11343  23567529.9454                   23567528.8984
 -16293559.30147 -12654904.55945  21776645.5704                   21776645.2304
 -47016993.85247 -36486594.11744  22081400.2894                   22081395.6994
 -12803642.77347  -8281911.00844  22025057.2114                   22025055.3404
                                  25216372.340 5                  25083796.633
 11  8 23  2 32  0.0000000  0  9G12G26G29G05G15G25G02G30G21
 -29506176.21147 -22029177.39144  22240314.6724   22240313.0204
   4576558.43846   6104620.43043  22682346.3284                   22682345.7704
  -4958760.45747  -3828125.31245  21763190.3674                   21763188.5744
 -31833518.45347 -24656216.35945  20819647.1094                   20819644.7544
  15825228.59046  12794989.80143  23532610.0394                   23532608.8674
 -16349977.56647 -12698866.84445  21765909.5474                   21765909.3594
 -47061757.91847 -36521475.21544  22072881.7734                   22072877.3014
 -12848899.00046  -8317175.59444  22016445.4534                   22016443.0984
                                  25073131.938 5                  25056541.234
 11  8 23  2 32 30.0000000  0  9G12G26G29G05G15G25G02G30G21
 -29511780.35547 -22033544.29344  22239247.7274   22239246.3054
   4404518.29346   5970563.23843  22649608.4844                   22649607.0394
  -5120490.00847  -3954148.28145  21732414.6484                   21732412.4064
 -31867992.36347 -24683079.14545  20813087.2114                   20813084.3794
  15641756.80946  12652024.83243  23497696.9614                   23497695.6644
 -16405881.35547 -12742428.22745  21755270.9304                   21755270.8874
 -47106432.96147 -36556286.89544  22064380.6334                   22064376.0554
 -12893670.60247  -8352062.53544  22007925.4144                   22007923.5474
                                  24929897.328 4                  25029282.398
 11  8 23  2 33  0.0000000  0  9G12G26G29G05G15G25G02G30G21
 -29517108.11747 -22037695.82044  22238235.1724   22238233.1054
   4232758.14846   5836724.21144  22616923.4144                   22616922.1484
  -5282021.37947  -4080016.84045  21701676.0164                   21701673.8794
 -31902061.88747 -24709626.81645  20806604.3054                   20806601.3134
  15458322.47746  12509089.09443  23462789.7344                   23462789.0664
 -16461270.36747 -12785588.49645  21744730.8754                   21744731.0904
 -47151016.70347 -36591027.46144  22055896.3204                   22055892.0004
 -12937957.83647  -8386572.05544  21999497.5784                   21999496.0124
                                  24786669.711 4                  25002026.297
 11  8 23  2 33 30.0000000  0  9G12G26G29G05G15G25G02G30G21
 -29522163.74247 -22041635.29344  22237272.5004   22237270.8014
   4061280.13746   5703105.02044  22584292.0474                   22584290.7664
  -5443353.48447  -4205730.10945  21670975.3754                   21670973.2544
 -31935731.07447 -24735862.54345  20800196.3364                   20800194.1884
  15274927.21546  12366183.78943  23427891.1564                   23427890.1414
 -16516148.09847 -12828350.36345  21734287.8754                   21734288.1994
 -47195510.59447 -36625698.01244  22047429.6804                   22047425.1954
 -12981764.77747  -8420707.33244  21991161.5474                   21991159.8134
                                  24643446.84015                  24974772.828
 11  8 23  2 34  0.0000000  0  9G12G26G29G05G15G25G02G30G21
 -29526949.96947 -22045364.84044  22236362.1254   22236360.0594
   3890088.38746   5569708.90244  22551715.6334                   22551713.8054
  -5604484.00047  -4331286.33645  21640313.7974                   21640311.4344
 -31969001.63347 -24761787.65645  20793865.5944                   20793862.8794
  15091574.41046  12223311.53543  23393000.8284                   23392999.7584
 -16570515.97747 -12870714.93745  21723942.1334                   21723942.5314
 -47239913.84047 -36660297.92244  22038980.0314                   22038975.6024
 -13025093.49647  -8454469.95744  21982915.9694                   21982914.6024
                                  24500228.684 5                  24947520.219
 11  8 23  2 34 30.0000000  0  9G12G26G29G05G15G25G02G30G21
 -29531467.87947 -22048885.32444  22235502.8364   22235500.4064
   3719188.46946   5436540.18043  22519194.2974                   22519193.0394
  -5765408.44547  -4456681.97745  21609690.6254                   21609688.1374
 -32001874.11747 -24787402.57445  20787610.6954                   20787607.2504
  14908268.81646  12080476.11743  23358118.4534                   23358117.5084
 -16624373.91047 -12912682.16445  21713693.3444                   21713693.3204
 -47284224.49247 -36694825.69944  22030547.5634                   22030543.2234
 -13067944.44947  -8487860.30144  21974762.4454                   21974760.2854
                                  24357016.438 5                  24920268.211
 11  8 23  2 35  0.0000000  0  9G12G26G29G05G15G25G02G30G21
 -29535722.63346 -22052200.73444  22234692.5864   22234690.6214
   3548581.97746   5303600.08643  22486728.7584                   22486727.2814
  -5926126.74247  -4581916.98445  21579106.6174                   21579105.2154
 -32034353.05947 -24812710.84045  20781429.5784                   20781427.0744
  14725011.46546  11937678.26643  23323245.4304                   23323244.4774
 -16677725.94947 -12954255.17645  21703540.6954                   21703540.7344
 -47328444.17247 -36729282.59444  22022132.8524                   22022128.7504
 -13110322.17646  -8520881.90244  21966697.9064                   21966696.0004
                                  24213807.688 5                  24893015.477
 11  8 23  2 35 30.0000000  0  9G12G26G29G05G15G25G02G30G21
 -29539717.57047 -22055313.69944  22233932.5084   22233930.4804
   3378272.19546   5170891.19543  22454319.2974                   22454318.6604
  -6086636.83647  -4706989.77045  21548562.8594                   21548560.6024
 -32066441.05147 -24837714.47745  20775323.8524                   20775320.9534
  14541804.91446  11794919.98043  23288383.1484                   23288380.6954
 -16730574.52047 -12995435.88745  21693484.0634                   21693484.2934
 -47372573.07447 -36763668.71944  22013735.7194                   22013730.8204
 -13152229.60546  -8553537.03944  21958722.9774                   21958721.3674
                                  24070601.504 5                  24865763.820
 11  8 23  2 36  0.0000000  0  9G12G26G29G05G15G25G02G30G21
 -29543456.70347 -22058227.34044  22233220.9534   22233219.3054
   3208261.92246   5038415.71943  22421968.1094                   22421966.5044
  -6246937.51647  -4831899.36345  21518058.2424                   21518055.9144
 -32098141.65247 -24862416.24645  20769291.5234                   20769288.4064
  14358651.01646  11652202.73043  23253529.8674                   23253527.5044
 -16782922.28547 -13036226.36745  21683522.3054                   21683522.5594
 -47416611.80147 -36797984.59044  22005355.1484                   22005351.0984
 -13193670.00447  -8585828.26244  21950837.6254                   21950835.8094
                                  23927396.438 5                  24838512.586
 11  8 23  2 36 30.0000000  0  9G12G26G29G05G15G25G02G30G21
 -27971522.89146 -20833343.89844  22532350.4614   22532347.8054
   4613980.45346   6133780.83243  22689467.0554                   22689465.6914
  -4831601.27047  -3729039.93045  21787387.5314                   21787385.9414
 -30554036.07447 -23659217.08245  21063124.8754                   21063122.3164
  15750978.87546  12737133.59043  23518479.9694                   23518478.3754
 -15259349.52347 -11849026.80945  21973448.3204                   21973449.0084
 -45885138.65647 -35604628.90644  22296784.5234                   22296780.6684
 -11659224.61347  -7390156.52344  22242832.2734                   22242830.5434
                                  25359616.484 5                  25111054.945
 11  8 23  2 37  0.0000000  0  9G12G26G29G05G15G25G02G30G21
 -27974758.32447 -20835865.03144  22531734.6334   22531732.2274
   4444581.08246   6001781.35943  22657231.9774                   22657230.5354
  -4991475.27747  -3853617.05145  21756964.9534                   21756962.6914
 -30584967.55947 -23683319.54345  21057238.7664                   21057235.9884
  15567940.51246  12594506.36343  23483649.3444                   23483647.8364
 -15310700.81647 -11889040.82045  21963676.8754                   21963676.7274
 -45928995.70347 -35638803.21544  22288439.0004                   22288434.4264
 -11699737.82047  -7421725.27044  22235123.0634                   22235121.2344
                                  25216412.328 5                  25083803.914
 11  8 23  2 37 30.0000000  0  9G12G26G29G05G15G25G02G30G21
 -27977745.80146 -20838192.95344  22531165.1724   22531164.4344
   4275493.34046   5870024.73443  22625055.5944                   22625052.8094
  -5151131.44947  -3978024.44145  21726583.3674                   21726580.9104
 -30615517.31647 -23707124.55545  21051425.4224                   21051422.4774
  15384965.06646  12451928.13343  23448830.3594                   23448829.2894
 -15361556.16847 -11928668.37945  21953999.7194                   21953999.5904
 -45972760.67647 -35672905.77744  22280111.0944                   22280106.6094
 -11739790.53947  -7452935.18444  22227501.2974                   22227499.4104
  25073208.57045  22096892.73453  25056553.5394                   25056551.4884
 11  8 23  2 38  0.0000000  0  9G12G26G29G05G15G25G02G30G21
 -27980487.05946 -20840329.02044  22530644.0864   22530641.9694
   4106722.12946   5738514.74243  22592939.3134                   22592937.3094
  -5310566.64847  -4102259.64145  21696243.9384                   21696241.8094
 -30645686.67247 -23730633.14545  21045685.1254                   21045681.0944
  15202056.76246  12309402.24643  23414024.0864                   23414022.6254
 -15411916.39847 -11967910.12545  21944416.2664                   21944416.1484
 -46016432.34047 -35706935.63744  22271801.1024                   22271796.0664
 -11779384.08647  -7483787.30944  22219966.6644                   22219964.9454
  24930006.18045  21985306.55142  25029302.4694                   25029302.3984
 11  8 23  2 38 30.0000000  0  9G12G26G29G05G15G25G02G30G21
 -27982987.03546 -20842277.09044  22530168.1804   22530166.5394
   3938269.52046   5607253.02044  22560883.1724                   22560882.2464
  -5469779.87547  -4226321.87545  21665946.9454                   21665944.2114
 -30675479.43047 -23753848.28145  21040014.7034                   21040011.8914
  15019217.07446  12166929.78543  23379230.3914                   23379229.1564
 -15461785.07447 -12006768.85545  21934926.1564                   21934926.8874
 -46060011.70747 -35740893.55144  22263507.2504                   22263502.8054
 -11818522.52047  -7514284.80544  22212519.1174                   22212516.7424
  24786802.61345  21873719.44543  25002051.6804                   25002052.3404
 11  8 23  2 39  0.0000000  0  9G12G26G29G05G15G25G02G30G21
 -27985249.43046 -20844039.99644  22529738.0394   22529735.6844
   3770138.56346   5476241.93444  22528889.2814                   22528888.1914
  -5628769.64547  -4350209.97345  21635691.6724                   21635689.4224
 -30704898.82847 -23776772.49245  21034416.6414                   21034413.4534
  14836448.48446  12024512.79343  23344451.1334                   23344449.2664
 -15511164.96147 -12045246.70345  21925530.1484                   21925530.1094
 -46103499.43447 -35774780.08644  22255232.4384                   22255227.8984
 -11857209.25047  -7544430.32444  22205157.9304                   22205155.2274
  24643596.65645  21762130.52042  24974800.8284                   24974802.1134
 11  8 23  2 39 30.0000000  0  9G12G26G29G05G15G25G02G30G21
 -27987275.18746 -20845618.52744  22529352.2814   22529350.5084
   3602334.90646   5345485.89544  22496957.1414                   22496956.5274
  -5787531.85247  -4473920.75445  21605480.7664                   21605478.2344
 -30733945.41847 -23799406.19545  21028889.2114                   21028886.4964
  14653755.98446  11882155.04743  23309686.4064                   23309684.2544
 -15560056.05147 -12083343.68445  21916226.3284                   21916226.2504
 -46146892.96947 -35808593.23844  22246974.7344                   22246970.5274
 -11895444.71147  -7574224.19944  22197881.3204                   22197879.5824
  24500390.16845  21650541.09842  24947548.5554                   24947549.5004
 11  8 23  2 40  0.0000000  0  9G12G26G29G05G15G25G02G30G21
 -27989067.35246 -20847015.03544  22529011.5164   22529009.4774
   3434861.67246   5214987.28544  22465088.7194                   22465087.1454
  -5946064.03947  -4597452.30945  21575312.4384                   21575310.6884
 -30762621.57847 -23821751.25845  21023432.0004                   21023429.2894
  14471142.25446  11739858.67243  23274935.6954                   23274933.9884
 -15608460.98847 -12121061.84445  21907015.6644                   21907015.0554
 -46190192.77047 -35842333.34444  22238735.4774                   22238730.4534
 -11933232.05547  -7603668.91444  22190690.7424                   22190688.6564
  24357181.65645  21538950.17642  24920298.2504                   24920298.1484
 11  8 23  2 40 30.0000000  0  9G12G26G29G05G15G25G02G30G21
 -27990633.30946 -20848235.26644  22528713.2894   22528711.2234
   3267718.73846   5084746.06644  22433281.9384                   22433280.5664
  -6104367.69947  -4720805.77045  21545188.3364                   21545186.4494
 -30790933.67247 -23843812.64145  21018044.9304                   21018042.0084
  14288606.66046  11597623.19143  23240200.0164                   23240198.5904
 -15656385.57847 -12158405.68745  21897895.9144                   21897895.7234
 -46233402.12547 -35876002.93444  22230512.2424                   22230507.6334
 -11970577.67647  -7632769.42644  22183583.9694                   22183582.0824
  24213966.94545  21427354.42642  24893044.9144                   24893045.5554
 11  8 23  2 41  0.0000000  0  9G12G26G29G05G15G25G02G30G21
 -27991970.95746 -20849277.60544  22528458.8284   22528457.4264
   3100914.88346   4954769.07044  22401540.4384                   22401539.0044
  -6262435.64547  -4843975.57445  21515109.0474                   21515107.0004
 -30818879.39147 -23865588.52045  21012727.0084                   21012723.8444
  14106156.92246  11455454.62944  23205481.1564                   23205480.3014
 -15703827.06247 -12195373.10545  21888867.3284                   21888867.6524
 -46276516.02347 -35909598.16044  22222308.3594                   22222303.4344
 -12007479.23447  -7661523.91444  22176562.2504                   22176560.1254
  24070750.50045  21315757.30142  24865791.6954                   24865792.2234
 11  8 23  2 41 30.0000000  0  9G12G26G29G05G15G25G02G30G21
 -27993087.17647 -20850147.42244  22528247.3754   22528244.8954
   2934449.77746   4825056.04744  22369862.8364                   22369861.8164
  -6420269.55147  -4966963.01245  21485074.5164                   21485072.1094
 -30846464.52047 -23887083.42645  21007477.6094                   21007474.6374
  13923792.21546  11313352.30143  23170778.0084                   23170776.9654
 -15750791.30547 -12231968.64145  21879930.2734                   21879930.5204
 -46319537.45347 -35943121.34844  22214121.5314                   22214116.8634
 -12043943.14847  -7689937.36744  22169623.2114                   22169621.2814
  23927528.12545  21204155.57442  24838537.2894                   24838537.6564
 11  8 23  2 42  0.0000000  0  9G12G26G29G05G15G25G02G30G21
 -27993983.58246 -20850845.94144  22528075.7034   22528074.5044
   2768328.58646   4695611.00044  22338251.1484                   22338249.6214
  -6577865.05947  -5089764.68045  21455084.8984                   21455082.7034
 -30873690.27347 -23908298.31645  21002296.7194                   21002293.9184
  13741517.24246  11171319.94143  23136092.3524                   23136091.1174
 -15797279.02047 -12268192.84445  21871084.1804                   21871084.4774
 -46362464.93447 -35976571.32044  22205952.3364                   22205948.1454
 -12079970.63747  -7718010.75444  22162767.2424                   22162765.6454
  23784300.69545  21092549.81342  24811281.5784                   24811282.3914
 11  8 23  2 42 30.0000000  0  9G12G26G29G05G15G25G02G30G21
 -27994662.45747 -20851374.93444  22527946.6564   22527944.7974
   2602555.69146   4566437.35944  22306705.3134                   22306704.3324
  -6735219.46547  -5212378.47745  21425141.4224                   21425139.5824
 -30900558.14147 -23929234.32445  20997184.0704                   20997180.9654
  13559336.00446  11029360.56643  23101424.3754                   23101422.7074
 -15843291.59047 -12304046.81645  21862328.1954                   21862328.7384
 -46405296.93446 -36009946.87144  22197801.8524                   22197797.8954
 -12115563.62947  -7745745.58244  22155994.1804                   22155992.2624
  23641068.465 5                  24784025.594
 11  8 23  2 43  0.0000000  0  9G12G26G29G05G15G25G02G30G21
 -27995127.71147 -20851737.50044  22527858.0394   22527856.3364
   2437133.65646   4437537.12144  22275227.0704                   22275225.0004
  -6892331.59447  -5334803.48045  21395243.9144                   21395241.6334
 -30927071.78147 -23949894.30145  20992138.5164                   20992135.5274
  13377250.08646  10887475.49243  23066774.4924                   23066772.7504
 -15888832.37547 -12339533.14545  21853662.2974                   21853662.5164
 -46448034.67647 -36043248.99244  22189669.5234                   22189665.1604
 -12150725.92246  -7773144.78944  22149302.6254                   22149300.9064
  23497829.789 5                  24756768.266
 11  8 23  2 43 30.0000000  0  9G12G26G29G05G15G25G02G30G21
 -27995383.71146 -20851936.99244  22527809.8364   22527807.4774
   2272064.97346   4308912.21144  22243815.2504                   22243813.3834
  -7049199.99647  -5457038.58645  21365392.6484                   21365390.6024
 -30953234.73047 -23970281.00845  20987159.8524                   20987157.3054
  13195261.75046  10745666.48443  23032142.6254                   23032140.9534
 -15933904.82847 -12374654.55145  21845085.7344                   21845085.6684
 -46490679.23047 -36076478.50444  22181553.9924                   22181550.2814
 -12185461.48046  -7800211.48444  22142693.3984                   22142691.4184
  23354582.688 5                  24729508.594
 11  8 23  2 44  0.0000000  0  9G12G26G29G05G15G25G02G30G21
 -27995431.48846 -20851974.24644  22527800.2734   22527799.0124
   2107355.19546   4180566.97744  22212471.7504                   22212469.8014
  -7205820.33247  -5579080.37945  21335589.1564                   21335586.3094
 -30979047.37947 -23990394.72345  20982247.6024                   20982245.1684
  13013375.91446  10603937.31644  22997531.6484                   22997529.3794
 -15978509.02747 -12409411.07845  21836597.1414                   21836597.6644
 -46533228.12546 -36109633.47744  22173457.4534                   22173453.1564
 -12219770.77046  -7826946.00844  22136164.0704                   22136163.0594
  23211329.145 5                  24702248.820
 11  8 23  2 44 30.0000000  0  9G12G26G29G05G15G25G02G30G21
 -27995275.73446 -20851852.91044  22527829.7814   22527828.7274
   1943006.76246   4052503.27744  22181197.5784                   22181195.7934
  -7362191.75047  -5700928.21545  21305832.0164                   21305830.0004
 -31004513.55147 -24010238.49645  20977401.7664                   20977398.8754
  12831594.38346  10462289.43843  22962938.5394                   22962937.8834
 -16022648.60547 -12443805.55545  21828197.7664                   21828198.1994
 -46575682.18447 -36142714.53544  22165378.5554                   22165374.1724
 -12253658.16847  -7853351.82044  22129715.6804                   22129714.1414
  23068066.816 5                  24674987.078
 11  8 23  2 45  0.0000000  0  9G12G26G29G05G15G25G02G30G21
 -27994917.76247 -20851574.00044  22527897.5944   22527896.2624
   1779024.29346   3924724.77743  22149992.5394                   22149990.9224
  -7518310.23847  -5822578.96145  21276124.0394                   21276121.8444
 -31029634.41047 -24029813.18445  20972622.2274                   20972618.8754
  12649921.44946  10320726.18443  22928367.8284                   22928366.1804
 -16066324.57447 -12477838.79345  21819886.5474                   21819886.9384
 -46618039.53146 -36175720.25444  22157318.2974                   22157314.1254
 -12287124.85246  -7879429.76244  22123347.1644                   22123345.6604
  22924796.695 5                  24647722.242
 11  8 23  2 45 30.0000000  0  9G12G26G29G05G15G25G02G30G21
 -26418942.70346 -19623541.52044  22827796.7504   22827794.9844
   3190835.38746   5024837.37543  22418650.3914                   22418649.7734
  -6098750.10947  -4716428.17645  21546257.2584                   21546254.8984
 -29478993.36747 -22821521.46545  21267698.6564                   21267696.0164
  14043784.49246  11406853.28143  23193611.7584                   23193609.4304
 -14534119.47347 -11283912.74645  22111455.9534                   22111455.5514
 -45084880.51647 -34981050.86744  22449069.3754                   22449064.6804
 -10744754.32046  -6677582.63344  22416850.7894
  22416848.9384                   24356941.262 5                  24920250.633
 11  8 23  2 46  0.0000000  0  9G12G26G29G05G15G25G02G30G21
 -26418191.99646 -19622956.59044  22827939.5314   22827937.5354
   3027593.82446   4897636.18444  22387587.0944                   22387585.9454
  -6254358.31247  -4837681.28945  21516645.8444                   21516643.7774
 -29503433.14547 -22840565.43745  21263048.4384                   21263044.8754
  13862335.97746  11265464.90643  23159082.3754                   23159081.1454
 -14576877.38747 -11317230.60245  22103319.5864                   22103319.1884
 -45127046.39546 -35013907.39144  22441045.0784                   22441040.9144
 -10777390.50446  -6703013.43044  22410639.8914
  22410638.7154                   24213651.480 5                  24892984.070
 11  8 23  2 46 30.0000000  0  9G12G26G29G05G15G25G02G30G21
 -26417248.90646 -19622221.73444  22828118.1094   22828117.1484
   2864728.90646   4770728.47344  22356594.8754                   22356593.4454
  -6409706.87547  -4958732.09045  21487083.7584                   21487081.7424
 -29527535.10947 -22859346.18745  21258461.3594                   21258458.7814
  13681004.96946  11124168.07044  23124577.0164                   23124575.0314
 -14619178.84847 -11350192.79745  22095269.5394                   22095269.6214
 -45169115.02046 -35046688.11744  22433039.2034                   22433035.4024
 -10809614.65246  -6728123.18744  22404507.5704
  22404506.1724                   24070352.219 6                  24865714.883
 11  8 23  2 47  0.0000000  0  9G12G26G29G05G15G25G02G30G21
 -26416117.11746 -19621339.86344  22828333.8204   22828332.3054
   2702243.53946   4644116.54343  22325675.3984                   22325673.5084
  -6564794.07447  -5079579.23845  21457571.9144                   21457569.9494
 -29551302.68447 -22877866.36345  21253938.6954                   21253935.5824
  13499794.07846  10982964.83643  23090093.2734                   23090091.7034
 -14661026.99247 -11382801.73845  22087306.0634                   22087306.3014
 -45211086.89147 -35079393.45744  22425052.0554                   22425047.6844
 -10841430.37946  -6752914.68744  22398454.0004
  22398451.8874                   23927042.109 6                  24838444.086
 11  8 23  2 47 30.0000000  0  9G12G26G29G05G15G25G02G30G21
 -26414798.48846 -19620312.38344  22828585.6804   22828583.3094
   2540142.09046   4517803.75444  22294828.5944                   22294827.1214
  -6719616.54347  -5200220.08245  21428110.2424                   21428107.6484
 -29574736.93047 -22896126.80945  21249478.9384                   21249476.3634
  13318707.34046  10841858.35943  23055633.7974                   23055631.6884
 -14702423.13347 -11415058.47345  22079428.5474                   22079428.8794
 -45252960.51647 -35112022.26244  22417084.2584                   22417079.7774
 -10872839.53546  -6777389.35544  22392477.1804
  22392474.9804                   23783721.590 6                  24811170.461
 11  8 23  2 48  0.0000000  0 10G18G12G26G29G05G15G25G02G30G21
  29665391.50415                  24740464.453
 -26413298.13346 -19619143.28144  22828870.6414   22828868.4344
   2378426.45346   4391791.61744  22264054.6094                   22264053.2544
  -6874173.85947  -5320654.32445  21398698.8594                   21398696.6294
 -29597842.38747 -22914131.06245  21245082.6884                   21245079.4804
  13137745.69546  10700849.32444  23021197.6094                   23021195.9304
 -14743371.58647 -11446966.35945  22071636.2504                   22071636.5634
 -45294737.67247 -35144575.87144  22409133.7894                   22409129.9774
 -10903846.82046  -6801550.90244  22386576.0554
  22386574.5554                   23640388.293 6                  24783896.422
 11  8 23  2 48 30.0000000  0 10G18G12G26G29G05G15G25G02G30G21
  29488683.680 5                  24706837.438
 -26411621.51246 -19617836.86343  22829189.7274   22829187.4694
   2217097.74646   4266080.96143  22233354.9774                   22233353.3634
  -7028466.02047  -5440881.94145  21369337.7584                   21369336.0394
 -29620623.87547 -22931882.85945  21240747.0784                   21240744.1884
  12956910.41446  10559938.78143  22986785.5314                   22986784.5234
 -14783877.02047 -11478529.03945  22063928.5474                   22063928.6954
 -45336419.98847 -35177055.59844  22401202.6024                   22401198.0904
 -10934457.27046  -6825403.23044  22380751.9304
  22380750.4264                   23497039.223 6                  24756616.930
 11  8 23  2 49  0.0000000  0 10G18G12G26G29G05G15G25G02G30G21
  29312140.504 5                  24673243.133
 -26409772.44146 -19616396.07444  22829541.4144   22829539.8444
   2056158.65246   4140673.92644  22202729.0554                   22202727.6254
  -7182491.20747  -5560901.52345  21340028.5864                   21340025.4694
 -29643084.70747 -22949384.81245  21236472.9774                   21236470.0434
  12776203.55946  10419128.28544  22952397.8134                   22952396.8484
 -14823942.72747 -11509749.07445  22056304.4534                   22056304.4924
 -45378007.97346 -35209461.78144  22393288.1484                   22393284.3054
 -10964674.81246  -6848949.37544  22375001.2504
  22375000.0514                   23353673.281 6                  24729334.742
 11  8 23  2 49 30.0000000  0 10G18G12G26G29G05G15G25G02G30G21
  29135762.781 5                  24639679.836
 -26407754.39146 -19614823.60544  22829925.6174   22829923.5904
   1895612.19146   4015572.84444  22172178.3134                   22172176.1054
  -7336247.86347  -5680711.86745  21310769.0234                   21310766.5864
 -29665227.80947 -22966639.18045  21232259.1334                   21232256.3364
  12595627.60546  10278419.79743  22918035.6024                   22918034.8244
 -14863571.64547 -11540628.75045  22048762.6484                   22048763.3794
 -45419501.91046 -35241794.73844  22385392.1884                   22385387.8754
 -10994502.63746  -6872191.87944  22369324.9694
  22369323.7624                   23210289.164 6                  24702049.836
 11  8 23  2 50  0.0000000  0 10G18G12G26G29G05G15G25G02G30G21
  28959552.559 5                  24606148.148
 -26405569.87546 -19613121.39544  22830341.3754   22830339.1954
   1735462.75446   3890781.12944  22141702.8594                   22141700.6414
  -7489732.58647  -5800310.31645  21281561.6254                   21281559.3364
 -29687055.02747 -22983647.38745  21228105.9224                   21228102.9454
  12415186.34846  10137816.27044  22883699.3134                   22883697.4454
 -14902765.44547 -11571169.37145  22041305.0164                   22041305.0234
 -45460900.68446 -35274053.52044  22377514.8134                   22377510.4614
 -11023942.93046  -6895132.38344  22363722.0474   22363721.0124   23066887.43046
  22223381.30952                  24674761.2114                   24674760.1604
 11  8 23  2 50 30.0000000  0 10G18G12G26G29G05G15G25G02G30G21
  28783514.141 5                  24572649.078
 -26403219.19546 -19611289.74644  22830789.0554   22830786.6644
   1575716.43446   3766303.54744  22111303.6954                   22111301.9184
  -7642940.40647  -5919692.99245  21252407.3524                   21252405.0434
 -29708565.89547 -23000409.09845  21224012.3674                   21224009.4574
  12234885.83246   9997322.41443  22849388.6414                   22849387.5274
 -14941523.83647 -11601370.71544  22033928.8984                   22033929.3984
 -45502201.16447 -35306235.71944  22369655.5314                   22369650.6414
 -11052995.85946  -6917771.03544  22358194.5394   22358192.5274   22923470.26646
  22111627.74642                  24647470.2814                   24647469.2934
 11  8 23  2 51  0.0000000  0 10G18G12G26G29G05G15G25G02G30G21
  28607646.36345  23250522.28152  24539181.2814                   24539183.4804
 -26400708.06246 -19609333.04344  22831266.7194   22831264.8834
   1416374.14846   3642140.76644  22080982.3444                   22080980.4344
  -7795871.69147  -6038860.18045  21223305.5554                   21223302.8094
 -29729765.47347 -23016928.23445  21219978.5314                   21219975.4574
  12054726.19546   9856938.35244  22815105.7504                   22815104.1604
 -14979852.07847 -11631236.87145  22026635.5164                   22026635.6374
 -45543406.12547 -35338343.46144  22361814.3054                   22361809.6764
 -11081667.14846  -6940112.32044  22352737.8984   22352736.6294   22780034.17646
  21999859.44142                  24620174.5634                   24620174.0354
 11  8 23  2 51 30.0000000  0 10G18G12G26G29G05G15G25G02G30G21
  28431952.05546  23113617.84842  24505748.4224                   24505748.9964
 -26398037.60246 -19607252.20344  22831774.9534   22831773.0944
   1257441.02347   3518296.83644  22050738.0944                   22050736.3324
  -7948522.16847  -6157808.57045  21194257.2664                   21194254.0824
 -29750654.37947 -23033205.30545  21216003.3984                   21216000.6414
  11874712.50846   9716668.02344  22780850.3754                   22780848.4024
 -15017750.76647 -11660768.30544  22019423.4384                   22019423.5704
 -45584512.47346 -35370374.37944  22353991.7034                   22353987.2704
 -11109957.66046  -6962156.87944  22347354.5634   22347353.1024   22636580.65245
  21888077.59442                  24592876.2194                   24592875.5004
 11  8 23  2 52  0.0000000  0 10G18G12G26G29G05G15G25G02G30G21
  28256432.79346  22976849.82842  24472347.4774                   24472348.4534
 -26395210.26646 -19605049.11344  22832313.1414   22832311.4454
   1098921.51247   3394775.20744  22020573.0004                   22020571.4384
  -8100888.71947  -6276535.69945  21165262.3134                   21165260.2584
 -29771234.97347 -23049242.12545  21212087.1724                   21212084.2854
  11694848.84446   9576514.57844  22746624.0234                   22746621.6334
 -15055221.78147 -11689966.49244  22012293.4454                   22012293.3204
 -45625519.61747 -35402328.00844  22346188.5704                   22346183.6914
 -11137869.84846  -6983906.66444  22342043.7974   22342041.5124   22493110.18845
  21776282.52742                  24565575.0704                   24565574.0314
 11  8 23  2 52 30.0000000  0 10G18G12G26G29G05G15G25G02G30G21
  28081090.87146  22840219.91843  24438981.5944                   24438981.6254
 -26392228.31246 -19602725.55544  22832880.4224   22832878.6914
    940820.05146   3271579.30544  21990487.4384                   21990485.6374
  -8252968.10947  -6395039.07445  21136322.9924                   21136320.4774
 -29791508.34447 -23065039.55945  21208228.7584                   21208226.1604
  11515139.08946   9436481.07944  22712425.1564                   22712424.5744
 -15092266.59847 -11718832.57845  22005244.3834                   22005243.8054
 -45666425.97347 -35434203.07444  22338404.4304                   22338399.3094
 -11165405.55546  -7005363.05544  22336803.9224   22336802.2464   22349622.74245
  21664474.27742                  24538270.3594                   24538269.6564
 11  8 23  2 53  0.0000000  0 10G18G12G26G29G05G15G25G02G30G21
  27905929.34445  22703730.64542  24405647.6724                   24405650.2424
 -26389093.52346 -19600282.87944  22833476.8834   22833475.2774
    783141.18847   3148712.73044  21960481.6484                   21960480.0394
  -8404756.54747  -6513315.73445  21107438.2344                   21107436.1644
 -29811475.77047 -23080598.58245  21204429.7504                   21204426.4774
  11335587.64546   9296570.90644  22678257.0164                   22678256.7114
 -15128886.58647 -11747367.62144  21998275.4534                   21998275.3674
 -45707230.09047 -35465998.50444  22330639.6024                   22330634.8244
 -11192566.44946  -7026527.39144  22331635.4064   22331633.5594   22206119.30145
  21552653.57042                  24510961.9224                   24510961.4614
 11  8 23  2 53 30.0000000  0 10G18G12G26G29G05G15G25G02G30G21
  27730946.73446  22567380.68842  24372349.9774                   24372351.1134
 -26385811.32446 -19597725.34844  22834102.6094   22834099.6484
    625885.99646   3026176.26644  21930556.7274                   21930555.1134
  -8556254.07447  -6631365.69945  21078609.3754                   21078607.3244
 -29831142.14547 -23095923.02045  21200686.4304                   21200683.9104
  11156195.13746   9156784.59444  22644120.8204                   22644119.0904
 -15165086.63347 -11775575.45744  21991386.3204                   21991386.9734
 -45747934.04347 -35497715.88744  22322894.2344                   22322889.5354
 -11219358.00046  -7047403.93444  22326536.7734   22326535.0594   22062597.21145
  21440818.28542                  24483650.9534                   24483650.4574
 11  8 23  2 54  0.0000000  0 10G18G12G26G29G05G15G25G02G30G21
  27556146.39545  22431172.91442  24339087.0084                   24339088.0204
 -26382382.83246 -19595053.82444  22834754.0554   22834751.8134
    469059.77346   2903974.10244  21900714.1564                   21900712.5274
  -8707456.69147  -6749185.87545  21049836.8674                   21049834.1454
 -29850507.82447 -23111013.14145  21197001.7424                   21196998.8594
  10976966.57446   9017126.03944  22610013.7894                   22610013.4454
 -15200867.50447 -11803456.64844  21984577.5234                   21984577.7274
 -45788535.54346 -35529353.43744  22315168.0164                   22315163.6134
 -11245781.23446  -7067993.46944  22321508.4924   22321506.8874   21919057.73845
  21328969.47342                  24456335.6564                   24456336.6644
 11  8 23  2 54 30.0000000  0 10G18G12G26G29G05G15G25G02G30G21
  27381528.691 5                  24305858.703
 -26378811.95746 -19592271.36744  22835433.1414   22835431.8794
    312665.16846   2782108.22744  21870953.1954                   21870950.9614
  -8858362.65647  -6866774.89545  21021119.6884                   21021118.1954
 -29869576.16847 -23125871.59445  21193373.5704                   21193370.4534
  10797904.26646   8877597.02344  22575940.4384                   22575938.3094
 -15236232.56247 -11831013.84044  21977848.0864                   21977848.1294
 -45829035.16047 -35560911.59444  22307460.7584                   22307455.8054
 -11271839.92647  -7088298.94544  22316549.7274   22316548.4024   21775499.34445
  21217105.89142                  24429018.0084                   24429017.6844
 11  8 23  2 55  0.0000000  0 10G18G12G26G29G05G15G25G02G30G21
  28782519.973 5                  24572456.156
 -24799682.36746 -18361780.79344  23135932.0704   23135930.3364
   1732130.44947   3888185.12944  22141068.4454                   22141066.2734
  -7433544.70347  -5756527.09045  21292252.9384                   21292251.0634
 -28312929.43047 -21912900.08245  21489593.2734                   21489590.5204
  12194437.12946   9965804.50444  22841690.9844                   22841689.3954
 -13695763.56247 -10630648.38744  22270989.4694                   22270989.9064
 -44294010.96946 -34364788.85244  22599566.4924                   22599561.4774
  -9722116.56246  -5880722.30144  22611452.3754   22611450.9384   23207346.12545
  22332830.77042                  24701488.0314                   24701489.7734
 11  8 23  2 55 30.0000000  0 10G18G12G26G29G05G15G25G02G30G21
  28608271.34415                  24539299.211
 -24795835.57846 -18358783.31244  23136663.8834   23136662.3204
   1576609.69546   3767000.19144  22111473.5554                   22111471.8014
  -7583849.48847  -5873647.66045  21263651.5634                   21263648.9534
 -28331410.50047 -21927300.90645  21486076.0164                   21486073.6844
  12015717.32446   9826542.37544  22807681.5704                   22807679.9734
 -13730304.37947 -10657563.30544  22264416.4694                   22264416.6374
 -44334304.38746 -34396186.32844  22591898.9614                   22591894.3404
  -9747454.77746  -5900466.37144  22606630.4304                   22606629.2774
  23063749.15645                  22220937.16042  24674162.2734   24674163.8284
 11  8 23  2 56  0.0000000  0 10G18G12G26G29G05G15G25G02G30G21
  28434209.238 5                  24506176.195
 -24791855.34446 -18355681.86743  23137421.4614   23137419.8524
   1421531.10946   3646159.79744  22081962.9844                   22081961.3284
  -7733849.75447  -5990530.96145  21235108.0314                   21235105.5354
 -28349601.57047 -21941475.75445  21482614.4454                   21482611.7974
  11837173.37946   9687417.27744  22773706.5634                   22773704.7814
 -13764436.95347 -10684160.13345  22257921.3834                   22257921.6844
 -44374494.37546 -34427503.21544  22584250.9304                   22584246.2774
  -9772437.26246  -5919933.25444  22601876.3204   22601875.4964   22920132.34045
                                  22109028.08642  24646834.2344   24646833.9344
 11  8 23  2 56 30.0000000  0 10G18G12G26G29G05G15G25G02G30G21
  28260333.527 5                  24473088.805
 -24787745.89846 -18352479.73844  23138203.2734   23138201.6374
   1266896.91047   3525665.68044  22052537.8984                   22052535.7704
  -7883545.15647  -6107176.69145  21206622.0944                   21206619.2424
 -28367506.15647 -21955427.36745  21479207.6094                   21479205.0474
  11658807.08646   9548430.62144  22739764.2584                   22739762.2814
 -13798165.29347 -10710441.95344  22251503.1644                   22251503.2974
 -44414581.63746 -34458740.05144  22576622.9064                   22576618.3054
  -9797068.33646  -5939126.30944  22597189.4774   22597187.6724   22776493.87545
                                  21997102.11342  24619499.7274   24619500.6884
 11  8 23  2 57  0.0000000  0 10G18G12G26G29G05G15G25G02G30G21
  28086645.922 6                  24440036.547
 -24783510.12946 -18349179.16843  23139009.5234   23139007.8404
   1112710.67646   3405520.60244  22023196.3754                   22023194.7504
  -8032932.51247  -6223582.37145  21178193.2584                   21178191.6564
 -28385126.24647 -21969157.29345  21475854.4454                   21475851.5904
  11480622.19946   9409585.27344  22705856.8754                   22705854.9614
 -13831491.37147 -10736410.34845  22245161.8914                   22245161.4614
 -44454565.26646 -34489896.13344  22569013.7814                   22569009.6254
  -9821350.42646  -5958047.42244  22592568.7584   22592566.9144   22632833.81645
                                  21885159.29742  24592162.6334   24592162.6254
 11  8 23  2 57 30.0000000  0 10G18G12G26G29G05G15G25G02G30G21
  27913147.375 6                  24407020.922
 -24779150.90646 -18345782.41043  23139839.2584   23139837.2384
    958975.62146   3285727.10544  21993940.7274                   21993939.6914
  -8182009.44547  -6339746.18045  21149825.6724                   21149822.8364
 -28402464.62147 -21982667.69545  21472555.1414                   21472551.8404
  11302621.57446   9270883.53544  22671983.9224                   22671982.6604
 -13864418.15247 -10762067.58245  22238895.8754                   22238895.5984
 -44494445.20346 -34520971.43444  22561424.5864                   22561420.6684
  -9845286.69546  -5976699.05544  22588013.4224   22588012.2154   22489151.43845
                                  21773199.14542  24564819.7424   24564820.7704
 11  8 23  2 58  0.0000000  0 10G18G12G26G29G05G15G25G02G30G21
  27739840.07046  23526342.51253  24374041.3984                   24374041.8284
 -24774670.17246 -18342290.96544  23140691.5394   23140689.9804
    805696.26246   3166288.70744  21964772.7424                   21964771.5164
  -8330772.62147  -6455665.51645  21121517.2274                   21121514.7734
 -28419522.71147 -21995959.70745  21469309.0394                   21469306.4104
  11124809.71546   9132328.88344  22638148.1954                   22638146.2584
 -13896947.12947 -10787414.85244  22232705.3914                   22232705.7234
 -44534219.49246 -34551964.38744  22553856.1334                   22553852.0824
  -9868879.12146  -5995082.80144  22583523.9924   22583522.5084   22345447.81345
                                  21661222.38742  24537473.6644   24537474.4844
 11  8 23  2 58 30.0000000  0 10G18G12G26G29G05G15G25G02G30G21
  27566724.57846  23391447.50842  24341098.3674                   24341099.4574
 -24770072.07846 -18338708.07844  23141566.7584   23141565.0044
    652875.14546   3047207.37144  21935692.1804                   21935690.7734
  -8479220.55147  -6571339.19545  21093267.8134                   21093266.0354
 -28436304.19147 -22009036.17245  21466115.8674                   21466112.6254
  10947188.68446   8993922.93844  22604348.1334                   22604346.7034
 -13929081.92247 -10812454.96945  22226590.3134                   22226590.5554
 -44573888.87546 -34582875.59844  22546306.8834                   22546303.3954
  -9892131.69146  -6013201.68744  22579100.2734   22579097.9064   22201721.30546
                                  21549227.84842  24510124.0004   24510123.2774
 11  8 23  2 59  0.0000000  0 10G18G12G26G29G05G15G25G02G30G21
  27393802.55546  23256703.30543  24308192.4694                   24308192.4384
 -24765359.02046 -18335035.59044  23142463.8204   23142462.0164
    500515.88346   2928485.91444  21906699.2664                   21906697.6484
  -8627350.20347  -6686764.88345  21065079.1954                   21065077.6454
 -28452810.42647 -22021898.15645  21462974.3204                   21462971.8714
  10769762.00446   8855668.42244  22570584.4774                   22570582.8754
 -13960824.75047 -10837189.66045  22220550.4224                   22220550.0204
 -44613452.44546 -34613704.37144  22538778.9534                   22538774.4144
  -9915046.95346  -6031057.77343  22574738.6644   22574737.8874   22057971.91845
                                  21437215.39842  24482769.5554   24482768.0474
 11  8 23  2 59 30.0000000  0 10G18G12G26G29G05G15G25G02G30G21
  27221075.28946  23122110.75442  24275324.4924                   24275323.3634
 -24760534.14546 -18331275.97744  23143381.9534   23143379.8674
    348622.07046   2810127.14144  21877794.6334                   21877793.0124
  -8775159.55147  -6801940.98045  21036952.4774                   21036950.6884
 -28469044.20747 -22034547.83645  21459885.4144                   21459882.9144
  10592532.82846   8717567.82444  22536858.7734                   22536856.9844
 -13992178.37547 -10861621.06644  22214583.8674                   22214584.0084
 -44652909.89546 -34644450.44544  22531269.9924                   22531265.7814
  -9937628.00446  -6048653.40643  22570442.1564   22570440.8204   21914198.70746
                                  21325184.44942  24455410.2424   24455409.5904
 11  8 23  3  0  0.0000000  0 10G18G12G26G29G05G15G25G02G30G21
  27048544.25445  22987671.13342  24242491.8134                   24242492.2234
 -24755599.77046 -18327431.05143  23144320.9924   23144319.0944
    197197.27046   2692133.82044  21848978.8364                   21848978.3014
  -8922645.23847  -6916864.87145  21008886.9454                   21008884.5124
 -28485007.28147 -22046986.56245  21456847.8754                   21456845.2974
  10415504.84846   8579623.98044  22503171.7114                   22503169.6884
 -14023144.86347 -10885750.82044  22208690.9614                   22208691.4844
 -44692260.06646 -34675112.91444  22523781.3914                   22523777.3244
  -9959877.24646  -6065990.50044  22566207.4454   22566206.3134   21770402.60246
                                  21213135.65642  24428047.6954   24428046.2154
 11  8 23  3  0 30.0000000  0 10G18G12G26G29G05G15G25G02G30G21
  26876211.43445  22853385.96542  24209698.5474                   24209697.9064
 -24750558.25846 -18323502.64543  23145279.4924   23145278.5634
     46245.94147   2574509.44144  21820254.7734                   21820252.4654
  -9069804.20347  -7031534.18745  20980883.8914                   20980881.1214
 -28500700.94947 -22059215.37545  21453860.8134                   21453858.5864
  10238682.31346   8441840.25444  22469523.0864                   22469521.5944
 -14053725.98847 -10909580.28144  22202872.0394                   22202871.4574
 -44731501.35246 -34705690.55144  22516314.7974                   22516310.7464
  -9981796.84046  -6083070.73443  22562036.9534   22562035.3874   21626583.95746
                                  21101069.28942  24400679.2584   24400677.8714
 11  8 23  3  1  0.0000000  0 10G18G12G26G29G05G15G25G02G30G21
  26704076.74645  22719255.22342  24176941.9224                   24176942.3634
 -24745413.98446 -18319494.14143  23146258.9304   23146257.4734
   -104230.02746   2457255.45744  21791619.6724                   21791618.0434
  -9216635.23447  -7145947.96545  20952942.7504                   20952940.2424
 -28516129.18047 -22071237.34445  21450925.2814                   21450922.4184
  10062066.81346   8304217.83244  22435914.2734                   22435912.6294
 -14083925.93447 -10933112.73044  22197125.0944                   22197125.3484
 -44770635.05946 -34736184.37544  22508867.3834                   22508863.7544
 -10003391.27746  -6099897.59843  22557927.4534   22557926.0864   21482740.68446
                                  20988983.71542  24373307.2194   24373304.9264
 11  8 23  3  1 30.0000000  0 10G18G12G26G29G05G15G25G02G30G21
  26532140.86745  22585279.32842  24144223.5704                   24144223.6844
 -24740170.37546 -18315408.25843  23147256.7584   23147255.4304
   -254228.03946   2340373.91444  21763076.3524                   21763074.4574
  -9363136.48847  -7260104.77045  20925064.1174                   20925062.0634
 -28531295.05947 -22083054.89145  21448039.4614                   21448036.1994
   9885661.23846   8166758.98444  22402345.4384                   22402343.9694
 -14113747.86747 -10956350.62544  22191449.9304                   22191450.3714
 -44809661.21146 -34766594.38344  22501440.6174                   22501436.9454
 -10024664.05146  -6116473.81244  22553879.6804   22553878.2344   21338872.09446
                                  20876878.41042  24345929.2894   24345927.0434
 11  8 23  3  2  0.0000000  0 10G18G12G26G29G05G15G25G02G30G21
  26360405.34445  22451459.52342  24111541.5784                   24111544.2234
 -24734829.79346 -18311246.82843  23148273.1564   23148271.6374
   -403744.46946   2223867.64144  21734623.7584                   21734622.2934
  -9509305.18447  -7374002.44145  20897248.9924                   20897246.7894
 -28546200.64147 -22094669.60245  21445202.9064                   21445200.0084
   9709468.70346   8029466.14544  22368817.8524                   22368815.0944
 -14143194.22347 -10979295.86344  22185846.1094                   22185846.3284
 -44848578.83646 -34796919.82844  22494035.8834                   22494031.0784
 -10045617.94146  -6132801.53944  22549892.5234   22549890.7704   21194978.05946
                                  20764753.31642  24318546.9924   24318544.9024
 11  8 23  3  2 30.0000000  0 10G18G12G26G29G05G15G25G02G30G21
  26188872.46945  22317797.73442  24078900.9924                   24078902.8554
 -24729394.12146 -18307011.25443  23149307.6254   23149306.0664
   -552774.19547   2107740.63744  21706263.6724                   21706263.0314
  -9655137.64547  -7487638.10545  20869498.2894                   20869495.8164
 -28560846.67647 -22106082.07045  21442415.9064                   21442412.6174
   9533494.14846   7892343.16844  22335329.9384                   22335328.4534
 -14172266.27347 -11001949.42244  22180313.9454                   22180314.0984
 -44887385.64146 -34827158.93444  22486651.4694                   22486646.3834
 -10066254.55146  -6148882.03144  22545965.2734   22545963.4224   21051059.73845
                                  20652609.27342  24291159.4924   24291158.1804
 11  8 23  3  3  0.0000000  0 10G18G12G26G29G05G15G25G02G30G21
  26017540.75446  22184292.68842  24046297.7664                   24046298.9184
 -24723869.17646 -18302706.14543  23150359.8444   23150357.2704
   -701317.30147   1991992.78944  21677998.1564                   21677996.1994
  -9800634.33247  -7601012.14545  20841811.1334                   20841808.9454
 -28575238.74247 -22117296.64845  21439677.3524                   21439673.7384
   9357737.56346   7755390.03544  22301884.9304                   22301883.1334
 -14200969.72347 -11024315.78544  22174851.9614                   22174852.4264
 -44926084.56646 -34857313.96544  22479286.7344                   22479282.4534
 -10086579.85546  -6164719.96143  22542097.8754   22542096.0204   20907113.78146
                                  20540443.69542  24263767.2584   24263766.5984
 11  8 23  3  3 30.0000000  0 10G18G12G26G29G05G15G25G02G30G21
  25846414.83246  22050947.94542  24013733.3444                   24013734.6954
 -24718254.23046 -18298330.92243  23151427.4144   23151425.5904
   -849367.03946   1876629.40644  21649825.3204                   21649823.6254
  -9945789.28547  -7714119.87145  20814189.0474                   20814186.5314
 -28589375.96947 -22128312.64545  21436986.7814                   21436983.7544
   9182206.03546   7618612.28144  22268482.1564                   22268480.2424
 -14229303.77047 -11046394.28144  22169460.4774                   22169460.7664
 -44964671.54746 -34887381.76644  22471943.7584                   22471939.4614
 -10106593.44946  -6180314.98444  22538289.0554   22538286.9844   20763143.21145
                                  20428258.95742  24236371.3524   24236369.7624
 11  8 23  3  4  0.0000000  0 10G18G12G26G29G05G15G25G02G30G21
  27250920.27046  23145367.84042  24281002.2114                   24281002.9734
 -23137134.01246 -17066289.21543  23452305.0554   23452303.4024
    578503.47747   2989255.80144  21921539.4614                   21921537.4534
  -8515176.57447  -6599356.69945  21086425.8754                   21086422.8714
 -27027841.11347 -20911532.21945  21734136.9144   21734133.9384   10582326.97746
   8709615.66444                  22534916.4844                   22534914.5474
 -12681851.57447  -9840587.40244  22463930.4304                   22463931.2584
 -43427725.91046 -33689761.80144  22764415.0084                   22764410.4574
  -8550878.95746  -4968069.95343  22834331.5864   22834329.9774   22194571.09445
                                  21543657.39142  24508762.6724   24508760.9184
 11  8 23  3  4 30.0000000  0 10G18G12G26G29G05G15G25G02G30G21
  27080205.33646  23012343.36742  24248515.7274                   24248516.1214
 -23131352.42646 -17061784.13743  23453405.4454   23453403.3014
    431446.15247   2874665.73844  21893555.7504                   21893553.2584
  -8659644.87147  -6711929.36345  21058933.8204                   21058931.6214
 -27041479.05547 -20922159.17245  21731541.9694   21731538.6134   10407250.28546
   8573192.30544                  22501601.0864                   22501598.5044
 -12709459.40247  -9862100.02044  22458677.2584                   22458677.4264
 -43466091.40646 -33719657.02044  22757113.9774                   22757109.7384
  -8570282.47746  -4983189.57843  22830640.1484   22830637.7704   22050546.06646
                                  21431430.25042  24481355.0554   24481354.0904
 11  8 23  3  5  0.0000000  0 10G18G12G26G29G05G15G25G02G30G21
  26909697.21946  22879479.98842  24216068.7424                   24216069.2624
 -23125491.93446 -17057217.57443  23454520.3914   23454518.8244
    284889.75047   2760465.97744  21865667.4534                   21865664.5744
  -8803766.38347  -6824231.82045  21031509.0394                   21031505.9924
 -27054871.32047 -20932594.67645  21728993.6094   21728990.3244   10232405.69146
   8436949.82444                  22468328.5234                   22468326.9884
 -12736708.28147  -9883332.93444  22453492.1804                   22453492.1094
 -43504345.39146 -33749465.35544  22749834.9774                   22749830.1914
  -8589385.63746  -4998075.17243  22827004.1094   22827002.3324   21906493.62145
                                  21319181.68843  24453943.3984   24453942.3284
 11  8 23  3  5 30.0000000  0 10G18G12G26G29G05G15G25G02G30G21
  26739397.07046  22746778.69142  24183661.7344                   24183662.1914
 -23119555.82046 -17052592.08643  23455649.3444   23455648.5204
    138837.53147   2646659.08644  21837874.1644                   21837872.0204
  -8947538.88747  -6936262.31245  21004149.5864                   21004147.2234
 -27068020.17647 -20942840.50845  21726491.3524   21726487.7854   10057796.56346
   8300890.80944                  22435101.7664                   22435099.3054
 -12763601.28947  -9904288.53944  22448374.3364                   22448374.9494
 -43542487.87946 -33779186.79344  22742577.0474                   22742572.7734
  -8608191.64146  -5012729.23044  22823425.4534   22823423.7544   21762413.03545
                                  21206911.24642  24426525.3204   24426524.3674
 11  8 23  3  6  0.0000000  0 10G18G12G26G29G05G15G25G02G30G21
  26569305.57846  22614239.94542  24151294.7734                   24151293.5824
 -23113547.24246 -17047910.12543  23456792.8984   23456791.8984
     -6708.00047   2533247.02044  21810177.0864                   21810175.4064
  -9090960.40247  -7048019.31245  20976857.5084                   20976855.1644
 -27080928.30147 -20952898.77745  21724034.5554   21724032.0274
   9883425.29746   8165017.14844  22401919.7274                   22401917.9064
 -12790141.47347  -9924969.23844  22443324.2194                   22443324.6414
 -43580518.44546 -33808821.03544  22735339.4224                   22735335.1684
  -8626703.96146  -5027154.41843  22819902.5944   22819901.3364   21618303.43845
                                  21094618.09842  24399102.1954   24399100.7774
 11  8 23  3  6 30.0000000  0 10G18G12G26G29G05G15G25G02G30G21
  26399425.28946  22481865.83642  24118967.0704                   24118966.8054
 -23107467.72346 -17043172.87943  23457950.1884   23457948.7274
   -151742.14546   2420233.42644  21782578.8134                   21782576.2504
  -9234026.96947  -7159499.72745  20949632.8284                   20949630.2344
 -27093596.78547 -20962770.31245  21721624.1094   21721621.3204
   9709296.55146   8029332.46944  22368784.3134                   22368782.2894
 -12816330.08247  -9945375.98044  22438339.8914                   22438340.9024
 -43618435.17246 -33838366.57043  22728124.2734                   22728120.2814
  -8644924.12546  -5041351.98044  22816435.6564   22816434.2384   21474166.20745
                                  20982303.50042  24371673.8054   24371672.3244
 11  8 23  3  7  0.0000000  0 10G18G12G26G29G05G15G25G02G30G21
  26229757.49246  22349657.30142  24086680.0394                   24086679.7974
 -23101320.12946 -17038382.58243  23459119.8054   23459118.4184
   -296261.80947   2307620.71544  21755077.2194                   21755075.0594
  -9376736.01247  -7270701.55945  20922476.1094                   20922473.6914
 -27106027.93447 -20972456.89845  21719258.2274   21719255.7344
   9535413.88746   7893839.53544  22335694.9774                   22335693.5204
 -12842169.99247  -9965510.98444  22433423.2664                   22433423.4414
 -43656237.44546 -33867822.91443  22720930.3204                   22720926.1684
  -8662855.26646  -5055324.31243  22813023.4694   22813022.5634   21330001.01645
                                  20869967.11742  24344239.9224   24344238.6414
 11  8 23  3  7 30.0000000  0 10G18G12G26G29G05G15G25G02G30G21
  26060302.15645  22217614.31642  24054433.2274                   24054433.4924
 -23095108.25446 -17033542.22343  23460302.0234   23460300.7194
   -440264.60547   2195410.75844  21727674.7034                   21727672.0004
  -9519086.28147  -7381623.82045  20895387.6174                   20895385.5044
 -27118225.24247 -20981961.28145  21716937.2584   21716934.7624
   9361778.95746   7758539.64544  22302653.9774                   22302651.3364
 -12867665.13747  -9985377.35244  22428571.8364                   22428572.0274
 -43693925.79346 -33897190.46143  22713758.4694                   22713754.1484
  -8680501.62546  -5069074.73443  22809665.6564   22809664.3204   21185806.61345
                                  20757607.92243  24316799.7114   24316799.0124
 11  8 23  3  8  0.0000000  0 10G18G12G26G29G05G15G25G02G30G21
  25891059.21945  22085736.77742  24022227.1564                   24022227.5124
 -23088836.22346 -17028654.95343  23461496.0084   23461494.0314
   -583748.78547   2083604.93044  21700370.2114                   21700368.0864
  -9661076.66847  -7492265.66445  20868368.1334                   20868365.6294
 -27130191.75847 -20991285.81645  21714660.3594   21714657.2704
   9188394.06646   7623434.55944  22269659.2504                   22269657.5124
 -12892819.32447 -10004978.04344  22423784.8054                   22423785.2424
 -43731500.50846 -33926469.45743  22706609.1484                   22706604.2774
  -8697867.28946  -5082606.46543  22806361.2504   22806359.8594   21041581.66846
                                  20645224.93042  24289355.2194   24289353.2194
 11  8 23  3  8 30.0000000  0 10G18G12G26G29G05G15G25G02G30G21
  25722031.71545  21954027.19542  23990063.0234                   23990063.7114
 -23082504.96546 -17023721.55143  23462700.6484   23462699.6174
   -726709.02347   1972207.35544  21673165.7504                   21673164.1684
  -9802702.46947  -7602623.40645  20841417.3444                   20841414.8134
 -27141927.82047 -21000430.80145  21712426.7814   21712423.8444
   9015264.84446   7488528.70744  22236714.4614                   22236712.2774
 -12917633.22747 -10024313.56644  22419062.6254                   22419063.4304
 -43768959.11346 -33955658.02044  22699480.4384                   22699476.8204
  -8714953.14546  -5095920.14543  22803108.7734   22803107.8834   20897327.89146
                                  20532819.51642  24261905.2194   24261902.9184
 11  8 23  3  9  0.0000000  0 10G18G12G26G29G05G15G25G02G30G21
  25553219.46145  21822485.32842  23957938.3284                   23957938.6684
 -23076118.74246 -17018745.32443  23463916.0864   23463914.9414
   -869143.87147   1861219.17244  21646061.3754                   21646059.1954
  -9943962.76647  -7712696.34445  20814536.3524                   20814534.0234
 -27153437.52747 -21009399.38745  21710236.7664   21710233.4924
   8842392.72346   7353823.18844  22203817.2734                   22203815.4804
 -12942111.25847 -10043387.39844  22414404.6414                   22414405.9304
 -43806302.80546 -33984757.02344  22692374.6954                   22692369.7664
  -8731763.95746  -5109019.51243  22799910.0474   22799908.6884   20753043.48446
                                  20420390.23843  24234448.8364   24234446.5704
 11  8 23  3  9 30.0000000  0 10G18G12G26G29G05G15G25G02G30G21
  25384624.78945  21691113.00842  23925856.1024                   23925856.8594
 -23069679.11346 -17013727.45743  23465140.5164   23465140.0744
  -1011048.74247   1750643.95744  21619057.2894                   21619055.9654
 -10084853.98847  -7822481.68745  20787725.6334                   20787723.1454
 -27164721.67647 -21018192.21945  21708089.2974   21708086.3164
   8669782.09046   7219321.44544  22170970.3054                   22170968.7734
 -12966254.99647 -10062200.73844  22409811.0084                   22409811.2774
 -43843529.50446 -34013764.89143  22685290.3444                   22685286.3984
  -8748301.42646  -5121905.86743  22796763.3914   22796762.2384   20608729.23846
                                  20307937.65642  24206985.7194   24206984.4224
 11  8 23  3 10  0.0000000  0 10G18G12G26G29G05G15G25G02G30G21
  25216246.98045  21559909.62542  23893815.1484                   23893814.4024
 -23063190.99246 -17008671.85243  23466375.8284   23466375.1454
  -1152422.69946   1640482.45744  21592155.5234                   21592153.1684
 -10225375.64547  -7931979.06645  20760985.3984                   20760982.8484
 -27175784.64847 -21026812.71545  21705983.9534   21705981.3284
   8497434.10546   7085024.35544  22138174.4454                   22138171.9144
 -12990069.14847 -10080757.24244  22405278.8594                   22405279.4964
 -43880640.61746 -34042682.64543  22678228.7894                   22678224.0314
  -8764570.59446  -5134583.17643  22793667.8834   22793666.1334   20464383.23846
                                  20195460.30942  24179517.8594   24179515.9414
 11  8 23  3 10 30.0000000  0 10G18G12G26G29G05G15G25G02G30G21
  25048088.02045  21428876.77342  23861815.2344                   23861815.0784
 -23056656.02346 -17003579.70743  23467619.5944   23467618.8284
  -1293261.49247   1530737.94544  21565354.1724                   21565352.3554
 -10365523.96147  -8041185.53945  20734315.9454                   20734313.6094
 -27186627.50447 -21035261.69145  21703920.5474   21703918.1054
   8325353.46146   6950935.59444  22105428.4844                   22105425.9654
 -13013555.33647 -10099058.20344  22400810.5784                   22400809.8984
 -43917634.52346 -34071509.08643  22671188.7814                   22671184.1914
  -8780573.34046  -5147052.89543  22790622.5554   22790620.4774   20320006.59446
                                  20082959.14542  24152043.7274   24152041.4844
 11  8 23  3 11  0.0000000  0 10G18G12G26G29G05G15G25G02G30G21
  24880149.36745  21298015.57042  23829858.6024                   23829857.3444
 -23050076.50446 -16998452.84043  23468871.7114   23468870.1844
  -1433561.48847   1421413.28944  21538656.1804                   21538654.1954
 -10505296.06647  -8150098.85545  20707718.1024                   20707716.0474
 -27197251.85247 -21043540.41845  21701899.3054   21701896.2154
   8153543.67247   6817057.88744  22072734.0084                   22072731.6994
 -13036715.95747 -10117105.46544  22396402.3364                   22396402.8054
 -43954510.14146 -34100243.34043  22664171.9304                   22664167.5434
  -8796312.18446  -5159316.96543  22787627.5234   22787626.2464   20175599.34446
                                  19970434.10243  24124564.1724   24124561.7734
 11  8 23  3 11 30.0000000  0 10G18G12G26G29G05G15G25G02G30G21
  24712430.65646  21167325.80142  23797941.3984                   23797941.1094
 -23043457.15246 -16993294.94143  23470131.1724   23470129.8404
  -1573321.45747   1312509.43044  21512061.2034                   21512058.8244
 -10644691.76647  -8258718.86745  20681192.1414                   20681189.7894
 -27207662.26647 -21051652.42645  21699918.0784   21699914.9774
   7982006.12546   6683392.32044  22040091.2274                   22040089.5434
 -13059555.63747 -10134902.66444  22392056.5394                   22392057.0474
 -43991268.48846 -34128886.24643  22657176.5784                   22657172.1954
  -8811792.14846  -5171379.31243  22784681.7034   22784680.4384   20031159.44146
                                  19857883.60942  24097077.8984   24097075.8204
 11  8 23  3 12  0.0000000  0 10G18G12G26G29G05G15G25G02G30G21
  24544932.00046  21036807.46542  23766068.4924                   23766066.9574
 -23036801.42246 -16988108.69943  23471397.7734   23471396.2584
  -1712539.32047   1204028.00044  21485568.4534                   21485566.2074
 -10783708.94947  -8367043.92245  20654737.7734                   20654735.3284
 -27217861.27747 -21059599.71545  21697977.0784   21697974.3594
   7810743.29346   6549940.80944  22007501.2274                   22007498.7734
 -13082077.96147 -10152452.55144  22387770.2194                   22387770.8984
 -44027909.67646 -34157437.83644  22650203.8834                   22650199.8714
  -8827017.02046  -5183242.88743  22781784.4064   22781783.4574   19886685.91446
                                  19745306.91842  24069585.3834   24069583.3874
 11  8 23  3 12 30.0000000  0 10G18G12G26G29G05G15G25G02G30G21
  24377660.31346  20906465.98843  23734236.6644                   23734235.7154
 -23030106.37946 -16982891.82443  23472672.2194   23472670.3714
  -1851206.29347   1095975.85244  21459180.6724                   21459179.1564
 -10922339.74647  -8475067.90645  20628357.1334                   20628354.9024
 -27227845.46547 -21067379.61345  21696077.7114   21696074.2504
   7639764.27347   6416710.44944  21974964.5634                   21974962.2894
 -13104279.97747 -10169752.84844  22383545.8134                   22383545.9454
 -44064427.43746 -34185893.28543  22643255.4694                   22643251.3714
  -8841983.98446  -5194905.50443  22778936.0084   22778935.1294   19742184.71546
                                  19632708.69942  24042087.3364   24042085.5044
 11  8 23  3 13  0.0000000  0 10G18G12G26G29G05G15G25G02G30G21
  25786037.64846  22003902.95342  24002243.3914                   24002241.2664
 -21447959.51646 -15750050.14843  23773744.0864   23773743.1024
   -413899.04747   2215955.52344  21732691.0084                   21732689.3164
  -9485161.35247  -7355188.62145  20901843.2664                   20901841.1454
 -25662201.16047 -19847397.05944  21994009.7734                   21994006.2504
   9044493.35247   7511304.57844  22242276.0314                   22242273.1884
 -11550748.19547  -8959208.63744  22679172.9454                   22679173.2544
 -42525404.32046 -32986654.50443  22936121.3054                   22936117.3164
  -7281280.08246  -3978772.62143  23075929.3444   23075927.3674   21173075.56346
                                  20747688.64143  24314377.1644   24314375.1094
 11  8 23  3 13 30.0000000  0 10G18G12G26G29G05G15G25G02G30G21
  25619214.98046  21873911.41042  23970497.3754                   23970495.7934
 -21441202.22346 -15744784.77343  23775030.8444   23775029.5124
   -551462.94947   2108762.89844  21706513.7034                   21706512.0824
  -9623019.70747  -7462610.69545  20875609.7734                   20875607.3634
 -25671770.32047 -19854853.55545  21992188.5784                   21992185.7504
   8874083.44547   7378517.71144  22209847.8364                   22209845.6334
 -11572325.94547  -8976022.50844  22675066.7194                   22675067.1024
 -42561681.28546 -33014922.29743  22929217.9774                   22929213.6914
  -7295748.37546  -3990046.64843  23073175.9384   23073174.4304   21028509.73846
                                  20635040.06342  24286867.0634   24286865.1134
 11  8 23  3 14  0.0000000  0 10G18G12G26G29G05G15G25G02G30G21
  25452617.46146  21744095.22742  23938793.9064                   23938793.0864
 -21434418.85946 -15739499.07843  23776320.8134   23776320.7274
   -688471.92247   2002002.68444  21680442.1254                   21680439.8054
  -9760489.27747  -7569729.83245  20849449.8914                   20849447.9804
 -25681136.57447 -19862151.94145  21990406.5474                   21990403.5234
   8703962.04347   7245955.65244  22177474.5864                   22177472.7034
 -11593596.84847  -8992597.25444  22671018.7814                   22671019.7664
 -42597838.01246 -33043096.39844  22922337.9144                   22922333.2704
  -7309973.03146  -4001130.82443  23070468.3754   23070467.8244   20883910.45346
                                  20522365.35942  24259350.5084   24259348.5274
 11  8 23  3 14 30.0000000  0 10G18G12G26G29G05G15G25G02G30G21
  25286246.08646  21614455.29342  23907135.2344                   23907132.9884
 -21427612.14846 -15734195.19543  23777616.8754   23777615.6254
   -824922.98047   1895677.19944  21654475.9224                   21654474.1214
  -9897567.56247  -7676544.06245  20823365.2504                   20823362.6134
 -25690301.81247 -19869293.69545  21988662.2344                   21988659.3484
   8534132.14547   7113620.71144  22145156.5864                   22145155.1174
 -11614563.66047  -9008935.08244  22667029.2974                   22667030.0554
 -42633873.62546 -33071176.12943  22915480.3134                   22915476.3634
  -7323956.88346  -4012027.37943  23067807.9844   23067806.6844   20739277.59846
                                  20409664.50843  24231827.6724   24231825.7894
 11  8 23  3 15  0.0000000  0 10G18G12G26G29G05G15G25G02G30G21
  25120102.92246  21484993.18442  23875518.6884                   23875517.3134
 -21420784.01646 -15728874.61743  23778916.3284   23778915.2774
   -960812.14547   1789789.56644  21628617.1644                   21628615.2504
 -10034251.07047  -7783050.68445  20797354.6254                   20797352.2544
 -25699266.93747 -19876279.52345  21986956.0704                   21986953.3524
   8364598.10247   6981516.31344  22112895.7194                   22112894.0274
 -11635228.27747  -9025037.41044  22663096.7424                   22663097.7584
 -42669786.82446 -33099160.46143  22908646.5164                   22908642.1524
  -7337702.12546  -4022737.95343  23065192.4304   23065190.6024   20594612.15246
                                  20296938.30943  24204298.9614   24204297.1684
 11  8 23  3 15 30.0000000  0 10G18G12G26G29G05G15G25G02G30G21
  24954187.42646  21355708.49242  23843946.2894                   23843944.6484
 -21413938.81646 -15723540.73843  23780218.5634   23780217.5664
  -1096138.30147   1684340.63744  21602866.0704                   21602863.3204
 -10170539.44547  -7889249.39545  20771420.1174                   20771417.4734
 -25708036.33647 -19883112.84445  21985287.5944                   21985284.7704
   8195361.39547   6849643.60244  22080690.7424                   22080688.6174
 -11655595.31647  -9040907.85944  22659221.2274                   22659221.4224
 -42705578.32046 -33127049.98043  22901836.3054                   22901830.9734
  -7351213.53546  -4033266.35243  23062621.0944   23062619.1054   20449912.29346
                                  20184185.27743  24176762.8984   24176761.1994
 11  8 23  3 16  0.0000000  0 10G18G12G26G29G05G15G25G02G30G21
  24788500.18046  21226601.66042  23812416.8984                   23812415.1884
 -21407079.83246 -15718196.09443  23781523.6174   23781522.1454
  -1230899.00047   1579332.32444  21577221.2734                   21577219.5474
 -10306430.55147  -7995138.55145  20745560.8834                   20745558.3404
 -25716612.28147 -19889795.41845  21983655.4144                   21983652.9144
   8026424.85247   6718004.79344  22048543.9224                   22048540.9804
 -11675667.98047  -9056548.91444  22655401.1414                   22655402.1454
 -42741248.02346 -33154844.59443  22895048.0394                   22895043.5824
  -7364494.48046  -4043615.18743  23060093.7974   23060091.8984   20305177.48446
                                  20071404.98043  24149221.2734   24149218.8284
 11  8 23  3 16 30.0000000  0 10G18G12G26G29G05G15G25G02G30G21
  24623042.68446  21097673.87943  23780930.5944                   23780929.8634
 -21400208.87946 -15712842.16843  23782831.7114   23782829.8594
  -1365090.45747   1474767.56344  21551685.0944                   21551683.7034
 -10441921.14547  -8100715.62945  20719778.4144                   20719775.1914
 -25724996.55147 -19896328.61745  21982060.6804                   21982057.3674
   7857792.44947   6586602.98444  22016453.6024                   22016450.9024
 -11695448.35547  -9071962.22744  22651637.6804                   22651637.8364
 -42776794.37146 -33182543.06243  22888282.7734                   22888279.8484
  -7377547.31246  -4053786.23443  23057609.8754   23057608.0784   20160408.02746
                                  19958597.71143  24121671.1804   24121669.9844
 11  8 23  3 17  0.0000000  0 10G18G12G26G29G05G15G25G02G30G21
  24457814.80946  20968924.98842  23749487.7344                   23749487.5824
 -21393330.12946 -15707482.09843  23784140.7894   23784138.9414
  -1498711.55147   1370647.25844  21526258.7664                   21526256.6214
 -10577010.12147  -8205979.74245  20694071.2584                   20694068.7814
 -25733192.22747 -19902714.87545  21980500.3284                   21980497.6454
   7689465.94547   6455439.51644  21984422.3594                   21984420.2384
 -11714940.71547  -9087151.11744  22647928.2584                   22647928.6134
 -42812218.27746 -33210146.14144  22881543.6254                   22881538.1054
  -7390376.41046  -4063782.96943  23055168.7814   23055167.0274   20015602.68046
                                  19845762.44543  24094117.0554   24094114.0904
 11  8 23  3 17 30.0000000  0 10G18G12G26G29G05G15G25G02G30G21
  24292817.98046  20840356.18443  23718090.9534                   23718089.5204
 -21386445.57846 -15702117.54343  23785450.4614   23785448.7894
  -1631758.48847   1266974.34044  21500940.4694                   21500938.2504
 -10711694.55547  -8310928.64145  20668442.1024                   20668439.4414
 -25741200.96547 -19908955.46145  21978976.0474                   21978973.3094
   7521449.20347   6324517.42644  21952450.2114                   21952447.5704
 -11734147.27347  -9102117.28144  22644273.7974                   22644273.6214
 -42847518.53146 -33237652.87543  22874825.4454                   22874821.4534
  -7402984.23046  -4073607.26243  23052768.9614   23052767.5824   19870762.06346
                                  19732899.74643  24066554.9614   24066551.7074
 11  8 23  3 18  0.0000000  0 10G18G12G26G29G05G15G25G02G30G21
  24128052.66446  20711967.77343  23686737.2194                   23686735.8794
 -21379558.62946 -15696751.12143  23786760.7584   23786759.3554
  -1764229.37146   1163750.29744  21475732.0554                   21475730.1054
 -10845972.78147  -8415561.00445  20642889.5004                   20642886.9804
 -25749025.51247 -19915052.52045  21977487.6094                   21977484.9264
   7353744.87547   6193838.77344  21920536.6174                   21920534.2664
 -11753071.34047  -9116863.34044  22640672.3444                   22640672.8404
 -42882694.94946 -33265063.09044  22868131.6414                   22868127.5394
  -7415374.25846  -4083261.87543  23050411.5634   23050410.0434   19725885.57046
                                  19620009.03143  24038985.1884   24038983.0084
 11  8 23  3 18 30.0000000  0 10G18G12G26G29G05G15G25G02G30G21
  23963518.42246  20583759.38743  23655427.7664                   23655425.6454
 -21372673.28146 -15691385.94543  23788071.1954   23788070.3554
  -1896122.76647   1060976.24644  21450633.4144                   21450631.3874
 -10979844.15647  -8519876.34045  20617414.5084                   20617412.0394
 -25756670.02747 -19921009.28545  21976032.4924                   21976029.9344
   7186354.40647   6063404.69944  21888683.2664                   21888680.7074
 -11771717.58247  -9131392.91044  22637124.1174                   22637124.6374
 -42917748.45746 -33292377.55143  22861461.2584                   22861456.7464
  -7427551.31246  -4092750.53543  23048094.0084   23048092.6214   19580971.36746
                                  19507088.95343  24011409.2344   24011406.5234
 11  8 23  3 19  0.0000000  0 10G18G12G26G29G05G15G25G02G30G21
  23799217.09846  20455732.50843  23624160.8674                   23624159.5984
 -21365791.58646 -15686023.62143  23789380.4774   23789380.1954
  -2027434.97347    958655.07844  21425644.8444                   21425643.4804
 -11113305.27047  -8623872.00445  20592017.6484                   20592015.0314
 -25764135.17247 -19926826.29345  21974612.5164                   21974609.6724
   7019282.30547   5933218.68444  21856890.6804                   21856888.0164
 -11790087.78547  -9145707.38344  22633628.2894                   22633629.0314
 -42952677.43746 -33319594.95743  22854814.2114                   22854809.9384
  -7439517.43746  -4102074.83243  23045817.2734   23045815.9104   19436020.63746
                                  19394140.43443  23983825.4304   23983823.4884
 11  8 23  3 19 30.0000000  0 10G18G12G26G29G05G15G25G02G30G21
  23635149.46146  20327887.72342  23592940.5944                   23592939.5314
 -21358916.24646 -15680666.27743  23790689.1174   23790688.7584
  -2158163.48047    856788.73444  21400768.8134                   21400766.9614
 -11246353.87547  -8727546.22745  20566699.9924                   20566696.7154
 -25771423.37947 -19932505.40645  21973225.3834                   21973222.4804
   6852531.39147   5803282.94544  21825158.6094                   21825156.2234
 -11808185.06247  -9159809.18444  22630184.6094                   22630184.9964
 -42987481.39546 -33346714.96543  22848191.5314                   22848187.3094
  -7451275.82846  -4111237.24243  23043580.2034   23043578.6134   19291032.82046
                                  19281162.96943  23956234.8134   23956232.8204
 11  8 23  3 20  0.0000000  0 10G18G12G26G29G05G15G25G02G30G21
  23471318.38346  20200227.24243  23561764.9534                   23561763.0084
 -21352048.12946 -15675314.51243  23791996.2504   23791995.6564
  -2288303.60247    755380.87544  21376003.9224                   21376001.9884
 -11378985.50047  -8830895.53546  20541460.8134                   20541458.1724
 -25778534.64147 -19938046.66445  21971871.7974                   21971869.2464
   6686106.67247   5673601.36344  21793489.4144                   21793487.0044
 -11826010.28547  -9173698.98444  22626792.4534                   22626792.9774
 -43022157.57846 -33373735.40243  22841593.2194                   22841588.8954
  -7462827.52746  -4120238.62143  23041382.0634   23041379.9414   19146009.75846
                                  19168158.07843  23928638.0554   23928634.9574
 11  8 23  3 20 30.0000000  0 10G18G12G26G29G05G15G25G02G30G21
  23307723.53546  20072750.85543  23530633.1954                   23530631.6294
 -21345191.22346 -15669971.48843  23793301.4614   23793300.4774
  -2417854.24647    654432.34044  21351351.0234                   21351348.9924
 -11511199.52747  -8933919.43745  20516300.9844                   20516298.4454
 -25785472.83647 -19943453.05144  21970551.3054                   21970548.5944
   6520009.88747   5544175.33244  21761881.9694                   21761879.5594
 -11843567.77347  -9187380.16044  22623451.7664                   22623451.6454
 -43056706.84846 -33400656.93743  22835018.4384                   22835014.3164
  -7474177.12146  -4129082.51643  23039221.5784   23039220.4924   19000950.06346
                                  19055124.62543  23901034.5474   23901032.0664
